[[{"header":{"parameterUnit":"m.s-1","parameterCategory":1,"la1":30.6,"la2":28.766,"lo1":-90.7593,"lo2":-88.6598,"dy":0.0162,"dx":0.0183,"nx":116,"ny":114,"refTime":"2023-07-15T12:00:00:Z","depth":0,"parameterNumber":2,"parameterNumberName":"U-component_of_WINDS"},"data":[0.0,0.0,0.0,0.0,0.0,0.0,0.0,0.0,0.0,0.0,0.0,0.0,0.0,0.0,0.0,0.0,0.0,0.0,0.0,0.0,0.0,0.0,0.0,0.0,0.0,0.0,0.0,0.0,0.0,0.0,0.0,0.0,0.0,0.0,0.0,0.0,0.0,0.0,0.0,0.0,0.0,0.0,0.0,0.0,0.0,0.0,0.0,0.0,0.0,0.0,0.0,0.0,0.0,0.0,0.0,0.0,0.0,0.0,0.0,0.0,0.0,0.0,0.0,0.0,0.0,0.0,0.0,0.0,0.0,0.0,0.0,0.0,0.0,0.0,0.0,0.0,0.0,0.0,0.0,0.0,0.0,0.0,0.0,0.0,0.0,0.0,0.0,0.0,0.0,0.0,0.0,0.0,0.0,0.0,0.0,0.0,0.0,0.0,0.0,0.0,0.0,0.0,0.0,0.0,0.0,0.0,0.0,0.0,0.0,0.0,0.0,0.0,0.0,0.0,0.0,0.0,0.0,0.0,0.0,0.0,0.0,0.0,0.0,0.0,0.0,0.0,0.0,0.0,0.0,0.0,0.0,0.0,0.0,0.0,0.0,0.0,0.0,0.0,0.0,0.0,0.0,0.0,0.0,0.0,0.0,0.0,0.0,0.0,0.0,0.0,0.0,0.0,0.0,0.0,0.0,0.0,0.0,0.0,0.0,0.0,0.0,0.0,0.0,0.0,0.0,0.0,0.0,0.0,0.0,0.0,0.0,0.0,0.0,0.0,0.0,0.0,0.0,0.0,0.0,0.0,0.0,0.0,0.0,0.0,0.0,0.0,0.0,0.0,0.0,0.0,0.0,0.0,0.0,0.0,0.0,0.0,0.0,0.0,0.0,0.0,0.0,0.0,0.0,0.0,0.0,0.0,0.0,0.0,0.0,0.0,0.0,0.0,0.0,0.0,0.0,0.0,0.0,0.0,0.0,0.0,0.0,0.0,0.0,0.0,0.0,0.0,0.0,0.0,0.0,0.0,0.0,0.0,0.0,0.0,0.0,0.0,0.0,0.0,0.0,0.0,0.0,0.0,0.0,0.0,0.0,0.0,0.0,0.0,0.0,0.0,0.0,0.0,0.0,0.0,0.0,0.0,0.0,0.0,0.0,0.0,0.0,0.0,0.0,0.0,0.0,0.0,0.0,0.0,0.0,0.0,0.0,0.0,0.0,0.0,0.0,0.0,0.0,0.0,0.0,0.0,0.0,0.0,0.0,0.0,0.0,0.0,0.0,0.0,0.0,0.0,0.0,0.0,0.0,0.0,0.0,0.0,0.0,0.0,0.0,0.0,0.0,0.0,0.0,0.0,0.0,0.0,0.0,0.0,0.0,0.0,0.0,0.0,0.0,0.0,0.0,0.0,0.0,0.0,0.0,0.0,0.0,0.0,0.0,0.0,0.0,0.0,0.0,0.0,0.0,0.0,0.0,0.0,0.0,0.0,0.0,0.0,0.0,0.0,0.0,0.0,0.0,0.0,0.0,0.0,0.0,0.0,0.0,0.0,0.0,0.0,0.0,0.0,0.0,0.0,0.0,0.0,0.0,0.0,0.0,0.0,0.0,0.0,0.0,0.0,0.0,0.0,0.0,0.0,0.0,0.0,0.0,0.0,0.0,0.0,0.0,0.0,0.0,0.0,0.0,0.0,0.0,0.0,0.0,0.0,0.0,0.0,0.0,0.0,0.0,0.0,0.0,0.0,0.0,0.0,0.0,0.0,0.0,0.0,0.0,0.0,0.0,0.0,0.0,0.0,0.0,0.0,0.0,0.0,0.0,0.0,0.0,0.0,0.0,0.0,0.0,0.0,0.0,0.0,0.0,0.0,0.0,0.0,0.0,0.0,0.0,0.0,0.0,0.0,0.0,0.0,0.0,0.0,0.0,0.0,0.0,0.0,0.0,0.0,0.0,0.0,0.0,0.0,0.0,0.0,0.0,0.0,0.0,0.0,0.0,0.0,0.0,0.0,0.0,0.0,0.0,0.0,0.0,0.0,0.0,0.0,0.0,0.0,0.0,0.0,0.0,0.0,0.0,0.0,0.0,0.0,0.0,0.0,0.0,0.0,0.0,0.0,0.0,0.0,0.0,0.0,0.0,0.0,0.0,0.0,0.0,0.0,0.0,0.0,0.0,0.0,0.0,0.0,0.0,0.0,0.0,0.0,0.0,0.0,0.0,0.0,0.0,0.0,0.0,0.0,0.0,0.0,0.0,0.0,0.0,0.0,0.0,0.0,0.0,0.0,0.0,0.0,0.0,0.0,0.0,0.0,0.0,0.0,0.0,0.0,0.0,0.0,0.0,0.0,0.0,0.0,0.0,0.0,0.0,0.0,0.0,0.0,0.0,0.0,0.0,0.0,0.0,0.0,0.0,0.0,0.0,0.0,0.0,0.0,0.0,0.0,0.0,0.0,0.0,0.0,0.0,0.0,0.0,0.0,0.0,0.0,0.0,0.0,0.0,0.0,0.0,0.0,0.0,0.0,0.0,0.0,0.0,0.0,0.0,0.0,0.0,0.0,0.0,0.0,0.0,0.0,0.0,0.0,0.0,0.0,0.0,0.0,0.0,0.0,0.0,0.0,0.0,0.0,0.0,0.0,0.0,0.0,0.0,0.0,0.0,0.0,0.0,0.0,0.0,0.0,0.0,0.0,0.0,0.0,0.0,0.0,0.0,0.0,0.0,0.0,0.0,0.0,0.0,0.0,0.0,0.0,0.0,0.0,0.0,0.0,0.0,0.0,0.0,0.0,0.0,0.0,0.0,0.0,0.0,0.0,0.0,0.0,0.0,0.0,0.0,0.0,0.0,0.0,0.0,0.0,0.0,0.0,0.0,0.0,0.0,0.0,0.0,0.0,0.0,0.0,0.0,0.0,0.0,0.0,0.0,0.0,0.0,0.0,0.0,0.0,0.0,0.0,0.0,0.0,0.0,0.0,0.0,0.0,0.0,0.0,0.0,0.0,0.0,0.0,0.0,0.0,0.0,0.0,0.0,0.0,0.0,0.0,0.0,0.0,0.0,0.0,0.0,0.0,0.0,0.0,0.0,0.0,0.0,0.0,0.0,0.0,0.0,0.0,0.0,0.0,0.0,0.0,0.0,0.0,0.0,0.0,0.0,0.0,0.0,0.0,0.0,0.0,0.0,0.0,0.0,0.0,0.0,0.0,0.0,0.0,0.0,0.0,0.0,0.0,0.0,0.0,0.0,0.0,0.0,0.0,0.0,0.0,0.0,0.0,0.0,0.0,0.0,0.0,0.0,0.0,0.0,0.0,0.0,0.0,0.0,0.0,0.0,0.0,0.0,0.0,0.0,0.0,0.0,0.0,0.0,0.0,0.0,0.0,0.0,0.0,0.0,0.0,0.0,0.0,0.0,0.0,0.0,0.0,0.0,0.0,0.0,0.0,0.0,0.0,0.0,0.0,0.0,0.0,0.0,0.0,0.0,0.0,0.0,0.0,0.0,0.0,0.0,0.0,0.0,0.0,0.0,0.0,0.0,0.0,0.0,0.0,0.0,0.0,0.0,0.0,0.0,0.0,0.0,0.0,0.0,0.0,0.0,0.0,0.0,0.0,0.0,0.0,0.0,0.0,0.0,0.0,0.0,0.0,0.0,0.0,0.0,0.0,0.0,0.0,0.0,0.0,0.0,0.0,0.0,0.0,0.0,0.0,0.0,0.0,0.0,0.0,0.0,0.0,0.0,0.0,0.0,0.0,0.0,0.0,0.0,0.0,0.0,0.0,0.0,0.0,0.0,0.0,0.0,0.0,0.0,0.0,0.0,0.0,0.0,0.0,0.0,0.0,0.0,0.0,0.0,0.0,0.0,0.0,0.0,0.0,0.0,0.0,0.0,0.0,0.0,0.0,0.0,0.0,0.0,0.0,0.0,0.0,0.0,0.0,0.0,0.0,0.0,0.0,0.0,0.0,0.0,0.0,0.0,0.0,0.0,0.0,0.0,0.0,0.0,0.0,0.0,0.0,0.0,0.0,0.0,0.0,0.0,0.0,0.0,0.0,0.0,0.0,0.0,0.0,0.0,0.0,0.0,0.0,0.0,0.0,0.0,0.0,0.0,0.0,0.0,0.0,0.0,0.0,0.0,0.0,0.0,0.0,0.0,0.0,0.0,0.0,0.0,0.0,0.0,0.0,0.0,0.0,0.0,0.0,0.0,0.0,0.0,0.0,0.0,0.0,0.0,0.0,0.0,0.0,0.0,0.0,0.0,0.0,0.0,0.0,0.0,0.0,0.0,0.0,0.0,0.0,0.0,0.0,0.0,0.0,0.0,0.0,0.0,0.0,0.0,0.0,0.0,0.0,0.0,0.0,0.0,0.0,0.0,0.0,0.0,0.0,0.0,0.0,0.0,0.0,0.0,0.0,0.0,0.0,0.0,0.0,0.0,0.0,0.0,0.0,0.0,0.0,0.0,0.0,0.0,0.0,0.0,0.0,0.0,0.0,0.0,0.0,0.0,0.0,0.0,0.0,0.0,0.0,0.0,0.0,0.0,0.0,0.0,0.0,0.0,0.0,0.0,0.0,0.0,0.0,0.0,0.0,0.0,0.0,0.0,0.0,0.0,0.0,0.0,0.0,0.0,0.0,0.0,0.0,0.0,0.0,0.0,0.0,0.0,0.0,0.0,0.0,0.0,0.0,0.0,0.0,0.0,0.0,0.0,0.0,0.0,0.0,0.0,0.0,0.0,0.0,0.0,0.0,0.0,0.0,0.0,0.0,0.0,0.0,0.0,0.0,0.0,0.0,0.0,0.0,0.0,0.0,0.0,0.0,0.0,0.0,0.0,0.0,0.0,0.0,0.0,0.0,0.0,0.0,0.0,0.0,0.0,0.0,0.0,0.0,0.0,0.0,0.0,0.0,0.0,0.0,0.0,0.0,0.0,0.0,0.0,0.0,0.0,0.0,0.0,0.0,0.0,0.0,0.0,0.0,0.0,0.0,0.0,0.0,0.0,0.0,0.0,0.0,0.0,0.0,0.0,0.0,0.0,0.0,0.0,0.0,0.0,0.0,0.0,0.0,0.0,0.0,0.0,0.0,0.0,0.0,0.0,0.0,0.0,0.0,0.0,0.0,0.0,0.0,0.0,0.0,0.0,0.0,0.0,0.0,0.0,0.0,0.0,0.0,0.0,0.0,0.0,0.0,0.0,0.0,0.0,0.0,0.0,0.0,0.0,0.0,0.0,0.0,0.0,0.0,0.0,0.0,0.0,0.0,0.0,0.0,0.0,0.0,0.0,0.0,0.0,0.0,0.0,0.0,0.0,0.0,0.0,0.0,0.0,0.0,0.0,0.0,0.0,0.0,0.0,0.0,0.0,0.0,0.0,0.0,0.0,0.0,0.0,0.0,0.0,0.0,0.0,0.0,0.0,0.0,0.0,0.0,0.0,0.0,0.0,0.0,0.0,0.0,0.0,0.0,0.0,0.0,0.0,0.0,0.0,0.0,0.0,0.0,0.0,0.0,0.0,0.0,0.0,0.0,0.0,0.0,0.0,0.0,0.0,0.0,0.0,0.0,0.0,0.0,0.0,0.0,0.0,0.0,0.0,0.0,0.0,0.0,0.0,0.0,0.0,0.0,0.0,0.0,0.0,0.0,0.0,0.0,0.0,0.0,0.0,0.0,0.0,0.0,0.0,0.0,0.0,0.0,0.0,0.0,0.0,0.0,0.0,0.0,0.0,0.0,0.0,0.0,0.0,0.0,0.0,0.0,0.0,0.0,0.0,0.0,0.0,0.0,0.0,0.0,0.0,0.0,0.0,0.0,0.0,0.0,0.0,0.0,0.0,0.0,0.0,0.0,0.0,0.0,0.0,0.0,0.0,0.0,0.0,0.0,0.0,0.0,0.0,0.0,0.0,0.0,0.0,0.0,0.0,0.0,0.0,0.0,0.0,0.0,0.0,0.0,0.0,0.0,0.0,0.0,0.0,0.0,0.0,0.0,0.0,0.0,0.0,0.0,0.0,0.0,0.0,0.0,0.0,0.0,0.0,0.0,0.0,0.0,0.0,0.0,0.0,0.0,0.0,0.0,0.0,0.0,0.0,0.0,0.0,0.0,0.0,0.0,-4.7051,0.0,0.0,0.0,0.0,0.0,0.0,0.0,0.0,0.0,0.0,0.0,0.0,0.0,0.0,0.0,0.0,0.0,0.0,0.0,0.0,0.0,0.0,0.0,0.0,0.0,0.0,0.0,0.0,0.0,0.0,0.0,0.0,0.0,0.0,0.0,0.0,0.0,0.0,0.0,0.0,0.0,0.0,0.0,0.0,0.0,0.0,0.0,0.0,0.0,0.0,0.0,0.0,0.0,0.0,0.0,0.0,0.0,0.0,0.0,0.0,0.0,0.0,0.0,0.0,0.0,0.0,0.0,0.0,0.0,0.0,0.0,0.0,0.0,0.0,0.0,0.0,0.0,0.0,0.0,0.0,0.0,0.0,0.0,0.0,0.0,0.0,0.0,0.0,0.0,0.0,0.0,0.0,0.0,0.0,0.0,0.0,0.0,0.0,0.0,0.0,0.0,0.0,0.0,0.0,0.0,0.0,0.0,0.0,0.0,0.0,0.0,0.0,0.0,0.0,0.0,0.0,-4.7646,0.0,0.0,0.0,0.0,0.0,0.0,0.0,0.0,0.0,0.0,0.0,0.0,0.0,0.0,0.0,0.0,0.0,0.0,0.0,0.0,0.0,0.0,0.0,0.0,0.0,0.0,0.0,0.0,0.0,0.0,0.0,0.0,0.0,0.0,0.0,0.0,0.0,0.0,0.0,0.0,0.0,0.0,0.0,0.0,0.0,0.0,0.0,0.0,0.0,0.0,0.0,0.0,0.0,0.0,0.0,0.0,0.0,0.0,0.0,0.0,0.0,0.0,0.0,0.0,0.0,0.0,0.0,0.0,0.0,0.0,0.0,0.0,0.0,0.0,0.0,0.0,0.0,0.0,0.0,0.0,0.0,0.0,0.0,0.0,0.0,0.0,0.0,0.0,0.0,0.0,0.0,0.0,0.0,0.0,0.0,0.0,0.0,0.0,0.0,0.0,0.0,0.0,0.0,0.0,0.0,0.0,0.0,0.0,0.0,-4.8909,-4.8909,-4.8909,-4.8909,-4.8909,-4.8909,-4.8874,-4.8804,0.0,0.0,0.0,0.0,0.0,0.0,0.0,0.0,0.0,0.0,0.0,0.0,0.0,0.0,0.0,0.0,0.0,0.0,0.0,0.0,0.0,0.0,0.0,0.0,0.0,0.0,0.0,0.0,0.0,0.0,0.0,0.0,0.0,0.0,0.0,0.0,0.0,0.0,-4.5603,-4.5629,-4.5603,-4.5603,-4.5612,-4.5575,0.0,0.0,0.0,0.0,0.0,0.0,0.0,0.0,0.0,0.0,0.0,0.0,0.0,0.0,0.0,0.0,0.0,0.0,0.0,0.0,0.0,0.0,0.0,0.0,0.0,0.0,0.0,0.0,0.0,0.0,0.0,0.0,0.0,0.0,0.0,0.0,0.0,0.0,0.0,0.0,0.0,0.0,0.0,-4.947,-4.9348,0.0,0.0,0.0,0.0,0.0,0.0,0.0,0.0,0.0,0.0,0.0,0.0,0.0,0.0,-4.9101,-4.8962,-4.8909,-4.8909,-4.8909,-4.8909,-4.8909,-4.8909,-4.8909,-4.8909,-4.8909,0.0,-4.8382,-4.8382,0.0,0.0,0.0,0.0,0.0,0.0,0.0,0.0,0.0,0.0,0.0,0.0,0.0,0.0,0.0,0.0,0.0,0.0,0.0,0.0,0.0,0.0,0.0,0.0,0.0,0.0,0.0,0.0,0.0,0.0,0.0,0.0,0.0,0.0,0.0,0.0,-4.5594,-4.5594,-4.5594,-4.5594,-4.5577,-4.5531,-4.5559,-4.5565,-4.5577,-4.5521,0.0,0.0,0.0,0.0,0.0,0.0,0.0,0.0,0.0,0.0,0.0,0.0,0.0,0.0,0.0,0.0,0.0,0.0,0.0,0.0,0.0,0.0,0.0,0.0,0.0,0.0,0.0,0.0,0.0,0.0,0.0,0.0,0.0,0.0,0.0,0.0,0.0,0.0,0.0,-4.9546,-4.9585,-4.9505,-4.9509,-4.9509,0.0,0.0,0.0,0.0,0.0,0.0,0.0,0.0,0.0,-4.915,-4.9118,-4.9049,-4.8979,-4.8926,-4.8909,-4.8909,-4.8909,-4.8909,-4.8909,-4.8909,-4.8909,-4.8909,-4.8909,-4.8678,-4.8325,-4.855,-4.8383,-4.7995,0.0,0.0,0.0,0.0,0.0,-4.712,0.0,0.0,0.0,0.0,0.0,0.0,0.0,0.0,0.0,0.0,0.0,0.0,0.0,0.0,0.0,-4.5734,0.0,0.0,0.0,0.0,0.0,0.0,0.0,0.0,0.0,0.0,0.0,-4.5594,-4.5594,-4.5594,-4.5594,-4.5594,-4.5577,-4.5522,-4.5577,-4.555,-4.5419,-4.541,-4.538,0.0,0.0,0.0,0.0,0.0,0.0,0.0,0.0,0.0,0.0,0.0,0.0,0.0,0.0,0.0,0.0,0.0,0.0,0.0,0.0,0.0,0.0,0.0,0.0,0.0,0.0,0.0,0.0,0.0,0.0,0.0,0.0,0.0,0.0,0.0,0.0,0.0,0.0,-4.9585,-4.9509,-4.9509,-4.9509,-4.9509,0.0,0.0,0.0,0.0,0.0,0.0,-4.9308,-4.9308,-4.9246,-4.9101,-4.9101,-4.9032,-4.8909,-4.8909,-4.8909,-4.8909,-4.8909,-4.8909,-4.8909,-4.8785,-4.875,-4.8732,-4.8623,-4.8383,-4.8134,-4.8569,-4.8439,-4.7935,-4.7935,-4.765,-4.7248,-4.7248,-4.7075,-4.6786,0.0,0.0,0.0,0.0,0.0,0.0,0.0,0.0,0.0,0.0,0.0,0.0,0.0,0.0,-4.5594,-4.5603,-4.5603,-4.5603,0.0,0.0,0.0,0.0,0.0,0.0,0.0,0.0,0.0,-4.5594,-4.5594,-4.5594,-4.5594,-4.5594,-4.5594,-4.5605,-4.5594,-4.5568,-4.5495,-4.5429,-4.54,-4.539,0.0,0.0,0.0,0.0,0.0,0.0,0.0,0.0,0.0,0.0,0.0,0.0,0.0,0.0,0.0,0.0,0.0,0.0,0.0,0.0,0.0,0.0,0.0,0.0,0.0,0.0,0.0,0.0,0.0,0.0,0.0,0.0,0.0,0.0,0.0,0.0,0.0,0.0,0.0,-4.9509,-4.9509,0.0,0.0,0.0,0.0,-4.9509,-4.9509,-4.944,-4.9308,-4.9308,-4.9246,-4.9101,-4.9101,-4.9032,-4.8909,-4.8909,-4.8909,-4.8909,-4.8909,-4.8909,-4.8891,-4.8513,-4.8325,-4.8306,-4.7856,-4.7653,-4.7674,-4.8152,-4.7795,-4.6976,-4.6976,-4.6672,-4.627,-4.627,-4.6097,-4.5871,0.0,0.0,0.0,0.0,0.0,0.0,0.0,0.0,0.0,0.0,0.0,0.0,0.0,-4.5594,-4.5618,-4.5712,-4.5719,-4.5719,-4.5719,0.0,0.0,0.0,0.0,0.0,0.0,0.0,-4.5594,-4.5594,-4.5594,-4.5594,-4.5594,-4.5594,-4.5594,-4.5594,-4.5594,-4.5586,-4.5568,-4.5495,-4.5438,-4.539,-4.5369,-4.5338,0.0,0.0,0.0,0.0,0.0,0.0,0.0,0.0,0.0,0.0,0.0,0.0,0.0,0.0,0.0,0.0,0.0,0.0,0.0,0.0,0.0,0.0,0.0,0.0,0.0,0.0,0.0,0.0,0.0,0.0,0.0,0.0,0.0,0.0,0.0,0.0,0.0,-4.9509,-4.9509,0.0,-4.9509,-4.9509,-4.9509,-4.9509,-4.9509,-4.944,-4.9308,-4.9308,-4.9489,-4.9865,-4.9867,-5.0074,-5.0506,-5.0506,-5.0506,-5.0506,-5.0506,-5.0506,-5.0506,-5.0361,-5.0287,-5.0306,-5.0118,-4.985,-4.9535,-4.9713,-4.8644,-4.6908,-4.6908,-4.6602,-4.6196,-4.6196,-4.6073,-4.5922,0.0,0.0,0.0,0.0,0.0,0.0,0.0,0.0,0.0,0.0,0.0,-4.5594,-4.5594,-4.5594,-4.5646,-4.5719,-4.5727,-4.5727,-4.5727,0.0,0.0,0.0,0.0,0.0,0.0,-4.5594,-4.5594,-4.5594,-4.5594,-4.5594,-4.5594,-4.5594,-4.5594,-4.5594,-4.5594,-4.5594,-4.5605,-4.5522,-4.5467,-4.5438,-4.5399,-4.5369,-4.5328,0.0,0.0,0.0,0.0,0.0,0.0,0.0,0.0,0.0,0.0,0.0,0.0,0.0,0.0,0.0,0.0,0.0,0.0,0.0,0.0,0.0,0.0,0.0,0.0,0.0,0.0,0.0,0.0,0.0,0.0,0.0,0.0,0.0,0.0,0.0,-4.9509,-4.9509,-4.9509,-4.9509,-4.9509,-4.9509,-4.9602,-4.9884,-4.9903,-4.9981,-5.018,-5.018,-5.0361,-5.079,-5.0755,-5.0964,-5.1434,-5.1416,-5.1398,-5.1398,-5.1398,-5.1398,-5.1398,-5.125,-5.1081,-5.0909,-5.0752,-5.0391,-4.9905,-4.9905,-4.891,-4.7435,-4.7333,-4.685,-4.6196,-4.6196,-4.6122,-4.5972,0.0,0.0,0.0,0.0,0.0,0.0,0.0,0.0,0.0,0.0,-4.5594,-4.5594,-4.5594,-4.5594,-4.5594,-4.5594,-4.5594,-4.5594,-4.5594,-4.5594,0.0,0.0,0.0,0.0,-4.5594,-4.5594,-4.5594,-4.5594,-4.5594,-4.5594,-4.5594,-4.5594,-4.5594,-4.5594,-4.5594,-4.5594,-4.5605,-4.5522,-4.5504,-4.5495,-4.5429,-4.5408,-4.5398,0.0,0.0,0.0,0.0,0.0,0.0,0.0,0.0,0.0,0.0,0.0,0.0,0.0,0.0,0.0,0.0,0.0,0.0,0.0,0.0,0.0,0.0,0.0,0.0,0.0,0.0,0.0,0.0,0.0,0.0,0.0,0.0,0.0,-4.9509,-4.9509,-4.9509,-4.9509,-4.9509,-4.9509,-4.9546,-4.9546,-4.9865,-5.0688,-5.0745,-5.1067,-5.1874,-5.1912,-5.1863,-5.1834,-5.1714,-5.1611,-5.1578,-5.1508,-5.1472,-5.1472,-5.1472,-5.1472,-5.1454,-5.1002,-5.0542,-5.0093,-4.9623,-4.9099,-4.8617,-4.8617,-4.8573,-4.8494,-4.8222,-4.7357,-4.6267,-4.6267,-4.6192,-4.6007,0.0,0.0,0.0,0.0,0.0,0.0,0.0,0.0,0.0,0.0,-4.5631,-4.5594,-4.5594,-4.5594,-4.5594,-4.5594,-4.5594,-4.5594,-4.5594,0.0,0.0,0.0,0.0,0.0,-4.5594,-4.5594,-4.5594,-4.5594,-4.5594,-4.5594,-4.5594,-4.5594,-4.5594,-4.5594,-4.5594,-4.5594,-4.5605,-4.5522,-4.5504,-4.5495,-4.5429,-4.54,-4.5408,0.0,0.0,0.0,0.0,0.0,0.0,0.0,0.0,0.0,0.0,0.0,0.0,0.0,0.0,0.0,0.0,0.0,0.0,0.0,0.0,0.0,0.0,0.0,0.0,0.0,0.0,0.0,0.0,0.0,0.0,0.0,0.0,-4.9509,-4.9509,-4.9509,-4.9509,-4.9509,-4.9509,-4.9734,-5.0297,-5.0372,-5.0691,-5.1518,-5.1574,-5.1668,-5.1893,-5.1912,-5.2125,-5.2641,-5.2593,-5.2786,-5.3293,-5.32,-5.3144,-5.3144,-5.3144,-5.3144,-5.3144,-5.3011,-5.2876,-5.2739,-5.227,-5.1733,-5.1227,-5.0891,-5.0203,-4.9302,-4.8657,-4.8166,-4.7863,-4.7863,-4.7512,-4.6988,0.0,0.0,0.0,0.0,0.0,0.0,0.0,0.0,0.0,0.0,-4.5631,-4.5594,-4.5594,-4.5594,-4.5594,-4.5594,-4.5594,-4.5594,-4.5594,0.0,0.0,0.0,0.0,-4.5594,-4.5594,-4.5594,-4.5594,-4.5594,-4.5594,-4.5594,-4.5594,-4.5594,-4.5594,-4.5594,-4.5594,-4.5594,-4.5605,-4.5522,-4.5504,-4.5495,-4.5429,-4.539,-4.5398,-4.5378,-4.5328,-4.5307,-4.5307,-4.5307,-4.5307,-4.5307,0.0,0.0,0.0,0.0,0.0,0.0,0.0,0.0,0.0,0.0,0.0,0.0,0.0,0.0,0.0,0.0,0.0,0.0,0.0,0.0,0.0,0.0,0.0,0.0,-4.9875,-4.9997,-4.9997,-4.9715,-4.9621,-4.9959,-4.9997,-5.0316,-5.1123,-5.1198,-5.1555,-5.2381,-5.2437,-5.2588,-5.2926,-5.2944,-5.3136,-5.3554,-5.3524,-5.3679,-5.4037,-5.3926,-5.3851,-5.3813,-5.3813,-5.3813,-5.3813,-5.3813,-5.3698,0.0,-5.3222,-5.2674,-5.1988,-5.1708,-5.1039,0.0,0.0,0.0,0.0,0.0,-4.824,-4.7828,0.0,0.0,0.0,0.0,0.0,0.0,0.0,0.0,0.0,0.0,0.0,-4.5594,-4.5594,-4.5594,-4.5594,-4.5594,-4.5594,-4.5594,0.0,0.0,0.0,-4.5594,-4.5594,-4.5594,-4.5594,-4.5594,-4.5594,-4.5594,-4.5594,-4.5594,-4.5594,-4.5594,-4.5594,-4.5594,-4.5594,-4.5594,-4.5605,-4.5522,-4.5504,-4.5495,-4.5429,-4.539,-4.5379,-4.5328,-4.5307,-4.5307,-4.5307,-4.5307,-4.5307,-4.5307,0.0,0.0,0.0,0.0,0.0,0.0,0.0,0.0,0.0,0.0,0.0,0.0,0.0,0.0,0.0,0.0,0.0,0.0,0.0,0.0,0.0,0.0,0.0,0.0,-5.0313,-5.0842,-5.0842,-5.0222,-5.0034,-5.0764,-5.0842,-5.1142,-5.1968,-5.2043,-5.24,-5.328,-5.3337,-5.3656,-5.4352,0.0,0.0,0.0,0.0,-5.4236,-5.4109,-5.4019,-5.3926,-5.3813,-5.3813,-5.3813,-5.3813,-5.3813,-5.3582,-5.318,-5.3117,-5.2603,-5.1775,-5.1651,-5.1305,-5.082,-5.0101,-4.9398,-4.8758,-4.8758,-4.8705,0.0,0.0,0.0,0.0,0.0,0.0,0.0,0.0,0.0,0.0,-4.5594,-4.5594,-4.5594,-4.5594,-4.5594,-4.5594,-4.5594,-4.5594,-4.5594,0.0,0.0,-4.5594,-4.5594,-4.5594,-4.5594,-4.5594,-4.5594,-4.5594,-4.5594,-4.5594,-4.5594,-4.5594,-4.5594,-4.5594,-4.5594,-4.5594,-4.5594,-4.5605,-4.5522,-4.5504,-4.5495,-4.5429,-4.539,-4.5408,-4.5398,-4.5338,-4.5307,-4.5307,-4.5307,-4.5307,-4.5307,-4.5307,-4.5307,-4.5307,0.0,0.0,0.0,0.0,0.0,0.0,0.0,0.0,0.0,0.0,0.0,0.0,0.0,0.0,0.0,0.0,0.0,0.0,0.0,0.0,-5.0647,-5.1202,-5.1668,-5.1668,-5.1536,-5.1499,-5.1649,-5.1668,-5.2006,-5.2867,-5.2961,-5.3282,-5.4108,-5.4165,-5.424,-5.439,-5.4409,0.0,-5.4409,-5.4342,-5.4236,-5.4109,-5.4019,-5.3926,-5.3813,0.0,0.0,-5.3813,-5.3813,-5.3737,-5.364,-5.3263,-5.2993,-5.2755,-5.1928,-5.1305,-5.0873,-5.0715,-5.0557,-5.0434,-5.0434,-5.0013,-4.9451,0.0,0.0,0.0,0.0,0.0,0.0,0.0,0.0,0.0,0.0,-4.5594,-4.5594,-4.5594,-4.5594,-4.5594,-4.5594,-4.5594,0.0,0.0,-4.5594,-4.5594,-4.5594,-4.5594,-4.5594,-4.5594,-4.5594,-4.5594,-4.5594,-4.5594,-4.5594,-4.5594,-4.5594,-4.5594,-4.5594,-4.5594,-4.5594,-4.5594,-4.5568,-4.5522,-4.5495,-4.5457,-4.5438,-4.5408,-4.5408,-4.5348,-4.5307,-4.5307,-4.5307,-4.5307,-4.5307,-4.5307,-4.5307,-4.5307,-4.5307,-4.5307,0.0,0.0,0.0,0.0,0.0,0.0,0.0,0.0,0.0,0.0,0.0,0.0,0.0,0.0,-4.9998,0.0,0.0,-5.1006,-5.1343,-5.2035,-5.255,-5.255,-5.2907,-5.3001,-5.2588,-5.255,-5.2869,-5.3714,-5.3789,-5.3958,-5.4371,-5.4409,-5.4409,-5.4409,-5.4409,-5.4409,-5.4409,-5.4357,-5.4288,-5.42,-5.4091,-5.4,-5.3907,-5.3832,-5.3813,-5.3813,-5.3813,-5.3813,-5.3793,-5.3562,-5.3322,-5.3014,-5.2,-5.1305,-5.0891,-5.0891,-5.0891,-5.0891,-5.0891,-5.0645,-5.0294,0.0,0.0,0.0,0.0,0.0,0.0,0.0,0.0,0.0,0.0,-4.5586,-4.5586,-4.5594,-4.5594,-4.5594,0.0,0.0,0.0,0.0,-4.5646,-4.5646,-4.5646,-4.5612,-4.5594,-4.5594,-4.5594,-4.5586,-4.5577,-4.5577,-4.5577,-4.5568,-4.5577,-4.5577,-4.5577,-4.5586,-4.5594,-4.5594,-4.5594,-4.5568,-4.5513,-4.5513,-4.5477,-4.5399,-4.5399,-4.5359,-4.5307,-4.5307,-4.5307,-4.5307,-4.5307,-4.5307,-4.5307,-4.5307,-4.5307,-4.5307,-4.5307,-4.5307,0.0,0.0,0.0,0.0,0.0,0.0,0.0,0.0,0.0,-5.0057,-5.0031,-5.0044,-5.0208,-5.0757,-5.1122,-5.1509,-5.2059,-5.2869,-5.343,-5.343,-5.3977,-5.4165,-5.3524,-5.343,-5.3693,-5.4334,-5.4409,-5.4409,-5.4409,-5.4409,-5.4409,-5.4409,-5.4409,-5.4409,-5.4409,-5.4409,-5.4357,-5.4308,-5.4181,-5.4091,-5.4,-5.3888,-5.3832,-5.3813,-5.3813,-5.3813,-5.3813,-5.3813,-5.3524,-5.3036,-5.2237,-5.1543,-5.1034,-5.1034,-5.0981,-5.0891,-5.0891,-5.0891,-5.0891,0.0,0.0,0.0,0.0,0.0,0.0,0.0,0.0,0.0,0.0,0.0,0.0,0.0,0.0,0.0,0.0,0.0,0.0,-4.5778,-4.5778,-4.5778,-4.5778,-4.566,-4.5594,-4.5594,-4.5594,-4.5568,-4.5513,-4.5513,-4.5485,-4.5419,-4.5485,-4.5513,-4.5513,-4.5577,-4.5594,-4.5594,-4.5594,-4.5605,-4.5586,-4.5586,-4.5504,-4.54,-4.54,-4.5351,-4.5307,-4.5307,-4.5307,-4.5307,-4.5307,-4.5307,-4.5307,-4.5307,-4.5307,-4.5307,-4.5307,0.0,-4.5468,-4.629,-4.7704,-4.9175,-5.0073,-5.0302,-5.0267,0.0,0.0,-4.9898,-4.9778,-5.0203,-5.0642,-5.072,-5.1925,-5.2977,-5.3036,-5.3733,-5.4277,-5.4277,-5.4334,-5.4371,-5.4277,-5.4277,-5.4296,-5.439,-5.4409,-5.4409,-5.4409,-5.4409,-5.4409,-5.4409,-5.4409,-5.4409,-5.4409,-5.4409,-5.4357,-5.4308,-5.429,-5.4183,-5.4,-5.3982,-5.3926,-5.3813,-5.3813,-5.3813,-5.3813,-5.3813,-5.3524,-5.3096,-5.2972,-5.2376,-5.1518,-5.1518,-5.1271,-5.0891,-5.0891,-5.0891,-5.0891,0.0,0.0,0.0,0.0,0.0,0.0,0.0,0.0,0.0,0.0,0.0,0.0,0.0,0.0,0.0,0.0,0.0,0.0,-4.5807,-4.5841,-4.5865,-4.5865,-4.5773,-4.5723,-4.5723,-4.5646,-4.5612,-4.5627,-4.554,-4.5522,-4.551,-4.5466,-4.5438,-4.5438,-4.5476,-4.5485,-4.5485,-4.5485,-4.5485,-4.5485,-4.5485,-4.5448,-4.54,-4.54,-4.535,-4.5307,-4.5307,-4.535,0.0,0.0,-4.5307,-4.5307,-4.5307,-4.5307,-4.5307,-4.5307,-4.5307,0.0,-4.6901,-4.7799,-4.8659,0.0,-5.0302,-5.029,-5.0231,-5.0038,-5.0017,-5.0421,-5.0614,-5.1008,-5.1984,-5.2736,-5.3355,0.0,-5.4183,-5.4409,-5.4409,-5.4409,-5.4409,-5.4409,-5.4409,-5.4409,-5.4409,-5.4409,-5.4409,-5.4409,-5.4409,-5.4409,-5.4409,-5.4841,-5.5103,-5.5103,-5.5592,-5.5837,-5.582,-5.5748,-5.5658,-5.5585,-5.5454,-5.5378,-5.5283,-5.4742,-5.424,-5.3813,-5.3813,-5.3524,-5.3096,-5.3096,-5.2513,-5.1601,-5.1601,-5.1323,-5.0891,-5.0891,-5.0891,-5.0891,0.0,0.0,0.0,0.0,0.0,0.0,0.0,0.0,0.0,0.0,0.0,0.0,0.0,0.0,0.0,0.0,0.0,0.0,0.0,-4.5897,-4.5939,-4.5924,-4.5841,-4.5807,-4.5807,-4.5676,-4.5618,-4.5668,-4.5531,-4.5485,-4.5521,-4.5448,-4.54,-4.54,-4.54,-4.54,-4.54,-4.54,-4.54,-4.54,-4.54,-4.539,-4.5389,-4.5438,-4.5419,-4.535,-4.5317,-4.536,0.0,0.0,-4.5307,-4.5307,-4.5307,-4.5307,-4.5307,-4.5307,-4.5449,-4.5889,-4.7111,-4.7799,-4.8449,-4.9671,-5.0149,-5.029,-5.0255,-5.0241,-5.0396,-5.0927,-5.1232,-5.1759,-5.298,-5.3393,-5.3731,-5.4315,-5.4409,-5.4409,-5.4409,-5.4409,-5.4409,-5.4409,-5.4409,-5.4409,-5.4409,-5.4409,-5.4409,-5.4409,-5.4409,-5.4503,-5.4728,-5.5274,-5.5706,-5.595,-5.6568,-5.6887,-5.6887,-5.6797,-5.6723,-5.6705,-5.6556,-5.6461,-5.6385,-5.5672,-5.4909,-5.4128,-5.4128,-5.3805,-5.3283,-5.3283,-5.2714,-5.1806,-5.1806,-5.1434,-5.0891,-5.0891,-5.0891,-5.0891,0.0,0.0,0.0,0.0,0.0,0.0,0.0,0.0,0.0,0.0,0.0,0.0,0.0,0.0,0.0,0.0,0.0,0.0,0.0,-4.5996,-4.5993,-4.6002,-4.5861,-4.5807,-4.5807,-4.5669,-4.5599,-4.5594,-4.5467,-4.5369,-4.5317,-4.5369,-4.5408,-4.5389,-4.54,-4.54,-4.54,-4.54,-4.54,-4.54,-4.54,-4.539,-4.5399,-4.5532,-4.5559,-4.5476,-4.5339,0.0,0.0,0.0,-4.5307,-4.5307,-4.5307,-4.5307,0.0,-4.5307,-4.5851,-4.6481,-4.6538,-4.7761,-4.9071,-4.9129,-4.971,-5.0267,-5.0133,-5.0599,-5.1036,-5.0929,-5.208,-5.3149,-5.3186,-5.3827,-5.4371,-5.4409,-5.4409,-5.4409,-5.4409,-5.4409,-5.4409,-5.4409,-5.4409,-5.4409,0.0,-5.4409,-5.4409,-5.4409,-5.4409,-5.4747,-5.5518,-5.5593,-5.5987,-5.6831,-5.6887,-5.6887,-5.6887,-5.6906,-5.6833,-5.6705,-5.6705,-5.6594,-5.6403,-5.6286,-5.58,-5.4964,-5.4964,-5.4499,-5.3775,-5.3775,-5.3203,-5.2276,-5.2276,-5.1714,-5.0891,-5.0891,-5.0891,-5.0891,0.0,0.0,0.0,0.0,0.0,0.0,0.0,0.0,0.0,0.0,0.0,0.0,0.0,0.0,0.0,0.0,0.0,0.0,0.0,-4.6087,-4.6135,-4.6138,-4.6002,-4.5922,-4.5922,-4.5801,-4.5745,-4.5807,-4.5661,-4.5621,-4.57,-4.5627,-4.5593,-4.5593,-4.559,-4.5599,-4.5599,-4.5599,-4.5599,-4.5599,-4.5599,-4.561,-4.5601,-4.5643,-4.5651,-4.5635,0.0,0.0,0.0,0.0,-4.536,-4.5429,-4.5338,-4.536,-4.5515,-4.5959,-4.629,-4.6748,-4.7914,-4.8651,-4.9243,-4.9767,-5.0021,-5.031,-5.0774,-5.0935,-5.1265,-5.2337,-5.2889,-5.3355,-5.3902,-5.4221,-5.4409,-5.4409,-5.4409,-5.4409,-5.4409,-5.4409,-5.4409,-5.4409,-5.4409,0.0,0.0,0.0,0.0,-5.4409,-5.4897,-5.5311,-5.5593,-5.6644,-5.7376,-5.7694,-5.8201,-5.8483,-5.8483,-5.8483,-5.8465,-5.8409,-5.8278,-5.7863,-5.7185,-5.7122,-5.6636,-5.5837,-5.5261,-5.4853,-5.4556,-5.4017,-5.3205,-5.2281,-5.2281,-5.1732,-5.0891,-5.0891,-5.0891,-5.0891,0.0,0.0,0.0,0.0,0.0,0.0,0.0,0.0,0.0,0.0,0.0,0.0,0.0,0.0,0.0,0.0,0.0,0.0,0.0,0.0,-4.615,-4.6134,-4.6056,-4.6002,-4.6002,-4.5893,-4.5867,-4.5893,-4.5766,-4.573,-4.5838,-4.5746,-4.5708,-4.5708,-4.5708,-4.5708,-4.5708,-4.5708,-4.5708,-4.5708,-4.5708,-4.5708,-4.5708,-4.5754,-4.5746,0.0,0.0,0.0,0.0,0.0,-4.5438,-4.5476,-4.5339,-4.557,-4.5927,-4.6379,-4.694,-4.7608,-4.8411,-4.906,-4.9576,-4.9805,-5.0207,-5.0666,-5.1179,-5.1557,-5.2111,-5.3186,-5.351,-5.3789,-5.4296,-5.4409,-5.4409,-5.4409,-5.4409,-5.4409,-5.4409,-5.4409,-5.4409,-5.4409,-5.4409,-5.4409,0.0,0.0,0.0,-5.4409,-5.5142,-5.5743,-5.6061,-5.7375,-5.8239,-5.852,-5.9027,-5.929,-5.929,-5.929,-5.929,-5.9309,-5.9139,-5.8723,-5.8102,-5.8019,-5.755,-5.671,-5.6153,-5.5559,-5.4964,-5.4444,-5.3481,-5.2281,-5.2281,-5.1732,-5.0891,-5.0891,-5.0891,-5.0891,0.0,0.0,0.0,0.0,0.0,0.0,0.0,0.0,0.0,0.0,0.0,0.0,0.0,0.0,0.0,0.0,0.0,0.0,0.0,0.0,0.0,-4.6002,-4.6002,-4.6002,-4.6002,-4.5937,-4.5906,-4.5906,-4.5783,-4.5723,-4.5723,-4.5723,-4.5704,-4.5715,-4.5704,-4.5704,-4.5715,-4.5704,-4.5723,-4.5723,-4.5723,-4.5723,-4.5739,-4.5866,0.0,0.0,0.0,0.0,0.0,0.0,-4.5495,-4.5467,-4.5339,-4.5823,-4.6462,-4.6538,-4.7742,-4.8869,-4.8132,-4.9098,-5.013,-4.9404,-5.0271,-5.13,-5.1395,-5.2432,-5.3396,-5.3453,-5.3945,-5.4409,0.0,0.0,-5.4409,-5.4409,-5.4409,-5.4409,-5.4409,-5.4409,-5.4409,0.0,0.0,0.0,0.0,0.0,0.0,-5.4409,0.0,-5.6025,-5.6849,-5.7713,-5.852,-5.9271,-5.929,-5.929,-5.929,-5.929,-5.929,-5.929,-5.9234,-5.9139,-5.9023,-5.8921,-5.841,-5.7565,-5.7528,-5.658,-5.5076,-5.5039,-5.3962,-5.2345,-5.2345,-5.1782,-5.0945,-5.0945,-5.0918,-5.0891,0.0,0.0,0.0,0.0,0.0,0.0,0.0,0.0,0.0,0.0,0.0,0.0,0.0,0.0,0.0,0.0,0.0,0.0,0.0,0.0,0.0,0.0,0.0,0.0,0.0,0.0,0.0,0.0,-4.5941,-4.591,-4.591,-4.591,-4.5893,-4.584,-4.5899,-4.5893,-4.584,-4.5899,-4.591,-4.591,0.0,-4.591,-4.5935,0.0,0.0,0.0,0.0,0.0,0.0,0.0,0.0,0.0,-4.5438,-4.5514,-4.5851,-4.7101,-4.778,-4.8372,-4.9385,-4.9977,-5.0417,-5.0856,-5.1053,-5.1475,-5.2727,-5.3134,-5.3424,-5.4025,-5.4292,-5.4409,0.0,0.0,0.0,-5.4409,-5.4409,0.0,-5.4409,-5.4409,0.0,-5.4409,0.0,-5.4409,-5.4409,-5.4409,0.0,0.0,-5.5742,-5.6662,-5.6887,-5.8239,-5.9084,-5.929,-5.929,-5.929,-5.929,-5.929,-5.929,-5.929,-5.9234,-5.9177,-5.9139,-5.898,-5.8767,-5.8485,-5.779,-5.6933,-5.593,-5.528,-5.4164,-5.2889,-5.2889,-5.2289,-5.1434,-5.1434,-5.1211,-5.0891,0.0,0.0,0.0,0.0,0.0,0.0,0.0,0.0,0.0,0.0,0.0,0.0,0.0,0.0,0.0,0.0,0.0,0.0,0.0,0.0,0.0,0.0,0.0,0.0,0.0,0.0,0.0,0.0,0.0,0.0,-4.6002,-4.6002,-4.5975,-4.5949,-4.598,-4.5975,-4.5949,-4.598,0.0,0.0,0.0,0.0,0.0,0.0,0.0,0.0,0.0,0.0,0.0,0.0,0.0,-4.5329,-4.5531,-4.5697,-4.608,-4.7406,0.0,-4.8659,-4.9958,-5.0255,-5.0333,-5.0817,-5.0973,-5.1357,-5.2643,-5.3082,-5.343,-5.4221,-5.4409,0.0,-5.4409,0.0,0.0,0.0,0.0,0.0,-5.4409,-5.4409,-5.4409,0.0,-5.4409,0.0,-5.4409,-5.4409,-5.4409,0.0,-5.5948,-5.6887,-5.6887,-5.8427,-5.929,-5.929,-5.929,-5.929,-5.929,-5.929,-5.929,-5.929,-5.9253,-5.9234,-5.9196,-5.908,-5.9001,-5.8904,0.0,-5.744,-5.6305,-5.5783,-5.4596,-5.3096,-5.3096,-5.2607,-5.191,-5.191,-5.1601,-5.1211,0.0,0.0,0.0,0.0,0.0,0.0,0.0,0.0,0.0,0.0,0.0,0.0,0.0,0.0,0.0,0.0,0.0,0.0,0.0,0.0,0.0,0.0,0.0,0.0,0.0,0.0,0.0,0.0,0.0,0.0,0.0,0.0,0.0,0.0,0.0,0.0,0.0,0.0,0.0,0.0,0.0,0.0,0.0,0.0,0.0,0.0,0.0,0.0,0.0,0.0,-4.5599,-4.5329,-4.5556,-4.5937,-4.6508,-4.7468,-4.8289,-4.9071,-5.0007,-5.017,-5.0101,-5.0203,-5.0572,-5.1111,-5.1937,-5.268,-5.3412,-5.409,0.0,-5.4409,-5.4409,-5.4315,-5.4277,-5.4371,0.0,-5.4277,-5.4371,-5.4409,-5.4409,-5.4409,-5.4409,-5.4409,-5.4409,-5.4409,-5.4409,-5.4409,-5.5854,-5.6774,-5.6887,-5.8427,-5.929,-5.929,-5.929,-5.929,-5.929,-5.929,-5.929,-5.929,-5.929,-5.9272,-5.9196,-5.9196,-5.9139,-5.9023,0.0,0.0,-5.6533,-5.638,-5.5136,-5.3348,-5.3217,-5.2889,-5.2391,-5.2345,-5.1988,-5.1576,0.0,0.0,0.0,0.0,0.0,0.0,0.0,0.0,0.0,0.0,-4.6005,0.0,0.0,0.0,0.0,0.0,0.0,0.0,0.0,0.0,0.0,0.0,0.0,0.0,0.0,0.0,0.0,0.0,0.0,0.0,0.0,0.0,0.0,0.0,0.0,0.0,0.0,0.0,0.0,0.0,0.0,0.0,0.0,0.0,0.0,0.0,0.0,0.0,0.0,0.0,-4.5634,-4.5231,-4.5273,-4.5348,-4.5693,-4.7079,-4.7587,-4.8023,-4.9561,-4.9946,-5.009,-5.0754,-5.0918,-5.113,-5.199,-5.2714,0.0,0.0,-5.3939,-5.4409,-5.4409,-5.3846,-5.3637,-5.4296,0.0,0.0,0.0,0.0,-5.4409,0.0,0.0,0.0,0.0,0.0,0.0,0.0,0.0,0.0,-5.6849,-5.8427,-5.929,-5.929,-5.929,-5.929,-5.929,-5.929,-5.929,-5.929,-5.929,-5.929,-5.929,-5.9215,-5.9196,-5.9158,0.0,0.0,-5.7334,-5.6663,-5.5709,-5.4587,-5.3938,-5.3365,-5.291,-5.2459,-5.1988,-5.1543,0.0,0.0,0.0,0.0,0.0,0.0,0.0,0.0,0.0,0.0,-4.5991,-4.6005,0.0,0.0,0.0,0.0,0.0,0.0,0.0,0.0,0.0,0.0,0.0,0.0,0.0,0.0,0.0,0.0,0.0,0.0,0.0,0.0,0.0,0.0,0.0,0.0,0.0,0.0,0.0,0.0,0.0,0.0,0.0,0.0,0.0,0.0,0.0,0.0,0.0,0.0,-4.5669,-4.5343,-4.5323,-4.5254,-4.5524,-4.7129,-4.751,-4.7795,-4.9607,-4.9965,-4.9882,-5.0279,-5.0277,-5.0402,-5.1227,0.0,0.0,0.0,-5.3827,-5.4409,-5.4409,-5.4071,0.0,-5.4334,-5.4071,0.0,0.0,0.0,0.0,0.0,0.0,0.0,0.0,0.0,0.0,0.0,0.0,0.0,-5.6849,-5.8427,-5.929,-5.929,-5.929,-5.929,-5.929,-5.929,-5.929,-5.929,-5.929,-5.929,-5.9309,-5.9272,-5.9234,-5.9253,-5.9158,0.0,-5.7733,-5.6777,-5.588,-5.5023,-5.4148,-5.366,-5.3444,-5.3182,-5.2784,-5.2353,0.0,0.0,0.0,0.0,0.0,0.0,0.0,-4.5847,-4.5874,-4.59,-4.5944,-4.5986,-4.598,-4.5991,-4.6002,0.0,0.0,0.0,0.0,0.0,0.0,0.0,0.0,0.0,0.0,0.0,0.0,0.0,0.0,0.0,0.0,0.0,0.0,0.0,0.0,0.0,0.0,0.0,0.0,0.0,0.0,0.0,0.0,0.0,0.0,0.0,0.0,0.0,0.0,0.0,-4.574,-4.556,-4.5444,-4.5323,-4.5534,-4.7209,-4.7504,-4.7736,-4.9626,-4.9898,-4.9667,-4.9667,-4.9582,-4.9678,-5.0297,-5.1067,0.0,-5.2754,-5.3564,-5.4202,-5.4371,-5.4259,-5.4127,0.0,-5.4127,-5.4127,0.0,0.0,0.0,0.0,0.0,0.0,0.0,0.0,0.0,0.0,0.0,0.0,0.0,-5.837,-5.9121,-5.929,-5.929,-5.929,-5.929,-5.929,-5.929,-5.929,-5.929,-5.929,-5.929,-5.929,-5.929,-5.9309,-5.9234,0.0,0.0,-5.6874,-5.5976,-5.5118,-5.4205,-5.3851,-5.3832,-5.3698,-5.3424,-5.3078,0.0,0.0,0.0,0.0,0.0,0.0,0.0,-4.5807,-4.5821,-4.5893,-4.5906,-4.5899,-4.5917,-4.5969,-4.6002,0.0,0.0,0.0,0.0,0.0,0.0,0.0,0.0,0.0,0.0,0.0,0.0,0.0,0.0,0.0,0.0,0.0,0.0,0.0,0.0,0.0,0.0,0.0,0.0,0.0,0.0,0.0,0.0,0.0,0.0,0.0,0.0,0.0,0.0,0.0,0.0,-4.5737,-4.5541,-4.5352,-4.5483,-4.6916,0.0,0.0,-4.9115,-4.9551,-4.9505,-4.9505,-4.9524,-4.9527,-4.9584,0.0,-5.1029,-5.1855,-5.27,-5.3543,-5.4277,-5.3789,-5.3318,-5.3318,0.0,-5.3318,0.0,0.0,0.0,0.0,0.0,0.0,0.0,0.0,0.0,0.0,0.0,0.0,0.0,-5.8145,-5.8558,-5.9271,-5.929,-5.929,-5.929,-5.929,-5.929,-5.929,-5.929,-5.929,-5.929,-5.929,-5.929,-5.929,0.0,0.0,0.0,-5.7005,-5.6126,-5.5193,-5.4336,-5.3982,-5.3926,-5.3363,-5.3138,-5.3036,0.0,0.0,0.0,0.0,0.0,0.0,0.0,-4.5807,-4.5807,-4.5847,-4.5867,-4.5906,-4.5899,-4.5923,-4.5953,0.0,0.0,0.0,0.0,0.0,0.0,0.0,0.0,0.0,0.0,0.0,0.0,0.0,0.0,0.0,0.0,0.0,0.0,0.0,0.0,0.0,0.0,0.0,0.0,0.0,0.0,0.0,0.0,0.0,0.0,0.0,0.0,0.0,0.0,0.0,0.0,0.0,-4.5715,-4.5533,0.0,0.0,-4.7476,-4.8314,-4.8828,-4.9301,-4.9655,-4.9536,-4.9509,-4.9509,-4.9509,0.0,-5.0801,-5.1104,-5.2266,-5.3299,-5.3618,-5.3808,-5.3752,-5.328,0.0,0.0,-5.328,0.0,0.0,0.0,0.0,0.0,0.0,0.0,0.0,0.0,0.0,0.0,0.0,-5.7094,-5.7751,-5.8558,-5.8577,-5.8821,-5.929,-5.929,-5.929,-5.929,-5.929,-5.929,-5.929,-5.929,-5.929,-5.929,0.0,0.0,0.0,-5.7061,-5.62,-5.5322,-5.4373,-5.4,-5.3963,-5.3639,-5.3522,-5.3444,0.0,0.0,0.0,0.0,0.0,0.0,-4.5805,-4.5805,-4.5793,-4.5807,-4.5847,-4.586,-4.586,-4.5893,-4.5925,-4.5968,0.0,0.0,0.0,0.0,0.0,0.0,0.0,0.0,0.0,0.0,0.0,-4.5911,-4.5899,0.0,0.0,0.0,0.0,0.0,0.0,0.0,0.0,0.0,0.0,0.0,0.0,0.0,0.0,0.0,0.0,0.0,0.0,0.0,0.0,0.0,0.0,0.0,0.0,0.0,0.0,0.0,-4.7338,-4.8243,-4.832,-4.8871,-4.9408,-4.9271,-4.9401,-4.9574,0.0,0.0,-5.0478,-5.0667,-5.1646,-5.2529,-5.2773,-5.3282,-5.3395,-5.2604,0.0,-5.3451,-5.2888,-5.3526,0.0,0.0,0.0,0.0,0.0,0.0,0.0,0.0,0.0,0.0,0.0,-5.5836,-5.6643,-5.7713,-5.7751,-5.8032,-5.8577,-5.8596,-5.8708,-5.8952,-5.8952,-5.9065,-5.929,-5.929,-5.9178,-5.8952,0.0,0.0,0.0,-5.6665,-5.5898,-5.5111,-5.437,-5.4055,-5.4019,-5.3888,-5.3832,-5.3756,0.0,0.0,0.0,0.0,0.0,0.0,0.0,-4.5807,-4.5803,-4.58,-4.5807,-4.5807,-4.5807,-4.586,-4.59,-4.59,0.0,0.0,0.0,0.0,0.0,0.0,0.0,0.0,0.0,0.0,-4.5911,-4.5911,-4.5893,-4.59,0.0,0.0,0.0,0.0,0.0,0.0,0.0,0.0,0.0,0.0,0.0,0.0,0.0,0.0,0.0,0.0,0.0,0.0,0.0,0.0,0.0,0.0,0.0,0.0,0.0,0.0,-4.6569,-4.6601,-4.7479,-4.8161,-4.8602,-4.8602,-4.9202,-4.974,0.0,0.0,-4.9986,-5.0582,-5.0707,-5.0954,-5.178,-5.1931,-5.1668,-5.0857,-5.1405,0.0,-5.1912,0.0,0.0,0.0,0.0,0.0,0.0,0.0,0.0,0.0,0.0,0.0,0.0,0.0,-5.5197,-5.6849,-5.6906,-5.6925,-5.6925,-5.6925,-5.7319,-5.8108,-5.8108,-5.8539,-5.929,-5.929,0.0,0.0,0.0,0.0,0.0,-5.5612,-5.5124,-5.4392,-5.4343,-5.4218,-5.4091,-5.4019,-5.3926,-5.3813,0.0,0.0,0.0,0.0,0.0,0.0,0.0,-4.5723,-4.5739,-4.5783,-4.5803,-4.5798,-4.58,-4.5814,-4.5821,-4.5821,0.0,0.0,0.0,0.0,0.0,0.0,0.0,0.0,0.0,0.0,-4.5841,-4.5841,-4.5827,-4.5821,-4.5821,-4.5814,-4.5807,0.0,0.0,0.0,0.0,0.0,0.0,0.0,0.0,0.0,0.0,0.0,0.0,0.0,0.0,0.0,0.0,0.0,0.0,0.0,0.0,0.0,0.0,-4.6101,-4.6877,0.0,-4.6985,-4.7488,-4.8286,-4.87,-4.8996,-4.9326,-4.986,0.0,-5.0089,-5.008,-5.0572,-5.099,-5.1077,-5.1536,-5.1649,-5.0839,-5.1386,0.0,0.0,0.0,0.0,0.0,0.0,0.0,0.0,0.0,0.0,0.0,0.0,0.0,0.0,0.0,-5.4897,-5.5986,-5.6023,-5.6305,-5.6887,-5.6887,-5.7018,-5.7281,-5.7281,-5.7413,-5.7657,-5.7657,0.0,0.0,0.0,0.0,0.0,-5.5593,-5.5141,-5.4373,-5.4324,-5.4272,-5.4218,-5.411,-5.4,-5.387,0.0,0.0,0.0,0.0,0.0,0.0,0.0,-4.5703,-4.5719,-4.5758,-4.5781,-4.5795,-4.5798,-4.58,-4.5807,-4.5807,0.0,0.0,0.0,0.0,0.0,0.0,0.0,0.0,0.0,-4.5814,-4.5807,-4.5807,-4.5807,-4.5807,-4.5807,-4.5807,-4.5807,-4.5807,-4.5807,0.0,0.0,0.0,0.0,0.0,0.0,0.0,-4.5807,0.0,0.0,0.0,0.0,0.0,0.0,0.0,0.0,0.0,0.0,0.0,0.0,0.0,-4.6581,-4.7245,-4.6395,-4.6839,-4.7684,-4.8379,-4.8807,0.0,0.0,-5.0275,-5.0252,-4.9884,-5.0239,-5.0539,-5.0284,-5.0654,-5.0823,-5.0316,-5.0673,0.0,0.0,0.0,0.0,0.0,0.0,0.0,0.0,0.0,0.0,0.0,0.0,0.0,0.0,0.0,-5.4634,-5.5141,-5.5142,-5.5423,-5.5948,-5.5967,-5.6117,-5.6418,-5.6418,-5.6587,-5.6887,0.0,0.0,0.0,0.0,0.0,0.0,-5.5142,-5.4859,-5.4409,-5.434,-5.4324,-5.429,-5.42,-5.411,-5.3944,0.0,0.0,0.0,0.0,0.0,0.0,0.0,0.0,0.0,0.0,-4.5924,-4.5974,-4.5974,-4.5972,-4.5955,0.0,0.0,0.0,0.0,0.0,0.0,0.0,0.0,0.0,0.0,-4.5807,-4.5807,-4.5807,-4.5807,-4.5807,-4.5807,-4.5807,-4.5807,-4.5807,-4.5807,0.0,0.0,0.0,0.0,0.0,0.0,0.0,0.0,0.0,0.0,0.0,0.0,0.0,0.0,0.0,0.0,0.0,0.0,0.0,0.0,0.0,0.0,0.0,0.0,-4.6201,-4.6846,-4.7721,-4.8596,0.0,-5.001,-5.0408,0.0,-4.993,-4.983,-4.9754,-4.9532,-4.9509,-4.9509,-4.9509,-4.9509,0.0,0.0,0.0,0.0,0.0,0.0,0.0,0.0,0.0,0.0,0.0,0.0,0.0,0.0,0.0,0.0,-5.4409,-5.4409,-5.4409,-5.4409,-5.4409,-5.4784,-5.5499,-5.5499,-5.5948,-5.6718,-5.6718,0.0,0.0,0.0,0.0,0.0,-5.4409,-5.4409,-5.4409,-5.4409,-5.4357,-5.4308,-5.4308,-5.4183,-5.4,0.0,0.0,0.0,0.0,0.0,0.0,0.0,0.0,0.0,0.0,-4.7626,-4.7662,-4.7714,-4.7704,0.0,0.0,0.0,0.0,0.0,0.0,0.0,0.0,0.0,0.0,0.0,-4.5807,-4.5807,-4.5807,-4.5807,-4.5807,-4.5807,-4.5807,-4.5807,-4.5807,-4.5807,-4.5807,0.0,0.0,0.0,0.0,0.0,0.0,0.0,0.0,0.0,0.0,-4.5807,-4.5807,0.0,0.0,0.0,0.0,0.0,0.0,0.0,0.0,-4.5807,-4.5807,-4.5807,0.0,-4.6225,-4.7094,-4.7963,-4.8825,0.0,-5.0345,-5.0699,-5.0218,-5.0111,-4.9993,-4.9578,-4.9509,-4.9509,-4.9509,-4.9509,-5.0053,0.0,0.0,0.0,0.0,0.0,0.0,0.0,0.0,0.0,0.0,0.0,0.0,0.0,0.0,0.0,-5.4409,-5.4409,-5.4409,-5.4409,-5.4409,-5.4484,-5.469,-5.469,-5.4784,-5.4991,-5.4991,0.0,0.0,0.0,0.0,-5.4409,-5.4409,-5.4409,-5.4409,-5.4409,-5.4392,-5.4375,-5.4375,-5.4252,-5.4091,0.0,0.0,0.0,0.0,0.0,0.0,0.0,0.0,0.0,0.0,0.0,0.0,0.0,0.0,0.0,0.0,0.0,0.0,0.0,0.0,0.0,0.0,0.0,0.0,-4.5807,-4.5807,-4.5807,-4.5807,-4.5807,-4.5807,-4.5807,-4.5807,-4.5807,-4.5807,-4.5807,-4.5807,0.0,0.0,0.0,0.0,-4.5807,0.0,0.0,0.0,0.0,0.0,-4.5807,-4.5807,0.0,-4.5807,-4.5807,-4.5807,0.0,0.0,0.0,0.0,-4.5807,-4.5807,-4.5807,-4.5807,-4.602,-4.6883,-4.7753,-4.8624,-4.9494,-5.0318,-5.0805,-5.0438,-5.0286,-5.0075,-4.9707,-4.9559,-4.9509,0.0,-4.9509,0.0,0.0,0.0,0.0,0.0,0.0,0.0,0.0,0.0,0.0,0.0,0.0,0.0,0.0,0.0,0.0,0.0,-5.4409,-5.4409,-5.4409,-5.4409,-5.4409,-5.4409,-5.4409,-5.4409,-5.4409,-5.4409,0.0,0.0,0.0,0.0,-5.4409,-5.4409,-5.4409,-5.4409,-5.4409,-5.4409,-5.4409,-5.4409,-5.4269,-5.4109,0.0,0.0,0.0,0.0,0.0,0.0,0.0,0.0,0.0,0.0,0.0,0.0,0.0,0.0,0.0,0.0,0.0,0.0,0.0,0.0,0.0,0.0,0.0,-4.5807,-4.5807,-4.5807,-4.5807,-4.5807,-4.5807,-4.5807,-4.5807,-4.5807,-4.5807,-4.5807,-4.5807,-4.5807,0.0,0.0,0.0,0.0,-4.5807,0.0,0.0,0.0,0.0,0.0,0.0,0.0,0.0,-4.5807,-4.5807,-4.5807,-4.5807,0.0,0.0,0.0,0.0,0.0,-4.5807,-4.5807,-4.5981,-4.6709,-4.7526,-4.8381,-4.9293,-5.009,-5.0651,-5.0606,-5.0393,0.0,0.0,-4.9625,0.0,0.0,0.0,0.0,0.0,0.0,0.0,0.0,0.0,0.0,0.0,0.0,0.0,0.0,0.0,0.0,0.0,0.0,0.0,0.0,-5.4409,-5.4409,-5.4409,-5.4409,-5.4409,-5.4409,-5.4409,-5.4409,-5.4409,-5.4409,0.0,0.0,0.0,0.0,-5.4409,-5.4409,-5.4409,-5.4409,-5.4409,-5.4409,-5.4409,-5.4409,-5.4287,-5.4146,0.0,0.0,0.0,0.0,0.0,0.0,0.0,0.0,0.0,0.0,0.0,0.0,0.0,0.0,0.0,0.0,0.0,0.0,0.0,0.0,0.0,0.0,-4.6192,-4.5807,-4.5807,-4.5807,-4.5807,-4.5807,-4.5807,-4.5807,-4.5807,-4.5807,-4.5807,-4.5807,-4.5807,-4.5807,-4.5807,-4.5807,-4.5807,-4.5807,-4.5807,0.0,0.0,0.0,0.0,0.0,0.0,0.0,0.0,-4.5807,-4.5807,-4.5807,-4.5807,0.0,0.0,0.0,0.0,0.0,-4.5807,-4.5807,-4.5826,-4.5981,-4.6534,-4.7317,-4.8361,-4.9101,-4.9749,0.0,0.0,0.0,0.0,-4.9625,-4.9509,0.0,0.0,0.0,0.0,0.0,0.0,0.0,0.0,0.0,0.0,0.0,0.0,0.0,0.0,0.0,0.0,0.0,0.0,0.0,0.0,-5.4409,-5.4409,-5.4409,-5.4409,-5.4409,-5.4409,-5.4409,-5.4409,-5.4409,-5.4409,0.0,0.0,-5.4409,-5.4409,-5.4409,-5.4409,-5.4409,-5.4409,-5.4409,-5.4409,-5.4409,-5.434,-5.4236,0.0,0.0,0.0,0.0,0.0,0.0,0.0,0.0,0.0,0.0,0.0,0.0,0.0,0.0,0.0,0.0,0.0,0.0,0.0,0.0,0.0,-4.7074,-4.6254,-4.5807,-4.5807,-4.5807,-4.5807,-4.5807,-4.5807,-4.5807,-4.5807,-4.5807,-4.5807,-4.5807,-4.5807,-4.5807,-4.5807,-4.5807,-4.5807,-4.5807,0.0,0.0,0.0,0.0,0.0,0.0,0.0,0.0,0.0,0.0,-4.5807,-4.5807,-4.5807,0.0,0.0,0.0,0.0,0.0,-4.5807,-4.5807,-4.5759,-4.5615,-4.629,-4.7058,-4.7403,-4.843,-4.9394,-4.9769,0.0,0.0,0.0,0.0,0.0,0.0,0.0,0.0,0.0,0.0,0.0,0.0,0.0,0.0,0.0,0.0,0.0,0.0,0.0,0.0,0.0,0.0,0.0,0.0,0.0,-5.4409,-5.4409,-5.4409,-5.4409,-5.4409,-5.4409,-5.4409,-5.4409,-5.4409,-5.4409,-5.4409,0.0,-5.4409,-5.4409,-5.4409,-5.4409,-5.4409,-5.4409,-5.4409,-5.4409,-5.4357,-5.4024,-5.3636,0.0,0.0,0.0,0.0,0.0,0.0,0.0,0.0,0.0,0.0,0.0,0.0,0.0,0.0,0.0,0.0,0.0,0.0,0.0,0.0,-4.7893,-4.7006,-4.6217,-4.5786,-4.5793,-4.58,-4.5807,-4.5807,-4.5807,-4.5807,-4.5807,-4.5807,-4.5807,-4.5807,-4.5807,-4.5807,-4.5807,-4.5807,-4.5807,-4.5807,0.0,0.0,0.0,0.0,0.0,0.0,0.0,0.0,0.0,0.0,0.0,0.0,0.0,0.0,0.0,-4.5807,-4.5807,-4.5807,-4.5807,-4.5807,-4.5745,-4.5498,-4.6033,-4.6615,-4.6599,-4.7729,-4.883,-4.9032,0.0,0.0,0.0,0.0,0.0,0.0,0.0,0.0,0.0,0.0,0.0,0.0,0.0,0.0,0.0,0.0,0.0,0.0,0.0,0.0,0.0,0.0,0.0,0.0,0.0,0.0,-5.4409,-5.4409,-5.4409,-5.4409,-5.4409,-5.4409,-5.4409,-5.4409,-5.4409,-5.4409,-5.4409,-5.4409,-5.4409,-5.4409,-5.4409,-5.4409,-5.4409,-5.4277,-5.4146,-5.4267,-5.3764,-5.3111,0.0,0.0,0.0,0.0,0.0,0.0,0.0,0.0,0.0,0.0,0.0,0.0,0.0,0.0,0.0,0.0,0.0,0.0,0.0,0.0,-4.7831,-4.6945,-4.6147,-4.5731,-4.5788,-4.5805,-4.5807,-4.5807,-4.5807,-4.5807,-4.5807,-4.5807,-4.5807,-4.5807,-4.5807,-4.5807,-4.5807,-4.5807,-4.5807,-4.5807,-4.5807,0.0,0.0,0.0,0.0,0.0,0.0,0.0,0.0,0.0,0.0,0.0,0.0,0.0,-4.5807,-4.5807,-4.5807,-4.5807,-4.5807,-4.5807,-4.5745,-4.5533,-4.5362,-4.5426,-4.6073,-4.6758,-4.7541,-4.8521,-4.9205,0.0,0.0,0.0,0.0,0.0,0.0,0.0,0.0,0.0,0.0,0.0,0.0,0.0,0.0,0.0,0.0,0.0,0.0,0.0,0.0,0.0,0.0,0.0,0.0,0.0,-5.4409,-5.4409,-5.4409,-5.4409,-5.4409,-5.4409,-5.4409,-5.4409,-5.4409,-5.4409,-5.4409,-5.4409,-5.4409,-5.4409,-5.4409,-5.4409,-5.4409,-5.3939,-5.3393,-5.4127,-5.3796,-5.3128,0.0,0.0,0.0,0.0,0.0,0.0,0.0,0.0,0.0,0.0,0.0,0.0,0.0,0.0,0.0,0.0,0.0,0.0,0.0,0.0,-4.7236,-4.6912,-4.6122,-4.57,-4.573,-4.5773,-4.5798,-4.5807,-4.5798,-4.5776,-4.5734,-4.5734,-4.5734,-4.5734,-4.5734,-4.5734,-4.5734,-4.5734,-4.5734,-4.5734,-4.5776,-4.581,0.0,0.0,0.0,0.0,0.0,0.0,0.0,0.0,-4.5807,-4.5807,-4.5807,-4.5805,-4.5791,-4.58,-4.5771,-4.5761,-4.5783,-4.5653,-4.547,-4.5381,-4.5055,-4.4864,-4.5334,-4.6341,-4.7251,-4.7581,-4.8554,0.0,0.0,0.0,0.0,0.0,0.0,0.0,0.0,0.0,0.0,0.0,0.0,0.0,0.0,0.0,0.0,0.0,0.0,0.0,0.0,0.0,0.0,0.0,0.0,0.0,-5.3656,-5.3113,-5.285,-5.2869,-5.3902,-5.4409,-5.4409,-5.4409,-5.4409,-5.4409,-5.4409,-5.4108,-5.3656,-5.3656,-5.332,-5.2907,-5.3433,-5.3468,-5.3299,-5.409,-5.3866,-5.3232,0.0,0.0,0.0,0.0,0.0,0.0,0.0,0.0,0.0,0.0,0.0,0.0,0.0,0.0,0.0,0.0,0.0,0.0,0.0,-4.7055,-4.6786,-4.6509,-4.5954,-4.5679,-4.5701,-4.5738,-4.5765,-4.5771,-4.5761,-4.5731,-4.5708,-4.5708,-4.5708,-4.5708,-4.5708,-4.5708,-4.5708,-4.5708,-4.5708,-4.5708,-4.5758,-4.5765,0.0,0.0,0.0,0.0,0.0,0.0,0.0,0.0,-4.5798,-4.5771,0.0,-4.5769,-4.5773,-4.5764,-4.5734,-4.5715,-4.5758,-4.5605,-4.5418,-4.5314,-4.4988,-4.4701,-4.4812,-4.5765,-4.6581,-4.6484,-4.7691,-4.8847,-4.9127,0.0,0.0,0.0,0.0,0.0,0.0,0.0,0.0,0.0,0.0,0.0,0.0,0.0,0.0,0.0,0.0,0.0,0.0,0.0,0.0,0.0,0.0,0.0,-5.2775,-5.2193,-5.1912,-5.1912,-5.3057,-5.362,-5.362,-5.362,-5.362,-5.362,-5.362,-5.3301,-5.2775,-5.2775,-5.2588,-5.2362,-5.298,-5.3205,-5.3299,-5.409,-5.3883,-5.3301,0.0,0.0,0.0,0.0,0.0,0.0,0.0,0.0,0.0,0.0,0.0,0.0,0.0,0.0,0.0,0.0,0.0,0.0,-4.5671,-4.6413,-4.6509,-4.5633,-4.5594,-4.5631,-4.5701,-4.5701,-4.5698,-4.5708,-4.5708,-4.5708,-4.5708,-4.5708,-4.5708,-4.5708,-4.5708,-4.5708,-4.5708,-4.5708,-4.5708,-4.5708,-4.5708,-4.5708,-4.5708,0.0,0.0,0.0,0.0,0.0,0.0,0.0,-4.5758,-4.5708,0.0,0.0,-4.5708,-4.5708,-4.5708,-4.5708,-4.5708,-4.57,-4.564,-4.5352,0.0,0.0,-4.4585,-4.4909,-4.5305,-4.5324,-4.6652,-4.806,-4.8952,0.0,0.0,0.0,0.0,0.0,0.0,0.0,0.0,0.0,0.0,0.0,0.0,0.0,0.0,0.0,0.0,0.0,0.0,0.0,0.0,0.0,0.0,0.0,-5.1912,-5.1912,-5.1893,-5.1893,-5.1874,-5.1893,-5.1912,-5.1912,-5.1912,-5.1912,-5.1912,-5.1912,-5.1893,-5.1893,-5.24,-5.3186,-5.3205,-5.3205,-5.3299,-5.409,-5.3902,-5.3337,0.0,0.0,0.0,0.0,0.0,0.0,0.0,0.0,0.0,0.0,0.0,0.0,0.0,0.0,0.0,0.0,0.0,0.0,0.0,-4.5845,-4.5883,-4.5614,-4.5594,-4.5622,-4.5631,-4.5631,-4.5657,-4.5698,-4.5698,-4.5682,-4.5637,-4.5637,-4.5637,-4.5637,-4.5637,-4.5637,-4.5637,-4.5637,-4.5637,-4.5637,-4.569,-4.5698,-4.5706,0.0,0.0,0.0,0.0,0.0,0.0,0.0,0.0,0.0,-4.5708,0.0,-4.5706,-4.57,-4.566,-4.5637,-4.569,-4.5381,0.0,-4.5213,0.0,0.0,0.0,-4.5357,0.0,0.0,-4.7774,-4.7977,-4.8813,0.0,0.0,0.0,0.0,0.0,0.0,0.0,0.0,0.0,0.0,0.0,0.0,0.0,0.0,0.0,0.0,0.0,0.0,0.0,0.0,0.0,0.0,0.0,-5.2811,-5.1649,-5.1048,-5.1048,-5.0485,-5.0804,-5.1912,-5.1912,-5.1912,-5.1912,-5.1912,-5.1574,-5.1048,-5.1048,-5.1536,-5.2344,-5.2961,-5.3205,-5.3299,-5.409,-5.424,-5.4071,0.0,0.0,0.0,0.0,0.0,0.0,0.0,0.0,0.0,0.0,0.0,0.0,0.0,0.0,0.0,0.0,0.0,0.0,0.0,0.0,-4.5594,-4.5594,-4.5594,-4.5594,-4.5594,-4.5594,-4.5622,-4.5657,-4.5657,-4.564,-4.5594,-4.5594,-4.5594,-4.5594,-4.5594,-4.5594,-4.5594,-4.5594,-4.5594,-4.5594,-4.564,-4.5657,-4.5657,0.0,0.0,0.0,0.0,0.0,0.0,0.0,0.0,0.0,-4.5651,0.0,-4.5657,-4.5662,-4.5637,-4.5622,-4.5648,-4.5381,0.0,-4.5052,-4.4676,-4.4401,-4.468,0.0,0.0,0.0,0.0,-4.7571,-4.8686,0.0,0.0,0.0,0.0,0.0,0.0,0.0,0.0,0.0,0.0,0.0,0.0,0.0,0.0,0.0,0.0,0.0,0.0,0.0,0.0,0.0,0.0,0.0,-5.2682,-5.1668,-5.118,-5.1161,-5.0691,-5.0785,-5.1405,-5.1086,-5.0954,-5.0973,-5.1273,-5.133,-5.118,-5.118,-5.1668,-5.2475,-5.2998,-5.3412,-5.3733,-5.4221,-5.4409,-5.4409,0.0,0.0,0.0,0.0,0.0,0.0,0.0,0.0,0.0,0.0,0.0,0.0,0.0,0.0,0.0,0.0,0.0,0.0,0.0,0.0,-4.5594,-4.5594,-4.5594,-4.5556,-4.5479,-4.5479,-4.546,-4.5364,-4.5537,-4.5594,-4.5594,-4.5594,-4.5594,-4.5594,-4.5594,-4.5594,-4.5594,-4.5594,-4.5594,-4.5594,-4.5594,-4.5594,-4.5594,-4.5594,0.0,0.0,0.0,0.0,0.0,0.0,0.0,0.0,-4.5594,-4.5594,-4.5594,-4.5594,-4.5594,-4.5594,-4.5594,-4.5577,0.0,-4.4938,-4.4763,0.0,-4.5112,-4.4562,-4.4488,-4.6141,0.0,0.0,0.0,0.0,0.0,0.0,0.0,0.0,0.0,0.0,0.0,0.0,0.0,0.0,0.0,0.0,0.0,0.0,0.0,0.0,0.0,0.0,0.0,0.0,0.0,0.0,-5.2137,-5.2062,-5.2024,0.0,-5.1949,-5.1518,-5.0782,-5.0053,-4.9715,-4.9753,-5.0485,-5.1273,-5.2024,-5.2024,-5.2531,-5.3318,-5.3318,-5.3752,-5.4409,-5.4409,-5.4409,-5.4409,0.0,0.0,0.0,0.0,0.0,0.0,0.0,0.0,0.0,0.0,0.0,0.0,0.0,0.0,0.0,0.0,0.0,0.0,0.0,0.0,-4.5594,-4.5594,-4.5594,-4.5287,-4.4586,-4.4586,-4.4259,-4.3643,-4.496,-4.5594,-4.5594,-4.5594,-4.5594,-4.5594,-4.5594,-4.5594,-4.5594,-4.5594,-4.5594,-4.5594,-4.5594,-4.5594,-4.5594,-4.5594,-4.5594,0.0,0.0,0.0,0.0,0.0,0.0,0.0,-4.5594,-4.5594,-4.5594,-4.5594,-4.5594,-4.5594,-4.5594,-4.5438,0.0,0.0,-4.4484,-4.4192,-4.4259,-4.4135,-4.4488,-4.6141,0.0,0.0,0.0,0.0,0.0,0.0,0.0,0.0,0.0,0.0,0.0,0.0,0.0,0.0,0.0,0.0,0.0,0.0,0.0,0.0,0.0,0.0,0.0,0.0,0.0,-5.3864,-5.3864,-5.3226,-5.2923,0.0,-5.2231,-5.1818,-5.1649,-5.1461,-5.1386,-5.1386,-5.1574,-5.2137,-5.2923,-5.2923,-5.3395,-5.4127,-5.4127,-5.424,-5.4409,-5.4409,-5.4409,-5.4409,0.0,0.0,0.0,0.0,0.0,0.0,0.0,0.0,0.0,0.0,0.0,0.0,0.0,0.0,0.0,0.0,0.0,0.0,0.0,0.0,0.0,0.0,-4.5594,0.0,0.0,-4.4297,-4.3912,-4.3104,-4.397,-4.4605,-4.4998,-4.5402,-4.5594,-4.5594,-4.5594,-4.5594,-4.5594,-4.5594,-4.5594,-4.5594,-4.5594,-4.5594,-4.5594,-4.5594,-4.5594,-4.5594,-4.5594,0.0,0.0,0.0,0.0,0.0,0.0,0.0,-4.5594,-4.5594,-4.5594,-4.5594,-4.5594,0.0,0.0,-4.4896,0.0,-4.4166,-4.4017,-4.4005,-4.4246,0.0,0.0,0.0,0.0,0.0,0.0,0.0,0.0,0.0,0.0,0.0,0.0,0.0,0.0,0.0,0.0,0.0,0.0,0.0,0.0,0.0,0.0,0.0,0.0,0.0,-5.2606,-5.2625,-5.2625,-5.1818,-5.1627,-5.2003,-5.1536,-5.1536,-5.1912,-5.1912,-5.2137,-5.2513,-5.2513,-5.3001,-5.377,-5.377,-5.4015,-5.4409,-5.4409,-5.4409,-5.4409,-5.4409,-5.4409,-5.4334,0.0,0.0,0.0,0.0,0.0,0.0,0.0,0.0,0.0,0.0,0.0,0.0,0.0,0.0,0.0,0.0,0.0,0.0,0.0,0.0,0.0,0.0,-4.5594,0.0,0.0,0.0,0.0,0.0,0.0,-4.322,-4.3893,-4.4893,-4.546,-4.5594,-4.5594,-4.5594,-4.5594,-4.5594,-4.5594,-4.5594,-4.5594,-4.5594,-4.5594,-4.5594,-4.5594,-4.5594,-4.5594,-4.5594,-4.5594,-4.5594,0.0,0.0,0.0,0.0,-4.5594,-4.5594,-4.5594,-4.5594,-4.5594,0.0,-4.5419,-4.4985,-4.4663,0.0,-4.4136,-4.4079,0.0,0.0,0.0,0.0,0.0,0.0,0.0,0.0,0.0,0.0,0.0,0.0,0.0,0.0,0.0,0.0,0.0,0.0,0.0,0.0,0.0,0.0,0.0,0.0,-5.1378,-5.1378,-5.0866,-5.0587,-5.0525,-4.9886,-4.9855,-5.0485,-5.0485,-5.0842,-5.1499,-5.1499,-5.2024,-5.298,-5.298,-5.3339,-5.3977,-5.3977,-5.3977,-5.3977,-5.3977,-5.3977,-5.3977,-5.3977,-5.3977,-5.3864,0.0,0.0,0.0,0.0,0.0,0.0,0.0,0.0,0.0,0.0,0.0,0.0,0.0,0.0,0.0,0.0,0.0,0.0,-4.5594,0.0,0.0,-4.5594,-4.5594,-4.4883,0.0,0.0,0.0,0.0,0.0,0.0,0.0,0.0,-4.4874,-4.5594,-4.5594,-4.5594,-4.5594,-4.5594,-4.5594,-4.5594,-4.5594,-4.5594,-4.5594,-4.5594,-4.5594,-4.5594,-4.5594,-4.5594,-4.5594,-4.5594,-4.5594,0.0,0.0,0.0,-4.5594,-4.5594,-4.5594,-4.5594,0.0,0.0,-4.5232,0.0,-4.4931,-4.4676,0.0,0.0,0.0,0.0,0.0,0.0,0.0,0.0,0.0,0.0,0.0,0.0,0.0,0.0,0.0,0.0,0.0,0.0,0.0,0.0,0.0,0.0,0.0,0.0,0.0,-4.8926,-4.9295,-4.9295,-4.9866,-5.0107,-4.9915,-4.9821,-4.9744,-4.9659,-4.9659,-4.9715,-4.9828,-4.9828,-5.0635,-5.2081,-5.2081,-5.2137,-5.2231,-5.2231,-5.2231,-5.2231,-5.2231,-5.2231,-5.2231,-5.2231,-5.2231,-5.2231,0.0,0.0,0.0,0.0,0.0,0.0,0.0,0.0,0.0,0.0,0.0,0.0,0.0,0.0,0.0,-4.5594,-4.5594,-4.5594,-4.5594,-4.5594,-4.5594,-4.5594,-4.5133,-4.4316,-4.3124,0.0,0.0,0.0,0.0,0.0,0.0,-4.2547,-4.3605,0.0,-4.4874,-4.5152,-4.5594,-4.5594,-4.5594,-4.5594,-4.5594,-4.5594,-4.5594,-4.5594,-4.5594,-4.5594,-4.5594,-4.5594,-4.5594,-4.5594,-4.5594,-4.5594,-4.5594,0.0,0.0,0.0,-4.5631,-4.5648,-4.5648,-4.5531,-4.54,0.0,-4.5107,-4.484,0.0,0.0,0.0,0.0,0.0,0.0,0.0,0.0,0.0,0.0,0.0,0.0,0.0,0.0,0.0,0.0,0.0,0.0,0.0,0.0,0.0,0.0,0.0,0.0,-4.7708,-4.8041,-4.8232,-4.8232,-4.8098,0.0,-4.7907,-4.7296,-4.7124,-4.7387,-4.7875,-4.8101,-4.8101,-4.8101,-4.9246,-5.1236,-5.1236,-5.148,-5.1912,-5.1912,-5.1912,-5.1912,-5.1912,-5.1912,-5.1912,-5.1912,-5.1611,-5.1161,0.0,0.0,0.0,0.0,0.0,0.0,0.0,0.0,0.0,0.0,0.0,0.0,0.0,0.0,0.0,0.0,-4.5594,-4.5594,-4.5594,-4.5594,-4.5498,-4.5287,-4.4643,-4.3816,-4.2797,0.0,0.0,0.0,0.0,0.0,-4.147,-4.147,-4.2258,0.0,-4.4105,-4.4778,-4.5594,-4.5594,-4.5594,-4.5594,-4.5594,-4.5594,-4.5594,-4.5594,-4.5594,-4.5594,-4.5594,-4.5594,-4.5594,-4.5594,-4.5594,-4.5594,-4.5594,-4.5594,0.0,0.0,0.0,-4.5643,0.0,0.0,-4.5182,-4.4768,-4.4671,-4.443,0.0,0.0,0.0,0.0,0.0,0.0,0.0,0.0,0.0,0.0,0.0,0.0,0.0,0.0,0.0,0.0,0.0,0.0,0.0,0.0,0.0,0.0,0.0,0.0,-4.7221,-4.7221,-4.7221,-4.7221,-4.6588,-4.6223,-4.6162,-4.5258,-4.5029,-4.549,-4.6083,-4.6373,-4.6373,-4.6373,-4.75,-4.9434,-4.9659,-5.0091,-5.0654,-5.0654,-5.0654,-5.0654,-5.0654,-5.0654,-5.0654,-5.0654,-5.0278,-4.9659,0.0,0.0,0.0,0.0,0.0,0.0,0.0,0.0,0.0,0.0,0.0,0.0,-4.5594,-4.5594,-4.5594,-4.5594,-4.5594,-4.5594,-4.5594,-4.5594,-4.5229,-4.4393,-4.4316,0.0,-4.1904,-4.1808,0.0,0.0,0.0,0.0,-4.0573,-4.0573,-4.1046,-4.2,-4.3585,-4.4778,-4.5594,-4.5594,-4.5594,-4.5594,-4.5594,-4.5594,-4.5594,-4.5594,-4.5594,-4.5594,-4.5594,-4.5594,-4.5594,-4.5594,-4.5594,-4.5594,-4.5594,-4.5594,-4.5594,0.0,0.0,0.0,0.0,-4.4476,0.0,-4.3412,0.0,0.0,0.0,0.0,0.0,0.0,0.0,0.0,0.0,0.0,0.0,0.0,0.0,0.0,0.0,0.0,0.0,0.0,0.0,0.0,0.0,0.0,0.0,0.0,0.0,0.0,-4.5894,-4.5894,-4.5894,-4.5894,-4.5856,-4.5743,-4.5558,-4.5044,-4.4826,-4.4852,-4.4694,-4.4632,-4.4632,-4.4632,-4.5134,-4.6017,-4.6824,-4.7218,-4.7256,-4.7256,-4.7256,-4.7256,-4.7256,-4.7256,-4.7256,-4.7256,-4.7237,-4.7199,0.0,0.0,0.0,0.0,0.0,0.0,0.0,0.0,0.0,0.0,0.0,0.0,0.0,-4.5267,-4.5594,-4.5594,-4.5594,-4.5364,-4.4797,-4.4759,-4.4393,-4.3566,-4.2989,-4.2412,-4.1808,-4.1258,-4.0804,0.0,0.0,-4.0496,-4.0496,-4.0496,-4.0969,-4.1827,-4.2431,-4.347,-4.4759,-4.4759,0.0,0.0,0.0,-4.5594,-4.5594,-4.5594,0.0,0.0,0.0,0.0,0.0,0.0,-4.5594,-4.5594,-4.5594,-4.5594,-4.5507,-4.498,-4.4449,-4.3975,0.0,0.0,0.0,-4.3246,0.0,0.0,0.0,0.0,0.0,0.0,0.0,0.0,0.0,0.0,0.0,0.0,0.0,0.0,0.0,0.0,0.0,0.0,0.0,0.0,0.0,0.0,0.0,0.0,0.0,0.0,-4.5807,-4.5807,-4.5807,-4.5807,-4.5807,-4.5688,-4.5498,-4.5333,-4.5184,-4.5052,-4.4814,-4.4688,-4.4694,-4.4546,-4.4651,-4.4946,-4.5251,-4.6017,-4.7012,-4.7012,-4.7012,-4.7012,-4.7012,-4.7012,-4.7012,-4.7012,-4.6655,-4.6167,0.0,0.0,0.0,0.0,0.0,0.0,0.0,0.0,0.0,-4.3104,0.0,0.0,0.0,0.0,-4.4767,-4.4767,-4.4767,-4.4509,-4.3932,-4.3893,-4.3528,-4.2701,-4.2104,-4.1662,-4.1373,-4.0804,-4.0496,0.0,0.0,0.0,0.0,-4.0496,-4.0804,-4.1354,-4.1354,-4.2316,0.0,0.0,0.0,-4.5152,0.0,0.0,-4.5575,0.0,0.0,0.0,0.0,0.0,0.0,0.0,0.0,0.0,-4.4767,-4.4767,-4.466,-4.4113,-4.357,-4.3085,-4.2828,0.0,0.0,0.0,0.0,0.0,0.0,0.0,0.0,0.0,0.0,0.0,0.0,0.0,0.0,0.0,0.0,0.0,0.0,0.0,0.0,0.0,0.0,0.0,0.0,0.0,0.0,0.0,0.0,0.0,-4.5807,-4.5807,-4.5807,-4.5807,-4.5807,-4.5737,-4.5602,-4.5524,-4.5427,-4.5294,-4.5044,-4.4903,-4.4807,-4.4668,-4.456,-4.4501,-4.4501,-4.512,-4.6152,-4.6152,-4.6152,-4.6152,-4.6152,-4.6152,-4.6204,-4.6467,-4.6204,-4.5735,0.0,0.0,0.0,0.0,0.0,0.0,0.0,0.0,-4.3028,-4.3028,0.0,0.0,0.0,0.0,0.0,-4.3104,-4.3104,-4.3085,-4.3066,-4.3066,-4.2662,-4.1788,-4.175,-4.1373,-4.0516,-4.0496,-4.0496,0.0,0.0,0.0,0.0,0.0,-4.0496,-4.0496,-4.0496,-4.1439,-4.3028,0.0,-4.3528,-4.4201,0.0,-4.4066,-4.5441,0.0,0.0,0.0,-4.4566,-4.4259,0.0,-4.3355,0.0,0.0,0.0,-4.3085,-4.3066,-4.3066,-4.3092,-4.2949,0.0,0.0,0.0,0.0,0.0,0.0,0.0,0.0,0.0,0.0,0.0,0.0,0.0,0.0,0.0,0.0,0.0,0.0,0.0,0.0,0.0,0.0,0.0,0.0,0.0,0.0,0.0,0.0,0.0,-4.5807,-4.5807,-4.5807,-4.5807,-4.5807,-4.5807,-4.5807,-4.5807,-4.561,-4.5498,-4.5518,-4.5294,-4.5074,-4.4812,-4.4812,-4.4701,-4.451,-4.4496,-4.4515,-4.4515,-4.4501,-4.4501,-4.4501,-4.4501,-4.4501,-4.4632,-4.5416,-4.5716,-4.5866,0.0,0.0,0.0,0.0,0.0,0.0,0.0,0.0,-4.1227,0.0,0.0,0.0,-4.2162,-4.272,-4.3104,-4.3104,-4.3104,-4.2835,-4.22,-4.2162,-4.1777,-4.0893,-4.0854,-4.0746,-4.0516,-4.0496,-4.0496,0.0,0.0,0.0,0.0,0.0,0.0,0.0,-4.0496,-4.0766,-4.1266,-4.1893,0.0,-4.3412,-4.3181,-4.3374,0.0,0.0,0.0,0.0,0.0,-4.3431,-4.3393,0.0,-4.3104,-4.3104,0.0,0.0,-4.217,-4.2225,0.0,0.0,-4.1139,0.0,0.0,0.0,0.0,0.0,0.0,0.0,0.0,0.0,0.0,0.0,0.0,0.0,0.0,0.0,0.0,0.0,0.0,0.0,0.0,0.0,0.0,0.0,0.0,0.0,0.0,0.0,-4.5471,-4.5807,-4.5807,-4.5807,-4.5807,-4.5807,-4.5807,-4.5807,-4.5807,-4.5745,-4.5723,-4.5723,-4.5507,-4.5381,-4.5304,-4.5161,-4.5052,-4.4992,-4.4801,-4.4726,-4.4701,-4.456,-4.4501,-4.4501,-4.4501,-4.4857,-4.5397,-4.5622,-4.6092,-4.6674,0.0,0.0,0.0,0.0,0.0,0.0,0.0,-4.0496,-4.0496,0.0,0.0,0.0,-4.1258,-4.17,-4.2008,-4.2008,-4.2008,-4.1797,-4.1296,-4.1258,-4.1027,-4.0516,-4.0496,-4.0496,-4.0496,-4.0496,-4.0496,0.0,0.0,0.0,0.0,0.0,0.0,0.0,0.0,0.0,0.0,0.0,0.0,0.0,-4.2162,0.0,0.0,-4.2701,-4.2777,0.0,0.0,0.0,-4.2508,-4.2143,-4.2008,0.0,0.0,0.0,0.0,0.0,0.0,0.0,-4.0739,-4.0784,0.0,0.0,0.0,0.0,-4.0797,-4.0797,0.0,0.0,0.0,0.0,0.0,0.0,0.0,0.0,0.0,0.0,0.0,0.0,0.0,0.0,0.0,0.0,0.0,0.0,0.0,0.0,-4.4485,-4.491,-4.5278,-4.5297,-4.5452,-4.5787,-4.5807,-4.5807,-4.5807,-4.5807,-4.5807,-4.5807,-4.5673,-4.5585,-4.5509,-4.5371,-4.5274,-4.5191,-4.5041,-4.4973,-4.495,-4.4732,-4.4761,-4.5003,-4.5003,-4.551,-4.6279,-4.6617,-4.7068,-4.7556,0.0,0.0,0.0,0.0,0.0,0.0,0.0,-4.0496,-4.0496,0.0,-4.0496,-4.0496,-4.0496,-4.0496,-4.0496,-4.0496,-4.0496,-4.0496,-4.0496,-4.0496,-4.0496,-4.0496,-4.0496,-4.0496,-4.0496,-4.0496,-4.0496,0.0,0.0,0.0,0.0,0.0,0.0,0.0,0.0,0.0,0.0,0.0,0.0,-4.1585,-4.0804,-4.1439,0.0,0.0,-4.2143,-4.2701,-4.1931,-4.1662,-4.1546,-4.0766,-4.0496,0.0,0.0,0.0,0.0,0.0,-4.0598,0.0,-4.0687,-4.0746,-4.0797,0.0,0.0,0.0,-4.0797,-4.0797,-4.0797,0.0,0.0,0.0,0.0,0.0,0.0,0.0,0.0,0.0,0.0,0.0,0.0,0.0,0.0,0.0,0.0,0.0,-4.3169,-4.3169,-4.3247,-4.3634,-4.44,-4.4458,-4.4833,-4.5652,-4.5671,-4.571,-4.5807,-4.5807,-4.5807,-4.5807,-4.5807,-4.5715,-4.5524,-4.5524,-4.5436,-4.5273,-4.5234,-4.5223,-4.5203,-4.4943,-4.5129,-4.559,-4.558,-4.6092,-4.6936,-4.765,-4.7969,-4.8176,-4.0508,0.0,0.0,0.0,0.0,0.0,0.0,0.0,-4.0496,-4.0496,-4.0496,-4.0496,-4.0496,-4.0496,-4.0496,-4.0496,-4.0496,-4.0496,-4.0496,-4.0496,-4.0496,-4.0496,-4.0496,-4.0496,-4.0496,-4.0496,-4.0496,0.0,0.0,0.0,0.0,0.0,0.0,0.0,0.0,0.0,0.0,0.0,0.0,-4.0746,-4.0573,0.0,-4.0997,-4.0823,-4.0862,-4.0997,-4.0804,-4.0746,-4.0727,-4.0554,-4.0496,-4.0496,0.0,0.0,0.0,-4.058,0.0,0.0,0.0,0.0,0.0,0.0,0.0,0.0,-4.0797,-4.0797,-4.0797,0.0,0.0,0.0,0.0,0.0,0.0,0.0,0.0,0.0,0.0,0.0,0.0,0.0,0.0,0.0,0.0,0.0,-4.2241,-4.2241,-4.2899,-4.3363,-4.3537,-4.3556,-4.3943,-4.4813,-4.4833,-4.5142,-4.5787,-4.5807,-4.5807,-4.5807,-4.5807,-4.5793,-4.5737,-4.5737,-4.5723,-4.5665,-4.5507,-4.5436,-4.5418,-4.5213,-4.5068,-4.4953,-4.4804,-4.5228,-4.596,-4.6129,-4.6636,-4.7256,-4.0508,0.0,0.0,0.0,0.0,0.0,0.0,0.0,-4.0496,-4.0496,-4.0496,-4.0496,-4.0496,-4.0496,-4.0496,-4.0496,-4.0496,-4.0496,-4.0496,-4.0496,-4.0496,-4.0496,-4.0496,-4.0496,-4.0496,-4.0496,-4.0496,0.0,0.0,0.0,0.0,0.0,0.0,0.0,0.0,0.0,0.0,0.0,-4.0496,-4.0496,-4.0496,0.0,-4.0496,-4.0496,-4.0496,-4.0496,-4.0496,-4.0496,-4.0496,-4.0496,-4.0496,0.0,0.0,-4.0496,-4.0504,0.0,-4.0598,-4.0621,0.0,0.0,0.0,-4.0797,0.0,0.0,0.0,-4.0797,-4.0797,0.0,0.0,0.0,0.0,0.0,0.0,0.0,0.0,0.0,0.0,0.0,0.0,0.0,0.0,0.0,0.0,0.0,-4.139,-4.139,-4.1816,-4.2222,-4.2628,-4.2647,-4.3053,-4.3924,-4.3962,-4.4156,-4.4543,-4.4987,-4.52,-4.52,-4.5613,-4.5807,-4.5807,-4.5807,-4.5807,-4.578,-4.5681,-4.565,-4.5626,-4.5323,-4.5118,-4.5034,-4.533,-4.5963,-4.6689,-4.6544,-4.6773,-4.7141,-4.0508,0.0,0.0,0.0,0.0,0.0,0.0,0.0,-4.0496,-4.0496,-4.0496,-4.0496,-4.0496,-4.0496,-4.0496,-4.0496,-4.0496,-4.0496,-4.0496,-4.0496,-4.0496,-4.0496,-4.0496,-4.0496,-4.0496,-4.0496,-4.0496,0.0,0.0,0.0,0.0,0.0,0.0,0.0,0.0,0.0,0.0,0.0,0.0,-4.0496,0.0,-4.0496,-4.0496,-4.0496,-4.0496,-4.0496,-4.0496,-4.0496,-4.0496,-4.0496,-4.0496,-4.0496,-4.0496,-4.0496,0.0,0.0,0.0,0.0,0.0,0.0,0.0,0.0,0.0,-4.0797,0.0,0.0,0.0,0.0,0.0,0.0,0.0,0.0,0.0,0.0,0.0,0.0,0.0,0.0,0.0,0.0,0.0,0.0,0.0,0.0,-4.0797,-4.0797,-4.0797,-4.1087,-4.1738,-4.1777,-4.2164,-4.3015,-4.3053,-4.3131,-4.3305,-4.4001,-4.4342,-4.4362,-4.5181,-4.5568,-4.5568,-4.5729,-4.5807,-4.5807,-4.5807,-4.5807,-4.5766,-4.5445,-4.5333,-4.537,-4.5851,-4.6458,-4.7063,-4.6853,-4.6762,-4.6736,-4.0496,-4.0496,0.0,0.0,0.0,0.0,0.0,0.0,0.0,-4.0496,-4.0496,-4.0496,-4.0496,-4.0496,-4.0496,-4.0496,-4.0496,0.0,-4.0496,0.0,-4.0496,-4.0496,-4.0496,-4.0496,-4.0496,-4.0496,-4.0496,-4.0496,0.0,0.0,0.0,0.0,0.0,0.0,-4.0496,0.0,0.0,0.0,-4.0496,0.0,-4.0496,-4.0496,0.0,-4.0496,-4.0496,-4.0496,-4.0496,-4.0496,-4.0496,0.0,-4.0496,-4.0496,0.0,-4.0496,-4.0504,-4.058,0.0,0.0,0.0,0.0,0.0,0.0,-4.0797,0.0,0.0,0.0,0.0,0.0,0.0,0.0,0.0,0.0,0.0,0.0,0.0,0.0,0.0,0.0,0.0,0.0,0.0,0.0,0.0,0.0,0.0,-4.0797,-4.0797,-4.0835,-4.0932,-4.0951,-4.1313,-4.2125,-4.2144,-4.2512,-4.3285,-4.3401,-4.346,-4.346,-4.433,-4.4736,-4.4755,-4.5471,-4.5807,-4.5807,-4.5807,-4.5807,-4.58,-4.5745,-4.573,-4.5658,-4.4993,-4.4766,-4.486,-4.4833,-4.4819,-4.4805,-4.0496,-4.0496,-4.0496,0.0,0.0,0.0,0.0,0.0,0.0,-4.0496,-4.0496,-4.0496,0.0,0.0,0.0,-4.0496,0.0,-4.0496,0.0,0.0,-4.0496,-4.0496,-4.0496,-4.0496,-4.0496,-4.0496,-4.0496,-4.0496,-4.0496,0.0,0.0,0.0,0.0,0.0,-4.0496,0.0,-4.0496,0.0,0.0,0.0,0.0,0.0,0.0,-4.0496,-4.0496,-4.0496,-4.0496,-4.0496,-4.0496,0.0,-4.0496,0.0,0.0,0.0,0.0,0.0,0.0,0.0,0.0,0.0,0.0,0.0,0.0,0.0,-4.0797,0.0,-4.0797,0.0,0.0,0.0,0.0,0.0,0.0,0.0,0.0,0.0,0.0,0.0,0.0,0.0,0.0,0.0,0.0,0.0,0.0,0.0,0.0,-4.0797,-4.0797,-4.0797,-4.0951,-4.1293,-4.1293,-4.1487,-4.1854,-4.2318,-4.255,-4.257,-4.344,-4.3846,-4.3866,-4.4717,-4.5104,-4.5123,-4.5594,-4.5807,-4.58,-4.5665,-4.5626,-4.5585,-4.5096,-4.4992,-4.5052,-4.4758,-4.4662,-4.4655,-4.0496,-4.0496,0.0,0.0,0.0,0.0,0.0,0.0,0.0,0.0,0.0,0.0,-4.0496,-4.0496,0.0,0.0,-4.0496,-4.0496,0.0,0.0,-4.0496,0.0,0.0,0.0,0.0,-4.0496,-4.0496,-4.0496,0.0,0.0,0.0,0.0,0.0,0.0,0.0,-4.0496,-4.0496,0.0,0.0,-4.0496,-4.0496,-4.0496,-4.0496,-4.0496,-4.0496,-4.0496,-4.0496,-4.0496,-4.0496,-4.0496,-4.0496,0.0,-4.0496,0.0,0.0,0.0,0.0,0.0,-4.07,0.0,0.0,0.0,0.0,0.0,0.0,0.0,0.0,0.0,0.0,0.0,0.0,0.0,0.0,0.0,0.0,0.0,0.0,0.0,0.0,0.0,0.0,0.0,0.0,0.0,0.0,0.0,-4.0797,0.0,-4.0797,-4.0797,-4.0797,-4.0797,-4.0797,-4.0797,-4.0797,-4.1371,-4.1661,-4.168,-4.2531,-4.2937,-4.2976,-4.3846,-4.4362,-4.4632,-4.522,-4.5594,-4.58,-4.5642,-4.5585,-4.5549,-4.5352,-4.5371,-4.5454,-4.5055,-4.4861,-4.4795,-4.0496,-4.0496,0.0,0.0,0.0,0.0,0.0,0.0,0.0,0.0,0.0,0.0,0.0,0.0,0.0,0.0,0.0,-4.0496,-4.0496,0.0,-4.0496,0.0,0.0,-4.0496,0.0,0.0,0.0,0.0,0.0,0.0,0.0,0.0,0.0,0.0,0.0,-4.0496,-4.0496,-4.0496,-4.0496,-4.0496,-4.0496,-4.0496,-4.0496,0.0,-4.0496,-4.0496,-4.0496,0.0,0.0,-4.0496,-4.0496,0.0,0.0,0.0,0.0,0.0,0.0,0.0,0.0,0.0,0.0,-4.0797,0.0,0.0,0.0,0.0,-4.0797,0.0,0.0,0.0,0.0,0.0,-4.0797,-4.0797,0.0,0.0,0.0,0.0,0.0,0.0,0.0,0.0,0.0,0.0,0.0,0.0,-4.0797,0.0,-4.0797,-4.0797,-4.0797,-4.0797,-4.0797,-4.0797,-4.0797,-4.0835,-4.0835,-4.0855,-4.1661,-4.2048,-4.2067,-4.2937,-4.3808,-4.4594,-4.4632,-4.5084,-4.5807,-4.58,-4.58,-4.5766,-4.5577,-4.549,-4.5472,-4.5254,-4.503,-4.4843,-4.0496,-4.0496,0.0,0.0,0.0,0.0,0.0,-4.0496,0.0,0.0,0.0,0.0,0.0,-4.0496,-4.0496,0.0,0.0,-4.0496,-4.0496,-4.0496,0.0,0.0,0.0,-4.0496,0.0,0.0,0.0,0.0,0.0,0.0,0.0,0.0,0.0,0.0,0.0,-4.0496,0.0,0.0,0.0,0.0,0.0,-4.0496,-4.0496,0.0,0.0,-4.0496,-4.0496,-4.0496,0.0,-4.0496,-4.0496,-4.0496,-4.0496,-4.0496,-4.0512,-4.0574,-4.0595,0.0,0.0,0.0,-4.079,-4.0746,0.0,0.0,0.0,0.0,0.0,0.0,0.0,0.0,0.0,0.0,-4.0797,-4.0797,-4.0797,0.0,0.0,0.0,0.0,0.0,0.0,0.0,0.0,0.0,0.0,-4.0797,-4.0797,-4.0797,0.0,-4.0797,-4.0797,-4.0797,-4.0797,-4.0797,-4.0797,-4.0797,-4.0797,-4.0797,-4.1087,-4.1222,-4.1235,-4.2067,-4.2609,-4.2918,-4.3498,-4.4214,-4.5007,-4.5007,-4.5316,-4.578,-4.573,-4.5708,-4.565,-4.5314,-4.5129,-4.5074,-4.0496,0.0,0.0,0.0,0.0,0.0,0.0,0.0,0.0,0.0,-4.0496,0.0,-4.0496,0.0,-4.0496,0.0,-4.0496,-4.0496,-4.0496,-4.0496,0.0,-4.0496,-4.0496,0.0,0.0,0.0,0.0,0.0,0.0,-4.0496,0.0,0.0,0.0,0.0,0.0,0.0,-4.0496,0.0,-4.0496,0.0,0.0,-4.0496,0.0,0.0,-4.0496,-4.0496,0.0,-4.0496,-4.0496,-4.0496,-4.0496,-4.0496,-4.0496,-4.0496,-4.0512,-4.0574,-4.0595,-4.0628,-4.0759,-4.0784,0.0,-4.0739,-4.0746,0.0,-4.0739,0.0,0.0,0.0,0.0,0.0,0.0,0.0,0.0,-4.0797,-4.0797,-4.0797,0.0,-4.0797,0.0,0.0,0.0,0.0,0.0,0.0,-4.0797,-4.0797,-4.0797,-4.0797,0.0,0.0,-4.0797,-4.0797,-4.0797,-4.0797,-4.0797,-4.0797,-4.0797,-4.0797,-4.0797,-4.0797,-4.0816,-4.1332,-4.1738,-4.2028,-4.2589,-4.3324,-4.4149,-4.4458,-4.491,-4.5394,-4.5691,-4.5807,-4.5759,-4.5498,-4.5409,-4.5399,0.0,0.0,0.0,0.0,-4.0496,0.0,0.0,0.0,-4.0496,0.0,-4.0496,-4.0496,-4.0496,-4.0496,-4.0496,-4.0496,-4.0496,-4.0496,-4.0496,-4.0496,0.0,0.0,-4.0496,-4.0496,-4.0496,0.0,0.0,0.0,0.0,0.0,0.0,0.0,0.0,0.0,-4.0496,0.0,-4.0496,-4.0496,-4.0496,-4.0496,-4.0496,-4.0496,-4.0496,-4.0496,0.0,-4.0496,-4.0496,-4.0496,-4.0496,-4.0496,-4.0496,-4.0496,-4.0496,-4.0496,-4.0512,-4.0574,-4.0595,-4.0628,-4.0759,-4.0746,-4.0726,-4.0784,0.0,0.0,0.0,0.0,-4.0797,0.0,0.0,0.0,0.0,0.0,0.0,-4.0797,-4.0797,-4.0797,0.0,0.0,0.0,0.0,0.0,0.0,0.0,-4.0797,-4.0797,-4.0797,-4.0797,-4.0797,0.0,0.0,0.0,-4.0797,-4.0797,-4.0797,-4.0797,-4.0797,-4.0797,-4.0797,-4.0797,-4.0797,-4.0797,-4.0797,-4.1222,-4.1932,-4.1932,-4.2434,-4.3305,-4.413,-4.4497,-4.4613,-4.5432,-4.5768,-4.5807,-4.5807,-4.5807,-4.5766,-4.0496,-4.0496,-4.0496,0.0,-4.0496,-4.0496,0.0,0.0,0.0,0.0,-4.0496,-4.0496,-4.0496,-4.0496,-4.0496,-4.0496,-4.0496,0.0,0.0,0.0,0.0,-4.0496,-4.0496,-4.0496,-4.0496,-4.0496,0.0,-4.0496,0.0,0.0,-4.0496,0.0,0.0,0.0,0.0,0.0,-4.0496,-4.0496,-4.0496,-4.0496,-4.0496,-4.0496,0.0,0.0,-4.0496,-4.0496,-4.0496,-4.0496,-4.0496,-4.0496,-4.0496,-4.0496,-4.0496,-4.0531,-4.058,-4.06,-4.0595,-4.0628,-4.0759,-4.0746,-4.07,-4.0713,-4.0746,-4.0778,0.0,0.0,0.0,0.0,0.0,0.0,0.0,0.0,0.0,-4.0797,-4.0797,-4.0797,0.0,0.0,0.0,0.0,0.0,0.0,0.0,-4.0797,-4.0797,-4.0797,-4.0797,0.0,0.0,0.0,0.0,-4.0797,-4.0797,-4.0797,-4.0797,-4.0797,-4.0797,-4.0797,-4.0797,-4.0797,-4.0797,-4.0797,-4.0913,-4.1106,-4.1106,-4.1564,-4.2357,-4.2589,-4.3053,-4.373,-4.4581,-4.5278,-4.5807,-4.5807,-4.5807,-4.58,-4.0496,0.0,0.0,-4.0496,0.0,0.0,-4.0496,0.0,0.0,-4.0496,-4.0496,0.0,-4.0496,-4.0496,-4.0496,-4.0496,-4.0496,0.0,-4.0496,0.0,0.0,-4.0496,-4.0496,-4.0496,-4.0496,-4.0496,0.0,-4.0496,0.0,0.0,-4.0496,0.0,0.0,0.0,0.0,-4.0496,0.0,-4.0496,-4.0496,-4.0496,-4.0496,0.0,0.0,-4.0496,-4.0496,-4.0496,-4.0496,-4.0496,-4.0496,-4.0496,-4.0496,-4.0496,-4.0496,-4.0558,-4.0595,-4.0598,-4.06,-4.0621,-4.0739,-4.0707,-4.0668,-4.0733,-4.0746,-4.0752,-4.0746,-4.0759,-4.0797,0.0,0.0,0.0,0.0,0.0,0.0,0.0,0.0,0.0,0.0,0.0,0.0,0.0,0.0,0.0,0.0,0.0,-4.0797,0.0,0.0,0.0,0.0,0.0,0.0,-4.0797,-4.0797,-4.0797,-4.0797,-4.0797,-4.0797,-4.0797,-4.0797,-4.0797,-4.0797,-4.0797,-4.0797,-4.0797,-4.0797,-4.1067,-4.1506,-4.1854,-4.2299,-4.286,-4.411,-4.4891,-4.5316,-4.5671,-4.5807,-4.5807,0.0,0.0,0.0,0.0,0.0,0.0,0.0,-4.0496,0.0,-4.0496,0.0,-4.0669,-4.0669,-4.0766,-4.0843,-4.0843,0.0,-4.0785,-4.0689,-4.0669,-4.0631,-4.0496,-4.0496,-4.0496,-4.0496,-4.0496,-4.0496,0.0,0.0,0.0,0.0,0.0,0.0,0.0,0.0,0.0,0.0,-4.0496,-4.0496,0.0,-4.0496,-4.0496,-4.0496,-4.0496,-4.0496,-4.0496,-4.0496,-4.0496,-4.0496,-4.0496,-4.0496,-4.0496,-4.0496,-4.0558,-4.0607,-4.0607,-4.0591,-4.0614,-4.0687,-4.0654,-4.0628,-4.0778,-4.0752,-4.0733,-4.079,-4.0797,-4.0797,-4.0797,-4.0797,0.0,0.0,0.0,0.0,0.0,0.0,0.0,0.0,0.0,0.0,0.0,0.0,0.0,0.0,0.0,0.0,0.0,0.0,0.0,0.0,0.0,0.0,0.0,-4.0797,0.0,-4.0797,0.0,-4.0797,-4.0797,-4.0797,-4.0797,-4.0797,-4.0797,-4.0797,-4.0797,-4.0797,-4.0797,-4.0855,-4.1545,-4.1893,-4.2144,-4.3672,-4.4323,-4.4543,-4.5336,-4.5652,-4.5671,0.0,0.0,0.0,0.0,0.0,-4.0496,-4.0496,-4.0496,-4.0496,-4.0496,-4.1123,-4.1566,-4.1566,-4.222,-4.2643,-4.2643,-4.2643,0.0,0.0,0.0,0.0,-4.0535,-4.0496,-4.0496,-4.0496,-4.0496,-4.0496,0.0,0.0,0.0,0.0,0.0,0.0,0.0,0.0,0.0,-4.0496,-4.0496,0.0,-4.0496,-4.0496,-4.0496,-4.0496,-4.0496,-4.0496,-4.0496,-4.0496,-4.0496,-4.0496,-4.0496,-4.0496,-4.0496,-4.0496,-4.0558,-4.0607,-4.0607,-4.0595,-4.061,-4.068,-4.0654,-4.0628,-4.0778,-4.079,-4.0784,-4.0797,-4.0797,-4.0797,-4.0797,-4.0797,-4.0814,-4.0888,0.0,0.0,0.0,0.0,0.0,0.0,0.0,0.0,0.0,0.0,0.0,0.0,0.0,0.0,0.0,0.0,0.0,0.0,0.0,0.0,0.0,0.0,0.0,0.0,0.0,0.0,-4.0797,-4.0797,-4.0797,-4.0797,-4.0797,-4.0797,-4.0797,-4.0797,-4.0797,-4.0816,-4.0951,-4.139,-4.2028,-4.2338,-4.2899,-4.3634,-4.4485,-4.4813,-4.491,0.0,0.0,0.0,0.0,0.0,0.0,0.0,-4.1566,0.0,-4.1219,-4.1931,-4.247,-4.247,-4.2854,-4.3104,-4.3104,-4.3104,-4.2912,-4.2508,-4.2038,-4.1604,-4.1181,-4.0746,0.0,-4.0496,-4.0496,-4.0496,-4.0496,0.0,0.0,-4.0496,0.0,0.0,0.0,0.0,-4.0496,0.0,0.0,0.0,-4.0496,-4.0496,-4.0496,-4.0496,-4.0496,-4.0496,-4.0496,-4.0496,-4.0496,-4.0496,-4.0496,-4.0496,-4.0496,-4.0496,-4.0558,-4.058,-4.0565,-4.0573,-4.0622,-4.064,-4.0621,-4.0628,-4.0778,-4.0797,-4.0797,-4.0797,-4.0797,-4.0797,-4.0797,-4.0825,-4.0863,-4.0941,-4.1019,0.0,0.0,0.0,0.0,0.0,0.0,0.0,0.0,0.0,0.0,0.0,0.0,0.0,0.0,0.0,0.0,0.0,0.0,0.0,0.0,0.0,0.0,0.0,0.0,0.0,-4.0797,-4.0797,-4.0797,-4.0797,-4.0797,-4.0797,-4.0797,-4.0797,-4.0797,-4.0797,-4.0797,-4.1029,-4.1409,-4.1835,-4.226,-4.2725,-4.3595,-4.4207,-4.471,0.0,-4.065,0.0,0.0,-4.1508,0.0,-4.2085,-4.2797,-4.3047,-4.22,-4.2816,-4.3355,-4.3355,-4.3528,-4.3624,-4.3624,-4.3624,-4.3547,-4.3374,-4.272,-4.2173,-4.1808,-4.1143,-4.0689,-4.0496,-4.0496,-4.0496,0.0,0.0,0.0,0.0,0.0,0.0,0.0,0.0,0.0,0.0,0.0,-4.0545,-4.0547,-4.0527,-4.0534,-4.0566,-4.0519,-4.0519,-4.0542,-4.0512,-4.0496,-4.0496,-4.0496,-4.0496,-4.0496,-4.0496,-4.0531,-4.0573,-4.0531,-4.0565,-4.0595,-4.0626,-4.0621,-4.0654,-4.0759,-4.0797,-4.0797,-4.0797,-4.0815,-4.0814,-4.0814,-4.0888,-4.0941,-4.0984,-4.1068,0.0,0.0,0.0,0.0,0.0,0.0,0.0,0.0,0.0,0.0,0.0,0.0,0.0,0.0,0.0,0.0,0.0,0.0,0.0,0.0,0.0,0.0,-4.0797,0.0,-4.0803,0.0,-4.0797,-4.0797,-4.0797,-4.0797,-4.0797,-4.0797,-4.0797,-4.0797,-4.0797,-4.0797,-4.0797,-4.0855,-4.1506,-4.1738,-4.1854,-4.2705,-4.346,-4.4156,0.0,0.0,0.0,0.0,0.0,0.0,0.0,-4.3662,-4.3893,-4.3085,-4.3682,-4.4182,-4.4182,-4.4902,-4.5364,-4.5364,-4.5364,-4.5037,-4.4239,-4.4105,-4.3393,-4.1865,-4.1712,-4.1316,-4.0516,-4.0496,-4.0496,0.0,0.0,0.0,0.0,0.0,0.0,0.0,0.0,0.0,0.0,-4.0711,-4.0723,-4.0766,-4.0568,-4.0604,-4.0761,-4.0561,-4.0586,-4.0662,-4.0549,-4.0496,-4.0496,-4.0496,-4.0496,-4.0496,-4.0496,-4.0496,-4.0523,-4.0573,-4.0607,-4.0603,-4.0673,-4.0694,-4.0707,-4.0784,-4.0797,-4.0797,-4.0797,-4.084,-4.0893,-4.0893,-4.0987,-4.1068,-4.1003,-4.1109,-4.112,0.0,0.0,0.0,0.0,0.0,0.0,0.0,0.0,0.0,0.0,0.0,0.0,0.0,0.0,0.0,0.0,0.0,0.0,-4.0898,0.0,-4.0854,-4.0797,-4.0802,0.0,-4.0797,-4.0797,-4.0797,-4.0797,-4.0797,-4.0797,-4.0797,-4.0797,-4.0797,-4.0797,-4.0797,-4.0797,-4.0816,-4.0874,-4.0913,-4.1009,-4.1816,-4.2164,-4.2376,0.0,0.0,0.0,0.0,0.0,0.0,0.0,-4.4528,-4.496,-4.4643,-4.4883,-4.5075,-4.5075,-4.5402,-4.5594,-4.5594,-4.5594,-4.546,-4.5094,-4.4586,-4.3989,-4.3335,-4.2335,-4.1643,-4.1296,-4.0766,-4.0496,0.0,0.0,0.0,0.0,0.0,0.0,0.0,0.0,-4.0771,-4.0806,-4.0766,-4.0771,-4.0781,-4.0713,-4.0735,-4.0781,-4.0713,-4.0707,-4.074,-4.0696,-4.069,-4.0688,-4.0688,-4.061,-4.0516,-4.0558,-4.0565,-4.0573,-4.0598,-4.0629,-4.0667,-4.0734,-4.0795,-4.0849,-4.0891,-4.0915,-4.0915,-4.0915,-4.0945,-4.0968,-4.0968,-4.1025,-4.1091,-4.1115,-4.1168,-4.117,0.0,0.0,0.0,0.0,0.0,0.0,0.0,0.0,0.0,0.0,0.0,0.0,0.0,0.0,0.0,0.0,0.0,0.0,-4.0953,0.0,-4.0896,-4.0863,-4.0815,-4.0801,-4.0791,-4.08,-4.0797,-4.0797,-4.0797,-4.0797,-4.0797,-4.0797,-4.0797,-4.0797,-4.0797,-4.0797,-4.0797,-4.0797,-4.0797,-4.0835,-4.1164,-4.1583,-4.2048,-4.2989,0.0,-4.3451,0.0,-4.4124,-4.4682,-4.4682,-4.521,-4.5594,-4.5594,-4.5594,-4.5594,-4.5594,-4.5594,-4.5594,-4.5594,-4.5594,-4.5594,-4.5594,-4.5017,-4.4566,-4.4316,-4.2951,0.0,-4.1808,-4.0977,-4.0564,-4.0564,-4.0568,0.0,0.0,0.0,0.0,0.0,-4.085,-4.0867,-4.0887,-4.0863,-4.0867,-4.0887,-4.0814,-4.0846,-4.0871,-4.0814,-4.0818,-4.0848,-4.0814,-4.0799,-4.08,-4.08,-4.0712,-4.0604,-4.0649,-4.0655,-4.0662,-4.068,-4.071,-4.0777,-4.0844,-4.0894,-4.0938,-4.0987,-4.099,-4.099,-4.099,-4.1025,-4.1025,-4.1059,-4.1106,-4.1144,-4.1191,-4.1191,-4.1191,-4.117,0.0,0.0,0.0,0.0,0.0,0.0,-4.1191,-4.1191,-4.1172,0.0,0.0,0.0,0.0,0.0,0.0,0.0,0.0,0.0,0.0,0.0,0.0,-4.0855,-4.0831,-4.0837,-4.0809,-4.0797,-4.0797,-4.0797,-4.0797,-4.0797,-4.0797,-4.0797,-4.0797,-4.0797,-4.0797,-4.0797,-4.0797,-4.0797,-4.0797,-4.0797,-4.1164,-4.1641,-4.3104,-4.3739,-4.4297,-4.4297,-4.5017,-4.5575,-4.5575,-4.5594,-4.5594,-4.5594,-4.5594,-4.5594,-4.5594,-4.5594,-4.5594,-4.5594,-4.5594,-4.5594,-4.5594,-4.5594,-4.521,0.0,0.0,-4.2681,-4.1808,-4.1086,-4.0694,-4.0694,0.0,0.0,-4.0806,0.0,-4.0878,-4.101,-4.101,-4.1025,-4.1087,-4.1037,-4.1047,-4.1081,-4.0883,-4.0922,-4.107,-4.0887,-4.0875,-4.0972,-4.0848,-4.08,-4.0797,-4.0797,-4.0797,-4.0793,-4.0793,-4.0793,-4.0821,-4.0882,-4.0909,-4.0912,-4.0987,-4.099,-4.099,-4.099,-4.099,-4.099,-4.099,-4.1057,-4.1116,-4.1171,-4.1191,-4.1191,-4.1191,-4.1191,-4.1171,-4.1115,0.0,0.0,0.0,0.0,0.0,0.0,-4.1191,-4.1172,-4.1112,0.0,0.0,0.0,0.0,0.0,0.0,0.0,0.0,-4.1009,-4.1051,0.0,-4.09,-4.0909,-4.0894,-4.0907,-4.0837,-4.0797,-4.0797,-4.0797,-4.0797,-4.0797,-4.0797,-4.0797,-4.0797,-4.0797,-4.0797,-4.0797,-4.0797,-4.0797,-4.0797,-4.0797,-4.0816,-4.0816,-4.4682,-4.5017,-4.519,-4.519,-4.5421,-4.5594,-4.5594,-4.5594,-4.5594,-4.5594,-4.5594,-4.5594,-4.5594,-4.5594,-4.5594,0.0,-4.5594,-4.5594,0.0,-4.5594,-4.5479,-4.521,-4.3855,-4.298,-4.2758,-4.1403,-4.0717,-4.078,0.0,0.0,0.0,-4.0937,-4.0977,-4.107,-4.107,-4.1081,-4.1095,-4.1085,-4.107,-4.1082,-4.1023,-4.1049,-4.1084,-4.1025,-4.1025,-4.1056,-4.1025,-4.1003,-4.0991,-4.0991,-4.1034,-4.1077,-4.1077,-4.0979,-4.0886,-4.0942,-4.0998,-4.1046,-4.107,-4.1109,-4.1141,-4.1141,-4.1141,-4.1141,-4.1141,-4.1147,-4.117,-4.1191,-4.1191,-4.1191,-4.1191,-4.1191,-4.1191,-4.117,0.0,0.0,0.0,0.0,0.0,0.0,-4.1152,-4.1112,0.0,-4.109,0.0,0.0,0.0,0.0,0.0,0.0,0.0,0.0,-4.1089,0.0,-4.1035,-4.0985,-4.0966,-4.0972,-4.0906,-4.0866,-4.0877,-4.0814,-4.0797,-4.0797,-4.0797,-4.0797,-4.0797,-4.0797,-4.0797,-4.0797,-4.0797,-4.0797,-4.0797,-4.0797,-4.0797,-4.0797,-4.5498,-4.5594,-4.5594,-4.5594,-4.5594,-4.5594,-4.5594,-4.5594,-4.5594,-4.5594,-4.5594,-4.562,-4.5668,-4.5676,0.0,-4.5594,-4.5654,-4.5676,-4.5676,-4.5692,-4.5711,-4.5711,-4.4416,-4.3562,-4.3272,0.0,0.0,-4.0882,-4.0894,-4.0951,-4.1047,-4.1047,-4.1066,-4.1093,-4.1093,-4.1097,-4.1102,-4.1102,-4.1104,-4.1107,-4.1107,-4.1108,-4.1109,-4.1108,-4.1129,-4.113,-4.111,-4.1111,-4.1132,-4.1132,-4.1172,-4.1191,-4.1191,-4.1102,-4.1027,-4.1053,-4.1091,-4.1143,-4.1143,-4.1169,-4.1191,-4.1191,-4.1191,-4.1191,-4.1191,-4.1191,-4.1191,-4.1191,-4.1191,-4.1191,-4.1191,-4.1191,-4.1191,-4.1191,0.0,-4.1191,-4.1191,0.0,0.0,0.0,0.0,0.0,0.0,-4.1106,0.0,0.0,0.0,0.0,0.0,0.0,0.0,-4.1101,-4.1094,0.0,-4.1098,-4.1035,-4.0993,-4.1009,-4.0913,-4.0887,-4.0903,-4.0831,-4.0797,-4.0797,-4.0797,-4.0797,-4.0797,-4.0797,-4.0797,-4.0797,-4.0797,-4.0797,-4.0797,-4.0797,-4.0797,-4.0797,-4.561,-4.561,0.0,0.0,-4.561,0.0,-4.561,-4.561,-4.561,-4.561,-4.561,-4.5676,-4.5787,-4.5801,-4.5764,-4.5627,0.0,0.0,0.0,-4.5858,-4.5899,-4.5899,-4.5128,0.0,-4.3437,-4.2673,-4.1873,-4.1019,-4.1072,-4.1109,-4.1109,-4.1091,-4.1094,-4.1099,-4.1099,-4.1102,-4.1108,-4.1108,-4.1108,-4.1108,-4.1108,-4.111,-4.1111,-4.1109,-4.1151,-4.1191,-4.1132,-4.1152,-4.1191,-4.1191,-4.1191,-4.1191,-4.1191,-4.1191,-4.1191,-4.1191,-4.1191,-4.1191,-4.1191,-4.1191,-4.1191,-4.1191,-4.1191,-4.1191,-4.1191,-4.1191,-4.1191,-4.1191,-4.1191,-4.1191,-4.1191,-4.1191,-4.1191,-4.1191,-4.1191,-4.1191,-4.1191,0.0,0.0,0.0,0.0,0.0,0.0,-4.1098,-4.1095,0.0,0.0,0.0,0.0,0.0,-4.1095,-4.1109,-4.1109,-4.1093,-4.1098,-4.1035,-4.1014,-4.1011,-4.0886,-4.0855,-4.0906,-4.084,-4.0815,-4.0809,-4.0809,-4.0803,-4.0797,-4.0797,-4.0797,-4.0797,-4.0797,-4.0797,-4.0797,-4.0797,-4.0797,-4.0797,0.0,0.0,-4.5834,-4.5834,-4.5834,-4.5834,-4.5834,-4.5834,-4.5834,-4.5834,-4.5834,-4.5846,-4.5875,-4.5881,-4.5869,-4.584,-4.5863,-4.5881,-4.5881,-4.5889,-4.5899,-4.5899,-4.5128,-4.4331,-4.3494,-4.2701,-4.1897,-4.1076,-4.1091,-4.1097,-4.1097,-4.1102,-4.1104,-4.1105,-4.1105,-4.1108,-4.1091,-4.1091,-4.1131,-4.1171,-4.1171,-4.1172,-4.1172,-4.1172,-4.1191,-4.1191,-4.1172,-4.1191,-4.1191,-4.1191,-4.1191,-4.1191,-4.1191,-4.1191,-4.1191,-4.1191,-4.1191,-4.1191,-4.1191,-4.1191,-4.1191,-4.1191,-4.1191,-4.1191,-4.1191,-4.1191,-4.1191,-4.1191,-4.1191,-4.1191,-4.1191,-4.1191,-4.1191,-4.1191,-4.1191,-4.1191,-4.1191,-4.1152,0.0,0.0,-4.1107,-4.1101,-4.1099,-4.1094,-4.1093,0.0,0.0,0.0,0.0,0.0,-4.1091,-4.1109,-4.1109,-4.1109,-4.1091,-4.108,-4.1087,-4.1073,-4.0982,-4.0992,-4.1059,-4.0977,-4.0924,-4.0873,-4.0873,-4.0846,-4.0797,-4.0797,-4.0797,-4.0797,-4.0797,-4.0797,-4.0797,-4.0797,-4.0797,-4.0797,-4.5899,-4.5899,-4.5899,-4.5899,-4.5899,-4.5899,-4.5899,-4.5899,-4.5899,-4.5899,-4.5899,-4.592,-4.5987,-4.5992,-4.6028,-4.6087,-4.6037,-4.5992,-4.5992,-4.6049,-4.6072,-4.6072,-4.5273,-4.4452,-4.3607,-4.2771,-4.1948,-4.1094,-4.11,-4.1103,-4.1103,-4.1106,-4.1108,-4.1109,-4.1109,-4.1111,-4.1152,-4.1152,-4.1172,-4.1191,-4.1191,-4.1191,-4.1191,-4.1191,-4.1191,-4.1191,-4.1191,-4.1191,-4.1191,-4.1191,-4.1191,-4.1191,-4.1191,-4.1191,-4.1191,-4.1191,-4.1191,-4.1191,-4.1191,-4.1191,-4.1191,-4.1191,-4.1191,-4.1191,-4.1191,-4.1191,-4.1191,-4.1191,-4.1191,-4.1191,-4.1191,-4.1191,-4.1191,-4.1191,-4.1172,-4.1152,-4.1152,-4.1111,0.0,-4.1107,-4.1102,-4.1098,-4.1095,-4.1091,-4.1091,-4.1094,0.0,0.0,-4.1094,-4.1091,-4.1109,-4.1109,-4.1109,-4.1109,-4.1109,-4.1109,-4.1095,-4.1104,-4.1033,-4.1022,-4.1054,-4.1022,-4.097,-4.0949,-4.0949,-4.0924,-4.0893,-4.0893,-4.0868,-4.0859,-4.0859,-4.0825,-4.0797,-4.0797,-4.0814,-4.0859,-4.5969,-4.5969,-4.5969,-4.5969,-4.5969,-4.5969,-4.5969,-4.5969,-4.5969,-4.5969,-4.5969,-4.6,-4.6128,-4.6135,-4.6178,-4.6298,-4.6206,-4.6135,-4.6135,-4.624,-4.63,-4.63,-4.548,-4.4582,-4.3725,-4.2711,-4.1836,-4.11,-4.1106,-4.1108,-4.1108,-4.1108,-4.113,-4.1112,-4.1112,-4.1152,-4.1191,-4.1191,-4.1191,-4.1191,-4.1191,-4.1191,-4.1191,-4.1191,-4.1191,-4.1191,-4.1191,-4.1191,-4.1191,-4.1191,-4.1191,-4.1191,-4.1191,-4.1191,-4.1191,-4.1191,-4.1191,-4.1191,-4.1191,-4.1191,-4.1191,-4.1191,-4.1191,-4.1191,-4.1191,-4.1191,-4.1191,-4.1191,-4.1191,-4.1191,-4.1191,-4.1191,-4.1191,-4.1191,-4.1132,-4.1092,-4.1092,0.0,-4.1104,-4.1099,-4.1098,-4.1095,-4.1109,-4.0973,-4.0953,-4.109,-4.0973,0.0,0.0,-4.1109,-4.1109,-4.1109,-4.1109,-4.1109,-4.1109,-4.1109,-4.1093,-4.1099,-4.1035,-4.1011,-4.1026,-4.1029,-4.102,-4.1009,-4.1009,-4.0986,-4.0977,-4.098,-4.0944,-4.0896,-4.09,-4.0864,-4.0831,-4.0818,-4.0858,-4.093,-4.624,-4.624,-4.624,-4.624,-4.624,-4.624,-4.624,-4.624,-4.624,-4.624,-4.624,-4.6245,-4.6271,-4.6271,-4.6275,-4.63,-4.6275,-4.6271,-4.6271,-4.6298,-4.63,-4.63,-4.548,-4.4584,-4.3713,-4.2118,-4.1242,-4.1106,-4.111,-4.1091,-4.1091,-4.1152,-4.1172,-4.1172,-4.1172,-4.1191,-4.1191,-4.1191,-4.1191,-4.1191,-4.1191,-4.1191,-4.1191,-4.1191,-4.1191,-4.1191,-4.1191,-4.1191,-4.1191,-4.1191,-4.1191,-4.1191,-4.1191,-4.1191,-4.1191,-4.1191,-4.1191,-4.1191,-4.1191,-4.1191,-4.1191,-4.1191,-4.1191,-4.1191,-4.1191,-4.1191,-4.1191,-4.1191,-4.1191,-4.1191,-4.1191,-4.1191,-4.1191,-4.1191,-4.1132,-4.1092,-4.1092,0.0,-4.11,-4.1099,-4.1094,-4.1091,-4.1109,-4.0424,-4.0307,-4.1031,-4.0424,-4.0327,-4.1051,-4.1109,-4.1109,-4.1109,-4.1109,-4.1109,-4.1109,-4.1109,-4.1093,-4.1099,-4.1084,-4.1088,-4.1072,-4.1074,-4.105,-4.0992,-4.0992,-4.0975,-4.0917,-4.0911,-4.0903,-4.0902,-4.0897,-4.0938,-4.096,-4.0919,-4.0922,-4.0974,-4.63,-4.63,-4.63,-4.63,-4.63,-4.63,-4.63,-4.63,-4.63,-4.63,-4.63,-4.63,-4.63,-4.63,-4.6302,-4.6306,-4.6308,-4.6309,-4.6294,-4.6305,-4.6303,-4.6306,-4.5018,-4.3674,-4.2334,-4.1518,-4.111,-4.111,-4.1132,-4.1152,-4.1152,-4.1191,-4.1191,-4.1191,-4.1191,-4.1191,-4.1191,-4.1191,-4.1191,-4.1191,-4.1191,-4.1191,-4.1191,-4.1191,-4.1191,-4.1191,-4.1191,-4.1191,-4.1191,-4.1191,-4.1191,-4.1191,-4.1191,-4.1191,-4.1191,-4.1191,-4.1191,-4.1191,-4.1191,-4.1191,-4.1191,-4.1191,-4.1191,-4.1191,-4.1191,-4.1191,-4.1191,-4.1191,-4.1191,-4.1191,-4.1152,-4.1152,-4.1151,-4.1151,-4.1129,0.0,0.0,-4.1099,-4.1094,-4.1094,-4.1091,-4.0914,-4.0444,-4.0464,-4.0464,-4.0405,-4.0464,-4.0678,-4.109,-4.1109,-4.1109,-4.1109,-4.1109,-4.1109,-4.1109,-4.1109,-4.1091,-4.1094,-4.1097,-4.11,-4.1103,-4.1108,-4.1073,-4.1054,-4.1054,-4.1033,-4.1008,-4.1011,-4.0984,-4.0948,-4.0953,-4.0957,-4.0942,-4.09,-4.094,-4.1017,-4.63,-4.63,-4.63,-4.63,-4.63,-4.63,-4.63,-4.63,-4.6302,-4.6303,-4.6303,-4.6305,-4.6306,-4.6306,-4.6309,-4.6295,-4.6295,-4.6297,-4.6301,-4.6294,-4.6212,-4.6002,-4.4323,-4.2686,-4.1128,-4.1111,-4.1112,-4.1112,-4.1172,-4.1191,-4.1191,-4.1191,-4.1191,-4.1191,-4.1191,-4.1191,-4.1191,-4.1191,-4.1191,-4.1191,-4.1191,-4.1191,-4.1191,-4.1191,-4.1191,-4.1191,-4.1191,-4.1191,-4.1191,-4.1191,-4.1191,-4.1191,-4.1191,-4.1191,-4.1191,-4.1191,-4.1191,-4.1191,-4.1191,-4.1191,-4.1191,-4.1191,-4.1191,-4.1191,-4.1191,-4.1191,-4.1191,-4.1172,-4.1172,-4.1152,-4.1111,-4.1091,-4.109,-4.1108,0.0,0.0,0.0,-4.1094,-4.1109,-4.1109,-4.1109,-4.0836,-4.0171,-4.0522,-4.06,-4.0132,-4.0522,-4.0894,-4.109,-4.1109,-4.1109,-4.1109,-4.1109,-4.1109,-4.1109,-4.1109,-4.1109,-4.1109,-4.1094,-4.1097,-4.1097,-4.1103,-4.1105,-4.1105,-4.1105,-4.1105,-4.1105,-4.1104,-4.1072,-4.1015,-4.1015,-4.099,-4.095,-4.0945,-4.0981,-4.1033,-4.63,-4.63,-4.63,-4.63,-4.63,-4.63,-4.63,-4.63,-4.6303,-4.6291,-4.6293,-4.6295,-4.63,-4.6301,-4.6301,-4.6301,-4.6301,-4.6301,-4.6301,-4.6301,-4.5949,-4.5129,-4.3434,-4.2068,-4.1111,-4.1152,-4.1191,-4.1191,-4.1191,-4.1191,-4.1191,-4.1191,-4.1191,-4.1191,-4.1191,-4.1191,-4.1191,-4.1191,-4.1191,-4.1191,-4.1191,-4.1191,-4.1191,-4.1191,-4.1191,-4.1191,-4.1191,-4.1191,-4.1191,-4.1191,-4.1191,-4.1191,-4.1191,-4.1191,-4.1191,-4.1191,-4.1191,-4.1191,-4.1191,-4.1191,-4.1191,-4.1191,-4.1191,-4.1191,-4.1191,-4.1191,-4.1172,-4.1112,-4.1112,-4.1111,-4.1108,-4.1108,-4.1108,-4.1107,0.0,0.0,-4.1098,-4.1094,-4.1109,-4.1109,-4.1109,-4.107,-4.1012,-4.0327,-4.019,-4.0953,-4.0327,-4.0249,-4.1051,-4.1109,-4.1109,-4.1109,-4.1109,-4.1109,-4.1109,-4.1109,-4.1109,-4.1109,-4.1109,-4.1109,-4.109,-4.1097,-4.1099,-4.1099,-4.1099,-4.1099,-4.1099,-4.1094,-4.1095,-4.1082,-4.1097,-4.1083,-4.109,-4.1087,-4.1087,-4.109,-4.63,-4.63,-4.6302,-4.6308,-4.6308,-4.629,-4.6295,-4.6295,-4.6296,-4.6299,-4.6299,-4.63,-4.6301,-4.6301,-4.6302,-4.6305,-4.6305,-4.6306,-4.6307,-4.578,-4.5096,-4.4235,-4.3046,-4.2011,-4.1172,-4.1191,-4.1191,-4.1191,-4.1191,-4.1191,-4.1191,-4.1191,-4.1191,-4.1191,-4.1191,-4.1191,-4.1191,-4.1191,-4.1191,-4.1191,-4.1191,-4.1191,-4.1191,-4.1191,-4.1191,-4.1191,-4.1191,-4.1191,-4.1191,-4.1191,-4.1191,-4.1191,-4.1152,-4.1132,-4.1132,-4.1131,-4.113,-4.113,-4.113,-4.1171,-4.1191,-4.1152,-4.1132,-4.1132,-4.1131,-4.113,-4.113,-4.1109,-4.1109,-4.1108,-4.1103,-4.1102,-4.1101,-4.1098,0.0,-4.1093,-4.1093,-4.1091,-4.1109,-4.1109,-4.1109,-4.0894,-4.0346,-4.0483,-4.0522,-4.0307,-4.0483,-4.0758,-4.109,-4.1109,-4.1109,-4.1109,-4.1109,-4.1109,-4.1109,-4.1109,-4.1109,-4.1109,-4.1109,-4.1109,-4.1109,-4.1093,-4.1093,-4.1093,-4.1093,-4.1093,-4.1093,-4.109,-4.1091,-4.1093,-4.109,-4.1093,-4.1098,-4.1098,-4.1098,-4.1099,-4.6308,-4.6308,-4.629,-4.6295,-4.6296,-4.6297,-4.6301,-4.6301,-4.6302,-4.6303,-4.6304,-4.6304,-4.6305,-4.6305,-4.6306,-4.6307,-4.6308,-4.6171,-4.5918,-4.4824,-4.3926,-4.3319,-4.248,-4.1758,-4.1211,-4.1191,-4.1191,-4.1191,-4.1191,-4.1191,-4.1191,-4.1191,-4.1191,-4.1191,-4.1191,-4.1191,-4.1191,-4.1191,-4.1191,-4.1191,-4.1191,-4.1191,-4.1191,-4.1191,-4.1191,-4.1172,-4.1191,-4.1171,-4.1148,-4.1148,-4.1148,-4.1128,-4.1085,-4.1063,-4.1061,-4.1028,-4.1003,-4.1003,-4.1003,-4.1031,-4.1081,-4.1109,-4.1091,-4.109,-4.1108,-4.1107,-4.1107,-4.1105,-4.1105,-4.1103,-4.1097,-4.1095,-4.1094,-4.1109,-4.1109,-4.1109,-4.1109,-4.1109,-4.1109,-4.1109,-4.1109,-4.0875,-4.0268,-4.0758,-4.0855,-4.0249,-4.0758,-4.1109,-4.1109,-4.1109,-4.1109,-4.1109,-4.1109,-4.1109,-4.1109,-4.1109,-4.1109,-4.1109,-4.1109,-4.1109,-4.1109,-4.1109,-4.1109,-4.1109,-4.1109,-4.1109,-4.1109,-4.1109,-4.1109,-4.1109,-4.1109,-4.1109,-4.1109,-4.1094,-4.1093,-4.1091,-4.6301,-4.6301,-4.6301,-4.6301,-4.6301,-4.6301,-4.6301,-4.6301,-4.6303,-4.6306,-4.6307,-4.6307,-4.6308,-4.6308,-4.6308,-4.6308,-4.6289,-4.5918,-4.5039,-4.3359,-4.2402,-4.2383,-4.1621,-4.1191,-4.1191,-4.1191,-4.1191,-4.1191,-4.1191,-4.1191,-4.1191,-4.1191,-4.1191,-4.1191,-4.1191,-4.1191,-4.1191,-4.1191,-4.1191,-4.1191,-4.1191,-4.1191,-4.1191,-4.1191,-4.1152,-4.1111,-4.1172,-4.1105,-4.0994,-4.0994,-4.0994,-4.0994,-4.1003,-4.1001,-4.0969,-4.0843,-4.0797,-4.0797,-4.0797,-4.0797,-4.0857,-4.1056,-4.1107,-4.1107,-4.1107,-4.1107,-4.1105,-4.1099,-4.1098,-4.1097,-4.1109,-4.1108,-4.1108,-4.1108,-4.1108,-4.1108,-4.1108,-4.1109,-4.1109,-4.1109,-4.1109,-4.1109,-4.1109,-4.1109,-4.1109,-4.1109,-4.1109,-4.1109,-4.1109,-4.1109,-4.1109,-4.1109,-4.1109,-4.1109,-4.1109,-4.1109,-4.1109,-4.1109,-4.1109,-4.1109,-4.1109,-4.1109,-4.1109,-4.1109,-4.1109,-4.1109,-4.1109,-4.1109,-4.1109,-4.1109,-4.1109,-4.1109,-4.1109,-4.1109,-4.1109,-4.1109,-4.6301,-4.6301,-4.6302,-4.6305,-4.6306,-4.6306,-4.6308,-4.6308,-4.6308,-4.6308,-4.6308,-4.6308,-4.6308,-4.6308,-4.6308,-4.6308,-4.5742,-4.4766,-4.3262,-4.2695,-4.2148,-4.1582,-4.1328,-4.1191,-4.1191,-4.1191,-4.1191,-4.1191,-4.1191,-4.1191,-4.1191,-4.1191,-4.1191,-4.1191,-4.1191,-4.1191,-4.1191,-4.1146,-4.1121,-4.1119,-4.1029,-4.0994,-4.0972,-4.0942,-4.0914,-4.0892,-4.0917,-4.0883,-4.086,-4.086,-4.086,-4.086,-4.0863,-4.0867,-4.0848,-4.0799,-4.079,-4.079,-4.079,-4.079,-4.0812,-4.0877,-4.089,-4.0887,-4.0893,-4.0889,-4.0886,-4.0882,-4.0898,-4.0898,-4.089,-4.089,-4.089,-4.089,-4.089,-4.0928,-4.1014,-4.102,-4.1054,-4.1087,-4.1109,-4.1109,-4.1109,-4.1109,-4.1109,-4.1109,-4.1109,-4.1109,-4.1109,-4.1109,-4.1109,-4.1109,-4.1109,-4.1109,-4.1109,-4.1109,-4.1109,-4.1109,-4.1109,-4.1109,-4.1109,-4.1109,-4.1109,-4.1109,-4.1109,-4.1109,-4.1109,-4.1109,-4.1109,-4.1109,-4.1109,-4.1109,-4.1109,-4.1109,-4.1109,-4.1109,-4.6306,-4.6306,-4.6306,-4.6308,-4.6308,-4.6308,-4.6308,-4.6308,-4.6308,-4.6308,-4.6308,-4.6308,-4.6308,-4.6308,-4.6152,-4.582,-4.4668,-4.3516,-4.2461,-4.2109,-4.1719,-4.1211,-4.117,-4.117,-4.1191,-4.1191,-4.1191,-4.1191,-4.1191,-4.1191,-4.1168,-4.1168,-4.1145,-4.1116,-4.1095,-4.1074,-4.1073,-4.1007,-4.0972,-4.0969,-4.088,-4.0859,-4.0855,-4.0824,-4.0793,-4.0809,-4.0797,-4.0768,-4.0767,-4.0767,-4.0762,-4.0752,-4.0762,-4.0761,-4.0759,-4.069,-4.0678,-4.0678,-4.0678,-4.0678,-4.0684,-4.0682,-4.0738,-4.079,-4.0795,-4.081,-4.081,-4.081,-4.081,-4.081,-4.081,-4.081,-4.081,-4.081,-4.081,-4.0829,-4.0902,-4.0929,-4.0948,-4.097,-4.0975,-4.0975,-4.0975,-4.0975,-4.0975,-4.0975,-4.0975,-4.0975,-4.0975,-4.0975,-4.0975,-4.0975,-4.0975,-4.1005,-4.1064,-4.1066,-4.1074,-4.1109,-4.1109,-4.1109,-4.1109,-4.1109,-4.1109,-4.1109,-4.1109,-4.1109,-4.1109,-4.1109,-4.1109,-4.1109,-4.1109,-4.1109,-4.1109,-4.1109,-4.1109,-4.1109,-4.6308,-4.6308,-4.6308,-4.6308,-4.6308,-4.6308,-4.6308,-4.6308,-4.6308,-4.6308,-4.6308,-4.6308,-4.6308,-4.623,-4.5859,-4.5078,-4.3398,-4.2363,-4.2285,-4.1581,-4.1171,-4.1171,-4.1119,-4.1116,-4.1171,-4.1171,-4.1171,-4.1171,-4.1171,-4.1126,-4.1062,-4.1062,-4.104,-4.0987,-4.0912,-4.0889,-4.0886,-4.0821,-4.0789,-4.0785,-4.0777,-4.0773,-4.0773,-4.0768,-4.0779,-4.0766,-4.0764,-4.0732,-4.068,-4.068,-4.0681,-4.0681,-4.0681,-4.0681,-4.0655,-4.0542,-4.0496,-4.0496,-4.0496,-4.0496,-4.0496,-4.0496,-4.0642,-4.0762,-4.0762,-4.0762,-4.0762,-4.0762,-4.0762,-4.0762,-4.0762,-4.0762,-4.0762,-4.0762,-4.0762,-4.0786,-4.0796,-4.0796,-4.0801,-4.081,-4.081,-4.081,-4.081,-4.081,-4.081,-4.081,-4.081,-4.081,-4.081,-4.081,-4.081,-4.081,-4.081,-4.085,-4.0981,-4.0981,-4.102,-4.1109,-4.1109,-4.1109,-4.1109,-4.1109,-4.1109,-4.1109,-4.1109,-4.1109,-4.1109,-4.1109,-4.1109,-4.1109,-4.1109,-4.1109,-4.1109,-4.1109,-4.1109,-4.1109,-4.6308,-4.6308,-4.6308,-4.6308,-4.6308,-4.6308,-4.6308,-4.6308,-4.6308,-4.6308,-4.6308,-4.6308,-4.6308,-4.5683,-4.5215,-4.5019,-4.3354,-4.2056,-4.1411,-4.117,-4.103,-4.103,-4.0972,-4.0944,-4.0959,-4.0978,-4.0978,-4.0978,-4.0905,-4.0874,-4.0877,-4.0877,-4.0866,-4.0832,-4.0828,-4.0824,-4.0821,-4.0743,-4.0727,-4.0717,-4.0655,-4.0636,-4.0636,-4.0589,-4.0575,-4.0575,-4.0582,-4.0554,-4.0537,-4.0537,-4.0537,-4.0549,-4.0549,-4.0549,-4.0542,-4.0504,-4.0496,-4.0496,-4.0496,-4.0496,-4.0496,-4.0496,-4.053,-4.0581,-4.0581,-4.0581,-4.0581,-4.0581,-4.0581,-4.0581,-4.0581,-4.0581,-4.0581,-4.0581,-4.0581,-4.0596,-4.0705,-4.0717,-4.0732,-4.0781,-4.081,-4.081,-4.081,-4.081,-4.081,-4.081,-4.081,-4.081,-4.081,-4.081,-4.081,-4.081,-4.081,-4.082,-4.0842,-4.0842,-4.0935,-4.1109,-4.1109,-4.1109,-4.1109,-4.1109,-4.1109,-4.1109,-4.1109,-4.1109,-4.1109,-4.1109,-4.1109,-4.1109,-4.1109,-4.1109,-4.1109,-4.1109,-4.1109,-4.1109,-4.6244,-4.6244,-4.6244,-4.6244,-4.6244,-4.6244,-4.6244,-4.6288,-4.6289,-4.6264,-4.6244,-4.6084,-4.5623,-4.5173,-4.4567,-4.3748,-4.244,-4.1486,-4.1033,-4.0964,-4.0938,-4.0909,-4.0843,-4.0794,-4.0794,-4.0771,-4.0796,-4.0855,-4.0824,-4.0777,-4.0752,-4.0752,-4.0747,-4.0696,-4.0699,-4.0693,-4.0707,-4.0629,-4.0591,-4.0604,-4.0564,-4.0546,-4.0539,-4.0504,-4.0496,-4.0496,-4.0496,-4.0496,-4.0496,-4.0496,-4.0496,-4.0496,-4.0496,-4.0496,-4.0496,-4.0496,-4.0496,-4.0496,-4.0496,-4.0496,-4.0496,-4.0496,-4.0496,-4.0496,-4.0496,-4.0496,-4.0496,-4.0496,-4.0496,-4.0496,-4.0496,-4.0496,-4.0508,-4.0503,-4.0503,-4.0516,-4.0598,-4.0605,-4.0621,-4.0655,-4.0667,-4.0667,-4.0667,-4.0667,-4.0667,-4.0667,-4.0667,-4.0667,-4.0667,-4.0667,-4.0667,-4.0667,-4.0667,-4.0697,-4.0754,-4.0754,-4.0815,-4.0961,-4.0961,-4.0961,-4.0961,-4.0961,-4.0995,-4.1057,-4.0972,-4.1013,-4.1108,-4.1068,-4.1072,-4.1109,-4.1109,-4.1109,-4.1109,-4.1109,-4.1109,-4.1109,-4.6173,-4.6173,-4.6173,-4.6173,-4.6173,-4.6173,-4.6173,-4.6237,-4.6242,-4.6197,-4.6056,-4.5653,-4.4861,-4.452,-4.3698,-4.2098,-4.1344,-4.094,-4.0867,-4.0852,-4.0816,-4.0775,-4.0707,-4.067,-4.067,-4.0621,-4.0636,-4.0766,-4.0742,-4.0718,-4.0665,-4.0665,-4.0649,-4.0574,-4.0576,-4.058,-4.0573,-4.0531,-4.0496,-4.0496,-4.0496,-4.0496,-4.0496,-4.0496,-4.0496,-4.0496,-4.0496,-4.0496,-4.0496,-4.0496,-4.0496,-4.0496,-4.0496,-4.0496,-4.0496,-4.0496,-4.0496,-4.0496,-4.0496,-4.0496,-4.0496,-4.0496,-4.0496,-4.0496,-4.0496,-4.0496,-4.0496,-4.0496,-4.0496,-4.0496,-4.0508,-4.05,-4.0503,-4.0482,-4.0474,-4.0474,-4.0474,-4.0474,-4.0482,-4.0484,-4.0473,-4.0473,-4.0473,-4.0473,-4.0473,-4.0473,-4.0473,-4.0473,-4.0473,-4.0473,-4.0473,-4.0473,-4.0473,-4.0534,-4.0642,-4.0642,-4.0681,-4.074,-4.074,-4.0766,-4.081,-4.081,-4.085,-4.0951,-4.0842,-4.0894,-4.1046,-4.1,-4.1014,-4.1078,-4.108,-4.1083,-4.1106,-4.1106,-4.1106,-4.1106,-4.6115,-4.6115,-4.6115,-4.6115,-4.6115,-4.6115,-4.6115,-4.6122,-4.6125,-4.6115,-4.5456,-4.4923,-4.472,-4.3378,-4.2062,-4.1081,-4.0834,-4.0742,-4.0736,-4.066,-4.0636,-4.063,-4.0621,-4.0605,-4.0605,-4.0554,-4.0542,-4.064,-4.0566,-4.0545,-4.0523,-4.0523,-4.0515,-4.0512,-4.0504,-4.0504,-4.0504,-4.0496,-4.0496,-4.0496,-4.0496,-4.0496,-4.0496,-4.0496,-4.0496,-4.0496,-4.0496,-4.0496,-4.0496,-4.0496,-4.0496,-4.0496,-4.0496,-4.0496,-4.0496,-4.0496,-4.0496,-4.0496,-4.0496,-4.0496,-4.0496,-4.0496,-4.0496,-4.0496,-4.0496,-4.0496,-4.0496,-4.0496,-4.0496,-4.05,-4.0499,-4.0491,-4.0474,-4.0424,-4.0415,-4.0415,-4.0415,-4.0415,-4.0405,-4.0405,-4.0405,-4.0405,-4.0405,-4.0405,-4.0405,-4.0405,-4.0405,-4.0405,-4.0405,-4.0405,-4.0405,-4.0405,-4.0405,-4.0422,-4.0447,-4.0447,-4.0455,-4.046,-4.046,-4.0582,-4.081,-4.081,-4.0815,-4.0829,-4.0815,-4.0824,-4.0846,-4.0833,-4.089,-4.1007,-4.1,-4.105,-4.1095,-4.1095,-4.1095,-4.1095,-4.605,-4.605,-4.605,-4.605,-4.605,-4.605,-4.605,-4.6041,-4.5854,-4.5341,-4.4934,-4.4297,-4.3253,-4.2009,-4.11,-4.0726,-4.066,-4.0636,-4.0636,-4.0614,-4.0591,-4.0549,-4.0546,-4.0539,-4.0539,-4.0523,-4.0504,-4.0539,-4.0504,-4.0496,-4.0496,-4.0496,-4.0496,-4.0496,-4.0496,-4.0496,-4.0496,-4.0496,-4.0496,-4.0496,-4.0496,-4.0496,-4.0496,-4.0496,-4.0496,-4.0496,-4.0496,-4.0496,-4.0496,-4.0496,-4.0496,-4.0496,-4.0496,-4.0496,-4.0496,-4.0496,-4.0496,-4.0496,-4.0496,-4.05,-4.0495,-4.0495,-4.0471,-4.0436,-4.0436,-4.0436,-4.0444,-4.0487,-4.0495,-4.0479,-4.0449,-4.0441,-4.0424,-4.0362,-4.0334,-4.0334,-4.0334,-4.0334,-4.0362,-4.0407,-4.0407,-4.0407,-4.0407,-4.0407,-4.0407,-4.0407,-4.0407,-4.0407,-4.0407,-4.0407,-4.0407,-4.0407,-4.0407,-4.0407,-4.0407,-4.0407,-4.0407,-4.0407,-4.0407,-4.0449,-4.0589,-4.061,-4.0636,-4.0628,-4.063,-4.0711,-4.0786,-4.0688,-4.0726,-4.0881,-4.0852,-4.085,-4.0879,-4.0879,-4.0879,-4.0879]},{"header":{"parameterUnit":"m.s-1","parameterCategory":1,"la1":30.6,"la2":28.766,"lo1":-90.7593,"lo2":-88.6598,"dy":0.0162,"dx":0.0183,"nx":116,"ny":114,"refTime":"2023-07-15T12:00:00:Z","depth":0,"parameterNumber":3,"parameterNumberName":"V-component_of_WINDS"},"data":[0.0,0.0,0.0,0.0,0.0,0.0,0.0,0.0,0.0,0.0,0.0,0.0,0.0,0.0,0.0,0.0,0.0,0.0,0.0,0.0,0.0,0.0,0.0,0.0,0.0,0.0,0.0,0.0,0.0,0.0,0.0,0.0,0.0,0.0,0.0,0.0,0.0,0.0,0.0,0.0,0.0,0.0,0.0,0.0,0.0,0.0,0.0,0.0,0.0,0.0,0.0,0.0,0.0,0.0,0.0,0.0,0.0,0.0,0.0,0.0,0.0,0.0,0.0,0.0,0.0,0.0,0.0,0.0,0.0,0.0,0.0,0.0,0.0,0.0,0.0,0.0,0.0,0.0,0.0,0.0,0.0,0.0,0.0,0.0,0.0,0.0,0.0,0.0,0.0,0.0,0.0,0.0,0.0,0.0,0.0,0.0,0.0,0.0,0.0,0.0,0.0,0.0,0.0,0.0,0.0,0.0,0.0,0.0,0.0,0.0,0.0,0.0,0.0,0.0,0.0,0.0,0.0,0.0,0.0,0.0,0.0,0.0,0.0,0.0,0.0,0.0,0.0,0.0,0.0,0.0,0.0,0.0,0.0,0.0,0.0,0.0,0.0,0.0,0.0,0.0,0.0,0.0,0.0,0.0,0.0,0.0,0.0,0.0,0.0,0.0,0.0,0.0,0.0,0.0,0.0,0.0,0.0,0.0,0.0,0.0,0.0,0.0,0.0,0.0,0.0,0.0,0.0,0.0,0.0,0.0,0.0,0.0,0.0,0.0,0.0,0.0,0.0,0.0,0.0,0.0,0.0,0.0,0.0,0.0,0.0,0.0,0.0,0.0,0.0,0.0,0.0,0.0,0.0,0.0,0.0,0.0,0.0,0.0,0.0,0.0,0.0,0.0,0.0,0.0,0.0,0.0,0.0,0.0,0.0,0.0,0.0,0.0,0.0,0.0,0.0,0.0,0.0,0.0,0.0,0.0,0.0,0.0,0.0,0.0,0.0,0.0,0.0,0.0,0.0,0.0,0.0,0.0,0.0,0.0,0.0,0.0,0.0,0.0,0.0,0.0,0.0,0.0,0.0,0.0,0.0,0.0,0.0,0.0,0.0,0.0,0.0,0.0,0.0,0.0,0.0,0.0,0.0,0.0,0.0,0.0,0.0,0.0,0.0,0.0,0.0,0.0,0.0,0.0,0.0,0.0,0.0,0.0,0.0,0.0,0.0,0.0,0.0,0.0,0.0,0.0,0.0,0.0,0.0,0.0,0.0,0.0,0.0,0.0,0.0,0.0,0.0,0.0,0.0,0.0,0.0,0.0,0.0,0.0,0.0,0.0,0.0,0.0,0.0,0.0,0.0,0.0,0.0,0.0,0.0,0.0,0.0,0.0,0.0,0.0,0.0,0.0,0.0,0.0,0.0,0.0,0.0,0.0,0.0,0.0,0.0,0.0,0.0,0.0,0.0,0.0,0.0,0.0,0.0,0.0,0.0,0.0,0.0,0.0,0.0,0.0,0.0,0.0,0.0,0.0,0.0,0.0,0.0,0.0,0.0,0.0,0.0,0.0,0.0,0.0,0.0,0.0,0.0,0.0,0.0,0.0,0.0,0.0,0.0,0.0,0.0,0.0,0.0,0.0,0.0,0.0,0.0,0.0,0.0,0.0,0.0,0.0,0.0,0.0,0.0,0.0,0.0,0.0,0.0,0.0,0.0,0.0,0.0,0.0,0.0,0.0,0.0,0.0,0.0,0.0,0.0,0.0,0.0,0.0,0.0,0.0,0.0,0.0,0.0,0.0,0.0,0.0,0.0,0.0,0.0,0.0,0.0,0.0,0.0,0.0,0.0,0.0,0.0,0.0,0.0,0.0,0.0,0.0,0.0,0.0,0.0,0.0,0.0,0.0,0.0,0.0,0.0,0.0,0.0,0.0,0.0,0.0,0.0,0.0,0.0,0.0,0.0,0.0,0.0,0.0,0.0,0.0,0.0,0.0,0.0,0.0,0.0,0.0,0.0,0.0,0.0,0.0,0.0,0.0,0.0,0.0,0.0,0.0,0.0,0.0,0.0,0.0,0.0,0.0,0.0,0.0,0.0,0.0,0.0,0.0,0.0,0.0,0.0,0.0,0.0,0.0,0.0,0.0,0.0,0.0,0.0,0.0,0.0,0.0,0.0,0.0,0.0,0.0,0.0,0.0,0.0,0.0,0.0,0.0,0.0,0.0,0.0,0.0,0.0,0.0,0.0,0.0,0.0,0.0,0.0,0.0,0.0,0.0,0.0,0.0,0.0,0.0,0.0,0.0,0.0,0.0,0.0,0.0,0.0,0.0,0.0,0.0,0.0,0.0,0.0,0.0,0.0,0.0,0.0,0.0,0.0,0.0,0.0,0.0,0.0,0.0,0.0,0.0,0.0,0.0,0.0,0.0,0.0,0.0,0.0,0.0,0.0,0.0,0.0,0.0,0.0,0.0,0.0,0.0,0.0,0.0,0.0,0.0,0.0,0.0,0.0,0.0,0.0,0.0,0.0,0.0,0.0,0.0,0.0,0.0,0.0,0.0,0.0,0.0,0.0,0.0,0.0,0.0,0.0,0.0,0.0,0.0,0.0,0.0,0.0,0.0,0.0,0.0,0.0,0.0,0.0,0.0,0.0,0.0,0.0,0.0,0.0,0.0,0.0,0.0,0.0,0.0,0.0,0.0,0.0,0.0,0.0,0.0,0.0,0.0,0.0,0.0,0.0,0.0,0.0,0.0,0.0,0.0,0.0,0.0,0.0,0.0,0.0,0.0,0.0,0.0,0.0,0.0,0.0,0.0,0.0,0.0,0.0,0.0,0.0,0.0,0.0,0.0,0.0,0.0,0.0,0.0,0.0,0.0,0.0,0.0,0.0,0.0,0.0,0.0,0.0,0.0,0.0,0.0,0.0,0.0,0.0,0.0,0.0,0.0,0.0,0.0,0.0,0.0,0.0,0.0,0.0,0.0,0.0,0.0,0.0,0.0,0.0,0.0,0.0,0.0,0.0,0.0,0.0,0.0,0.0,0.0,0.0,0.0,0.0,0.0,0.0,0.0,0.0,0.0,0.0,0.0,0.0,0.0,0.0,0.0,0.0,0.0,0.0,0.0,0.0,0.0,0.0,0.0,0.0,0.0,0.0,0.0,0.0,0.0,0.0,0.0,0.0,0.0,0.0,0.0,0.0,0.0,0.0,0.0,0.0,0.0,0.0,0.0,0.0,0.0,0.0,0.0,0.0,0.0,0.0,0.0,0.0,0.0,0.0,0.0,0.0,0.0,0.0,0.0,0.0,0.0,0.0,0.0,0.0,0.0,0.0,0.0,0.0,0.0,0.0,0.0,0.0,0.0,0.0,0.0,0.0,0.0,0.0,0.0,0.0,0.0,0.0,0.0,0.0,0.0,0.0,0.0,0.0,0.0,0.0,0.0,0.0,0.0,0.0,0.0,0.0,0.0,0.0,0.0,0.0,0.0,0.0,0.0,0.0,0.0,0.0,0.0,0.0,0.0,0.0,0.0,0.0,0.0,0.0,0.0,0.0,0.0,0.0,0.0,0.0,0.0,0.0,0.0,0.0,0.0,0.0,0.0,0.0,0.0,0.0,0.0,0.0,0.0,0.0,0.0,0.0,0.0,0.0,0.0,0.0,0.0,0.0,0.0,0.0,0.0,0.0,0.0,0.0,0.0,0.0,0.0,0.0,0.0,0.0,0.0,0.0,0.0,0.0,0.0,0.0,0.0,0.0,0.0,0.0,0.0,0.0,0.0,0.0,0.0,0.0,0.0,0.0,0.0,0.0,0.0,0.0,0.0,0.0,0.0,0.0,0.0,0.0,0.0,0.0,0.0,0.0,0.0,0.0,0.0,0.0,0.0,0.0,0.0,0.0,0.0,0.0,0.0,0.0,0.0,0.0,0.0,0.0,0.0,0.0,0.0,0.0,0.0,0.0,0.0,0.0,0.0,0.0,0.0,0.0,0.0,0.0,0.0,0.0,0.0,0.0,0.0,0.0,0.0,0.0,0.0,0.0,0.0,0.0,0.0,0.0,0.0,0.0,0.0,0.0,0.0,0.0,0.0,0.0,0.0,0.0,0.0,0.0,0.0,0.0,0.0,0.0,0.0,0.0,0.0,0.0,0.0,0.0,0.0,0.0,0.0,0.0,0.0,0.0,0.0,0.0,0.0,0.0,0.0,0.0,0.0,0.0,0.0,0.0,0.0,0.0,0.0,0.0,0.0,0.0,0.0,0.0,0.0,0.0,0.0,0.0,0.0,0.0,0.0,0.0,0.0,0.0,0.0,0.0,0.0,0.0,0.0,0.0,0.0,0.0,0.0,0.0,0.0,0.0,0.0,0.0,0.0,0.0,0.0,0.0,0.0,0.0,0.0,0.0,0.0,0.0,0.0,0.0,0.0,0.0,0.0,0.0,0.0,0.0,0.0,0.0,0.0,0.0,0.0,0.0,0.0,0.0,0.0,0.0,0.0,0.0,0.0,0.0,0.0,0.0,0.0,0.0,0.0,0.0,0.0,0.0,0.0,0.0,0.0,0.0,0.0,0.0,0.0,0.0,0.0,0.0,0.0,0.0,0.0,0.0,0.0,0.0,0.0,0.0,0.0,0.0,0.0,0.0,0.0,0.0,0.0,0.0,0.0,0.0,0.0,0.0,0.0,0.0,0.0,0.0,0.0,0.0,0.0,0.0,0.0,0.0,0.0,0.0,0.0,0.0,0.0,0.0,0.0,0.0,0.0,0.0,0.0,0.0,0.0,0.0,0.0,0.0,0.0,0.0,0.0,0.0,0.0,0.0,0.0,0.0,0.0,0.0,0.0,0.0,0.0,0.0,0.0,0.0,0.0,0.0,0.0,0.0,0.0,0.0,0.0,0.0,0.0,0.0,0.0,0.0,0.0,0.0,0.0,0.0,0.0,0.0,0.0,0.0,0.0,0.0,0.0,0.0,0.0,0.0,0.0,0.0,0.0,0.0,0.0,0.0,0.0,0.0,0.0,0.0,0.0,0.0,0.0,0.0,0.0,0.0,0.0,0.0,0.0,0.0,0.0,0.0,0.0,0.0,0.0,0.0,0.0,0.0,0.0,0.0,0.0,0.0,0.0,0.0,0.0,0.0,0.0,0.0,0.0,0.0,0.0,0.0,0.0,0.0,0.0,0.0,0.0,0.0,0.0,0.0,0.0,0.0,0.0,0.0,0.0,0.0,0.0,0.0,0.0,0.0,0.0,0.0,0.0,0.0,0.0,0.0,0.0,0.0,0.0,0.0,0.0,0.0,0.0,0.0,0.0,0.0,0.0,0.0,0.0,0.0,0.0,0.0,0.0,0.0,0.0,0.0,0.0,0.0,0.0,0.0,0.0,0.0,0.0,0.0,0.0,0.0,0.0,0.0,0.0,0.0,0.0,0.0,0.0,0.0,0.0,0.0,0.0,0.0,0.0,0.0,0.0,0.0,0.0,0.0,0.0,0.0,0.0,0.0,0.0,0.0,0.0,0.0,0.0,0.0,0.0,0.0,0.0,0.0,0.0,0.0,0.0,0.0,0.0,0.0,0.0,0.0,0.0,0.0,0.0,0.0,0.0,0.0,0.0,0.0,0.0,0.0,0.0,0.0,0.0,0.0,0.0,0.0,0.0,0.0,0.0,0.0,0.0,0.0,0.0,0.0,0.0,0.0,0.0,0.0,0.0,0.0,0.0,0.0,0.0,0.0,0.0,0.0,0.0,0.0,0.0,0.0,0.0,0.0,0.0,0.0,0.0,0.0,0.0,0.0,0.0,0.0,0.0,0.0,0.0,0.0,0.0,0.0,0.0,0.0,0.0,0.0,0.0,0.0,0.0,0.0,0.0,0.0,0.0,0.0,0.0,0.0,0.0,0.0,0.0,0.0,0.0,0.0,0.0,0.0,0.0,0.0,0.0,0.0,0.0,0.0,0.0,0.0,0.0,0.0,0.0,0.0,0.0,0.0,0.0,0.0,0.0,0.0,0.0,0.0,0.0,0.0,0.0,0.0,0.0,0.0,0.0,0.0,0.0,0.0,0.0,0.0,0.0,0.0,0.0,0.0,0.0,0.0,0.0,0.0,0.0,0.0,0.0,-1.5288,0.0,0.0,0.0,0.0,0.0,0.0,0.0,0.0,0.0,0.0,0.0,0.0,0.0,0.0,0.0,0.0,0.0,0.0,0.0,0.0,0.0,0.0,0.0,0.0,0.0,0.0,0.0,0.0,0.0,0.0,0.0,0.0,0.0,0.0,0.0,0.0,0.0,0.0,0.0,0.0,0.0,0.0,0.0,0.0,0.0,0.0,0.0,0.0,0.0,0.0,0.0,0.0,0.0,0.0,0.0,0.0,0.0,0.0,0.0,0.0,0.0,0.0,0.0,0.0,0.0,0.0,0.0,0.0,0.0,0.0,0.0,0.0,0.0,0.0,0.0,0.0,0.0,0.0,0.0,0.0,0.0,0.0,0.0,0.0,0.0,0.0,0.0,0.0,0.0,0.0,0.0,0.0,0.0,0.0,0.0,0.0,0.0,0.0,0.0,0.0,0.0,0.0,0.0,0.0,0.0,0.0,0.0,0.0,0.0,0.0,0.0,0.0,0.0,0.0,0.0,0.0,-1.5481,0.0,0.0,0.0,0.0,0.0,0.0,0.0,0.0,0.0,0.0,0.0,0.0,0.0,0.0,0.0,0.0,0.0,0.0,0.0,0.0,0.0,0.0,0.0,0.0,0.0,0.0,0.0,0.0,0.0,0.0,0.0,0.0,0.0,0.0,0.0,0.0,0.0,0.0,0.0,0.0,0.0,0.0,0.0,0.0,0.0,0.0,0.0,0.0,0.0,0.0,0.0,0.0,0.0,0.0,0.0,0.0,0.0,0.0,0.0,0.0,0.0,0.0,0.0,0.0,0.0,0.0,0.0,0.0,0.0,0.0,0.0,0.0,0.0,0.0,0.0,0.0,0.0,0.0,0.0,0.0,0.0,0.0,0.0,0.0,0.0,0.0,0.0,0.0,0.0,0.0,0.0,0.0,0.0,0.0,0.0,0.0,0.0,0.0,0.0,0.0,0.0,0.0,0.0,0.0,0.0,0.0,0.0,0.0,0.0,-1.5891,-1.5891,-1.5891,-1.5891,-1.5891,-1.5891,-1.5998,-1.6211,0.0,0.0,0.0,0.0,0.0,0.0,0.0,0.0,0.0,0.0,0.0,0.0,0.0,0.0,0.0,0.0,0.0,0.0,0.0,0.0,0.0,0.0,0.0,0.0,0.0,0.0,0.0,0.0,0.0,0.0,0.0,0.0,0.0,0.0,0.0,0.0,0.0,0.0,-0.7939,-0.7789,-0.7939,-0.7939,-0.7889,-0.7985,0.0,0.0,0.0,0.0,0.0,0.0,0.0,0.0,0.0,0.0,0.0,0.0,0.0,0.0,0.0,0.0,0.0,0.0,0.0,0.0,0.0,0.0,0.0,0.0,0.0,0.0,0.0,0.0,0.0,0.0,0.0,0.0,0.0,0.0,0.0,0.0,0.0,0.0,0.0,0.0,0.0,0.0,0.0,-1.2621,-1.3976,0.0,0.0,0.0,0.0,0.0,0.0,0.0,0.0,0.0,0.0,0.0,0.0,0.0,0.0,-1.5482,-1.5791,-1.5891,-1.5891,-1.5891,-1.5891,-1.5891,-1.5891,-1.5891,-1.5891,-1.5891,0.0,-1.7371,-1.7371,0.0,0.0,0.0,0.0,0.0,0.0,0.0,0.0,0.0,0.0,0.0,0.0,0.0,0.0,0.0,0.0,0.0,0.0,0.0,0.0,0.0,0.0,0.0,0.0,0.0,0.0,0.0,0.0,0.0,0.0,0.0,0.0,0.0,0.0,0.0,0.0,-0.7988,-0.7988,-0.7988,-0.7988,-0.8088,-0.8233,-0.8187,-0.7932,-0.7627,-0.818,0.0,0.0,0.0,0.0,0.0,0.0,0.0,0.0,0.0,0.0,0.0,0.0,0.0,0.0,0.0,0.0,0.0,0.0,0.0,0.0,0.0,0.0,0.0,0.0,0.0,0.0,0.0,0.0,0.0,0.0,0.0,0.0,0.0,0.0,0.0,0.0,0.0,0.0,0.0,-1.2641,-1.3635,-1.4137,-1.4196,-1.4196,0.0,0.0,0.0,0.0,0.0,0.0,0.0,0.0,0.0,-1.5261,-1.5428,-1.5583,-1.5737,-1.5838,-1.5891,-1.5891,-1.5891,-1.5891,-1.5891,-1.5891,-1.5891,-1.5891,-1.5891,-1.6524,-1.7529,-1.6895,-1.7312,-1.8304,0.0,0.0,0.0,0.0,0.0,-2.0305,0.0,0.0,0.0,0.0,0.0,0.0,0.0,0.0,0.0,0.0,0.0,0.0,0.0,0.0,0.0,-0.6886,0.0,0.0,0.0,0.0,0.0,0.0,0.0,0.0,0.0,0.0,0.0,-0.7988,-0.7988,-0.7988,-0.7988,-0.7988,-0.8088,-0.8283,-0.8088,-0.8237,-0.8726,-0.8775,-0.9027,0.0,0.0,0.0,0.0,0.0,0.0,0.0,0.0,0.0,0.0,0.0,0.0,0.0,0.0,0.0,0.0,0.0,0.0,0.0,0.0,0.0,0.0,0.0,0.0,0.0,0.0,0.0,0.0,0.0,0.0,0.0,0.0,0.0,0.0,0.0,0.0,0.0,0.0,-1.3635,-1.4196,-1.4196,-1.4196,-1.4196,0.0,0.0,0.0,0.0,0.0,0.0,-1.4606,-1.4606,-1.488,-1.5482,-1.5482,-1.5636,-1.5891,-1.5891,-1.5891,-1.5891,-1.5891,-1.5891,-1.5891,-1.6205,-1.6311,-1.6365,-1.6624,-1.7252,-1.7937,-1.6783,-1.7153,-1.8461,-1.8461,-1.9131,-2.0055,-2.0055,-2.0408,-2.1014,0.0,0.0,0.0,0.0,0.0,0.0,0.0,0.0,0.0,0.0,0.0,0.0,0.0,0.0,-0.7988,-0.7939,-0.7939,-0.7939,0.0,0.0,0.0,0.0,0.0,0.0,0.0,0.0,0.0,-0.7988,-0.7988,-0.7988,-0.7988,-0.7988,-0.7988,-0.8041,-0.7988,-0.8137,-0.8432,-0.8676,-0.8825,-0.8874,0.0,0.0,0.0,0.0,0.0,0.0,0.0,0.0,0.0,0.0,0.0,0.0,0.0,0.0,0.0,0.0,0.0,0.0,0.0,0.0,0.0,0.0,0.0,0.0,0.0,0.0,0.0,0.0,0.0,0.0,0.0,0.0,0.0,0.0,0.0,0.0,0.0,0.0,0.0,-1.4196,-1.4196,0.0,0.0,0.0,0.0,-1.4196,-1.4196,-1.4293,-1.4606,-1.4606,-1.488,-1.5482,-1.5482,-1.5636,-1.5891,-1.5891,-1.5891,-1.5891,-1.5891,-1.5891,-1.5945,-1.7001,-1.7529,-1.7582,-1.861,-1.9072,-1.902,-1.7943,-1.8767,-2.0731,-2.0731,-2.1454,-2.2443,-2.2443,-2.2795,-2.3247,0.0,0.0,0.0,0.0,0.0,0.0,0.0,0.0,0.0,0.0,0.0,0.0,0.0,-0.7988,-0.7736,-0.7036,-0.6986,-0.6986,-0.6986,0.0,0.0,0.0,0.0,0.0,0.0,0.0,-0.7988,-0.7988,-0.7988,-0.7988,-0.7988,-0.7988,-0.7988,-0.7988,-0.7988,-0.8038,-0.8137,-0.8432,-0.873,-0.908,-0.9282,-0.943,0.0,0.0,0.0,0.0,0.0,0.0,0.0,0.0,0.0,0.0,0.0,0.0,0.0,0.0,0.0,0.0,0.0,0.0,0.0,0.0,0.0,0.0,0.0,0.0,0.0,0.0,0.0,0.0,0.0,0.0,0.0,0.0,0.0,0.0,0.0,0.0,0.0,-1.4196,-1.4196,0.0,-1.4196,-1.4196,-1.4196,-1.4196,-1.4196,-1.4293,-1.4606,-1.4606,-1.4953,-1.5722,-1.5783,-1.5969,-1.641,-1.641,-1.641,-1.641,-1.641,-1.641,-1.641,-1.6851,-1.7009,-1.7015,-1.7441,-1.8021,-1.8705,-1.834,-1.9223,-2.0885,-2.0885,-2.1607,-2.2594,-2.2594,-2.2846,-2.3147,0.0,0.0,0.0,0.0,0.0,0.0,0.0,0.0,0.0,0.0,0.0,-0.7988,-0.7988,-0.7988,-0.769,-0.6986,-0.6936,-0.6936,-0.6936,0.0,0.0,0.0,0.0,0.0,0.0,-0.7988,-0.7988,-0.7988,-0.7988,-0.7988,-0.7988,-0.7988,-0.7988,-0.7988,-0.7988,-0.7988,-0.8041,-0.8283,-0.8581,-0.8935,-0.9133,-0.9282,-0.948,0.0,0.0,0.0,0.0,0.0,0.0,0.0,0.0,0.0,0.0,0.0,0.0,0.0,0.0,0.0,0.0,0.0,0.0,0.0,0.0,0.0,0.0,0.0,0.0,0.0,0.0,0.0,0.0,0.0,0.0,0.0,0.0,0.0,0.0,0.0,-1.4196,-1.4196,-1.4196,-1.4196,-1.4196,-1.4196,-1.4223,-1.4304,-1.4309,-1.4391,-1.4686,-1.4686,-1.5037,-1.571,-1.5821,-1.6069,-1.6526,-1.6644,-1.67,-1.67,-1.67,-1.67,-1.67,-1.7086,-1.7526,-1.7903,-1.8284,-1.9092,-2.0226,-2.0226,-2.0887,-2.1805,-2.1322,-2.1722,-2.2594,-2.2594,-2.2745,-2.3046,0.0,0.0,0.0,0.0,0.0,0.0,0.0,0.0,0.0,0.0,-0.7988,-0.7988,-0.7988,-0.7988,-0.7988,-0.7988,-0.7988,-0.7988,-0.7988,-0.7988,0.0,0.0,0.0,0.0,-0.7988,-0.7988,-0.7988,-0.7988,-0.7988,-0.7988,-0.7988,-0.7988,-0.7988,-0.7988,-0.7988,-0.7988,-0.8041,-0.8283,-0.8382,-0.8432,-0.8985,-0.9187,-0.9236,0.0,0.0,0.0,0.0,0.0,0.0,0.0,0.0,0.0,0.0,0.0,0.0,0.0,0.0,0.0,0.0,0.0,0.0,0.0,0.0,0.0,0.0,0.0,0.0,0.0,0.0,0.0,0.0,0.0,0.0,0.0,0.0,0.0,-1.4196,-1.4196,-1.4196,-1.4196,-1.4196,-1.4196,-1.4207,-1.4207,-1.4299,-1.4475,-1.4491,-1.4643,-1.4875,-1.4885,-1.5055,-1.5292,-1.5626,-1.5964,-1.6201,-1.655,-1.6724,-1.6724,-1.6724,-1.6724,-1.678,-1.7873,-1.9023,-2.0176,-2.1256,-2.244,-2.3646,-2.3646,-2.3691,-2.3587,-2.2103,-2.202,-2.2628,-2.2628,-2.278,-2.3064,0.0,0.0,0.0,0.0,0.0,0.0,0.0,0.0,0.0,0.0,-0.7892,-0.7988,-0.7988,-0.7988,-0.7988,-0.7988,-0.7988,-0.7988,-0.7988,0.0,0.0,0.0,0.0,0.0,-0.7988,-0.7988,-0.7988,-0.7988,-0.7988,-0.7988,-0.7988,-0.7988,-0.7988,-0.7988,-0.7988,-0.7988,-0.8041,-0.8283,-0.8382,-0.8432,-0.8779,-0.9031,-0.9187,0.0,0.0,0.0,0.0,0.0,0.0,0.0,0.0,0.0,0.0,0.0,0.0,0.0,0.0,0.0,0.0,0.0,0.0,0.0,0.0,0.0,0.0,0.0,0.0,0.0,0.0,0.0,0.0,0.0,0.0,0.0,0.0,-1.4196,-1.4196,-1.4196,-1.4196,-1.4196,-1.4196,-1.4261,-1.4422,-1.4444,-1.4536,-1.4772,-1.4789,-1.4815,-1.488,-1.4885,-1.5131,-1.5593,-1.5891,-1.6327,-1.6803,-1.7093,-1.7267,-1.7267,-1.7267,-1.7267,-1.7267,-1.7609,-1.7949,-1.8288,-1.9478,-2.0705,-2.1877,-2.2791,-2.3543,-2.398,-2.3339,-2.3233,-2.3409,-2.3409,-2.3238,-2.3108,0.0,0.0,0.0,0.0,0.0,0.0,0.0,0.0,0.0,0.0,-0.7892,-0.7988,-0.7988,-0.7988,-0.7988,-0.7988,-0.7988,-0.7988,-0.7988,0.0,0.0,0.0,0.0,-0.7988,-0.7988,-0.7988,-0.7988,-0.7988,-0.7988,-0.7988,-0.7988,-0.7988,-0.7988,-0.7988,-0.7988,-0.7988,-0.8041,-0.8283,-0.8382,-0.8432,-0.8676,-0.8977,-0.9236,-0.9335,-0.948,-0.9579,-0.9579,-0.9579,-0.9579,-0.9579,0.0,0.0,0.0,0.0,0.0,0.0,0.0,0.0,0.0,0.0,0.0,0.0,0.0,0.0,0.0,0.0,0.0,0.0,0.0,0.0,0.0,0.0,0.0,0.0,-1.3832,-1.4336,-1.4336,-1.4256,-1.4229,-1.4326,-1.4336,-1.4428,-1.4659,-1.4681,-1.4783,-1.502,-1.5036,-1.5079,-1.5176,-1.5182,-1.5362,-1.5673,-1.5982,-1.6347,-1.6779,-1.7132,-1.7367,-1.7485,-1.7485,-1.7485,-1.7485,-1.7485,-1.7772,0.0,-1.8978,-2.0286,-2.1934,-2.2685,-2.3597,0.0,0.0,0.0,0.0,0.0,-2.3528,-2.3392,0.0,0.0,0.0,0.0,0.0,0.0,0.0,0.0,0.0,0.0,0.0,-0.7988,-0.7988,-0.7988,-0.7988,-0.7988,-0.7988,-0.7988,0.0,0.0,0.0,-0.7988,-0.7988,-0.7988,-0.7988,-0.7988,-0.7988,-0.7988,-0.7988,-0.7988,-0.7988,-0.7988,-0.7988,-0.7988,-0.7988,-0.7988,-0.8041,-0.8283,-0.8382,-0.8432,-0.8676,-0.8977,-0.9232,-0.948,-0.9579,-0.9579,-0.9579,-0.9579,-0.9579,-0.9579,0.0,0.0,0.0,0.0,0.0,0.0,0.0,0.0,0.0,0.0,0.0,0.0,0.0,0.0,0.0,0.0,0.0,0.0,0.0,0.0,0.0,0.0,0.0,0.0,-1.4368,-1.4579,-1.4579,-1.4401,-1.4347,-1.4496,-1.4579,-1.4665,-1.4902,-1.4923,-1.5025,-1.5215,-1.5231,-1.5322,-1.5585,0.0,0.0,0.0,0.0,-1.6259,-1.6478,-1.6838,-1.7197,-1.7485,-1.7485,-1.7485,-1.7485,-1.7485,-1.8058,-1.9094,-1.9267,-2.0522,-2.258,-2.2862,-2.372,-2.4787,-2.4436,-2.4093,-2.3847,-2.3847,-2.3821,0.0,0.0,0.0,0.0,0.0,0.0,0.0,0.0,0.0,0.0,-0.7988,-0.7988,-0.7988,-0.7988,-0.7988,-0.7988,-0.7988,-0.7988,-0.7988,0.0,0.0,-0.7988,-0.7988,-0.7988,-0.7988,-0.7988,-0.7988,-0.7988,-0.7988,-0.7988,-0.7988,-0.7988,-0.7988,-0.7988,-0.7988,-0.7988,-0.7988,-0.8041,-0.8283,-0.8382,-0.8432,-0.8676,-0.8977,-0.9187,-0.9236,-0.943,-0.9579,-0.9579,-0.9579,-0.9579,-0.9579,-0.9579,-0.9579,-0.9579,0.0,0.0,0.0,0.0,0.0,0.0,0.0,0.0,0.0,0.0,0.0,0.0,0.0,0.0,0.0,0.0,0.0,0.0,0.0,0.0,-1.3749,-1.438,-1.4815,-1.4815,-1.4778,-1.4767,-1.481,-1.4815,-1.4912,-1.5097,-1.5124,-1.5278,-1.5515,-1.5531,-1.5553,-1.5596,-1.5601,0.0,-1.5601,-1.5903,-1.6259,-1.6478,-1.6838,-1.7197,-1.7485,0.0,0.0,-1.7485,-1.7485,-1.7655,-1.7883,-1.8861,-1.955,-2.0185,-2.2176,-2.372,-2.4812,-2.4735,-2.4658,-2.4598,-2.4598,-2.4393,-2.4119,0.0,0.0,0.0,0.0,0.0,0.0,0.0,0.0,0.0,0.0,-0.7988,-0.7988,-0.7988,-0.7988,-0.7988,-0.7988,-0.7988,0.0,0.0,-0.7988,-0.7988,-0.7988,-0.7988,-0.7988,-0.7988,-0.7988,-0.7988,-0.7988,-0.7988,-0.7988,-0.7988,-0.7988,-0.7988,-0.7988,-0.7988,-0.7988,-0.7988,-0.8137,-0.8283,-0.8432,-0.8528,-0.8832,-0.9187,-0.9187,-0.9381,-0.9579,-0.9579,-0.9579,-0.9579,-0.9579,-0.9579,-0.9579,-0.9579,-0.9579,-0.9579,0.0,0.0,0.0,0.0,0.0,0.0,0.0,0.0,0.0,0.0,0.0,0.0,0.0,0.0,-1.2524,0.0,0.0,-1.3846,-1.4239,-1.4737,-1.5068,-1.5068,-1.5171,-1.5198,-1.5079,-1.5068,-1.516,-1.5402,-1.5424,-1.5472,-1.5591,-1.5601,-1.5601,-1.5601,-1.5601,-1.5601,-1.5601,-1.5779,-1.6016,-1.6312,-1.6602,-1.6897,-1.7256,-1.7426,-1.7485,-1.7485,-1.7485,-1.7485,-1.7543,-1.8117,-1.8752,-1.9492,-2.2006,-2.372,-2.4821,-2.4821,-2.4821,-2.4821,-2.4821,-2.4701,-2.453,0.0,0.0,0.0,0.0,0.0,0.0,0.0,0.0,0.0,0.0,-0.8038,-0.8038,-0.7988,-0.7988,-0.7988,0.0,0.0,0.0,0.0,-0.769,-0.769,-0.769,-0.7889,-0.7988,-0.7988,-0.7988,-0.8038,-0.8088,-0.8088,-0.8088,-0.8137,-0.8088,-0.8088,-0.8088,-0.8038,-0.7988,-0.7988,-0.7988,-0.8137,-0.8333,-0.8333,-0.8634,-0.9133,-0.9133,-0.9331,-0.9579,-0.9579,-0.9579,-0.9579,-0.9579,-0.9579,-0.9579,-0.9579,-0.9579,-0.9579,-0.9579,-0.9579,0.0,0.0,0.0,0.0,0.0,0.0,0.0,0.0,0.0,-1.1787,-1.1896,-1.2419,-1.3043,-1.3719,-1.3938,-1.4224,-1.4866,-1.516,-1.5258,-1.5258,-1.5478,-1.5531,-1.5285,-1.5258,-1.5333,-1.558,-1.5601,-1.5601,-1.5601,-1.5601,-1.5601,-1.5601,-1.5601,-1.5601,-1.5601,-1.5601,-1.5779,-1.6087,-1.6307,-1.6602,-1.7026,-1.725,-1.7426,-1.7485,-1.7485,-1.7485,-1.7485,-1.7485,-1.8169,-1.9435,-2.1437,-2.3151,-2.4479,-2.4479,-2.459,-2.4821,-2.4821,-2.4821,-2.4821,0.0,0.0,0.0,0.0,0.0,0.0,0.0,0.0,0.0,0.0,0.0,0.0,0.0,0.0,0.0,0.0,0.0,0.0,-0.6587,-0.6587,-0.6587,-0.6587,-0.7487,-0.7988,-0.7988,-0.7988,-0.8137,-0.8333,-0.8333,-0.8482,-0.8726,-0.8482,-0.8333,-0.8333,-0.8088,-0.7988,-0.7988,-0.7988,-0.8041,-0.8038,-0.8038,-0.8382,-0.8825,-0.8825,-0.9175,-0.9579,-0.9579,-0.9579,-0.9579,-0.9579,-0.9579,-0.9579,-0.9579,-0.9579,-0.9579,-0.9579,0.0,-0.9665,-0.9839,-1.014,-1.0452,-1.0643,-1.0692,-1.0857,0.0,0.0,-1.2441,-1.2989,-1.3746,-1.4282,-1.4364,-1.4767,-1.5066,-1.5145,-1.5408,-1.5564,-1.5564,-1.558,-1.5591,-1.5564,-1.5564,-1.5569,-1.5596,-1.5601,-1.5601,-1.5601,-1.5601,-1.5601,-1.5601,-1.5601,-1.5601,-1.5601,-1.5601,-1.5779,-1.6087,-1.6146,-1.6436,-1.7026,-1.702,-1.7197,-1.7485,-1.7485,-1.7485,-1.7485,-1.7485,-1.8169,-1.9325,-1.9608,-2.1095,-2.3207,-2.3207,-2.384,-2.4821,-2.4821,-2.4821,-2.4821,0.0,0.0,0.0,0.0,0.0,0.0,0.0,0.0,0.0,0.0,0.0,0.0,0.0,0.0,0.0,0.0,0.0,0.0,-0.6387,-0.5832,-0.5479,-0.5479,-0.6484,-0.7089,-0.7089,-0.769,-0.7889,-0.7686,-0.8184,-0.8283,-0.8127,-0.8478,-0.8627,-0.8627,-0.8531,-0.8482,-0.8482,-0.8482,-0.8482,-0.8482,-0.8482,-0.868,-0.9031,-0.9031,-0.9278,-0.9579,-0.9579,-0.9278,0.0,0.0,-0.9579,-0.9579,-0.9579,-0.9579,-0.9579,-0.9579,-0.9579,0.0,-0.9969,-1.016,-1.0343,0.0,-1.0692,-1.0747,-1.1021,-1.1782,-1.2529,-1.2922,-1.3799,-1.4566,-1.4845,-1.5059,-1.5236,0.0,-1.5537,-1.5601,-1.5601,-1.5601,-1.5601,-1.5601,-1.5601,-1.5601,-1.5601,-1.5601,-1.5601,-1.5601,-1.5601,-1.5601,-1.5601,-1.5725,-1.5801,-1.5801,-1.5941,-1.6077,-1.6204,-1.6381,-1.6619,-1.6861,-1.7285,-1.7527,-1.7696,-1.7721,-1.7624,-1.7485,-1.7485,-1.8169,-1.9325,-1.9325,-2.0752,-2.2974,-2.2974,-2.3728,-2.4821,-2.4821,-2.4821,-2.4821,0.0,0.0,0.0,0.0,0.0,0.0,0.0,0.0,0.0,0.0,0.0,0.0,0.0,0.0,0.0,0.0,0.0,0.0,0.0,-0.5027,-0.4626,-0.4776,-0.5832,-0.6387,-0.6387,-0.7388,-0.7736,-0.7437,-0.8233,-0.8482,-0.818,-0.868,-0.8928,-0.8928,-0.8825,-0.8825,-0.8825,-0.8825,-0.8825,-0.8825,-0.8825,-0.8977,-0.9183,-0.8935,-0.9034,-0.9278,-0.9529,-0.9229,0.0,0.0,-0.9579,-0.9579,-0.9579,-0.9579,-0.9579,-0.9579,-0.9661,-0.9754,-1.0014,-1.016,-1.0298,-1.0558,-1.066,-1.0747,-1.0911,-1.1772,-1.2624,-1.2993,-1.3907,-1.4781,-1.5129,-1.5247,-1.5344,-1.5575,-1.5601,-1.5601,-1.5601,-1.5601,-1.5601,-1.5601,-1.5601,-1.5601,-1.5601,-1.5601,-1.5601,-1.5601,-1.5601,-1.5628,-1.5693,-1.5915,-1.6039,-1.6109,-1.6221,-1.6312,-1.6312,-1.6555,-1.6735,-1.6797,-1.7291,-1.7599,-1.7778,-1.7955,-1.7841,-1.7587,-1.7587,-1.8068,-1.8803,-1.8803,-2.0235,-2.2459,-2.2459,-2.344,-2.4821,-2.4821,-2.4821,-2.4821,0.0,0.0,0.0,0.0,0.0,0.0,0.0,0.0,0.0,0.0,0.0,0.0,0.0,0.0,0.0,0.0,0.0,0.0,0.0,-0.4024,-0.4277,-0.4784,-0.5834,-0.6387,-0.6387,-0.7182,-0.7733,-0.7988,-0.8786,-0.9282,-0.9529,-0.9282,-0.9187,-0.9183,-0.8928,-0.8825,-0.8825,-0.8825,-0.8825,-0.8825,-0.8825,-0.8977,-0.9133,-0.8336,-0.8187,-0.8531,-0.9327,0.0,0.0,0.0,-0.9579,-0.9579,-0.9579,-0.9579,0.0,-0.9579,-0.9746,-0.988,-0.9892,-1.0152,-1.0375,-1.0387,-1.0566,-1.0857,-1.1459,-1.2206,-1.2961,-1.3527,-1.4504,-1.5177,-1.5188,-1.5435,-1.5591,-1.5601,-1.5601,-1.5601,-1.5601,-1.5601,-1.5601,-1.5601,-1.5601,-1.5601,0.0,-1.5601,-1.5601,-1.5601,-1.5601,-1.5698,-1.5985,-1.6007,-1.612,-1.6296,-1.6312,-1.6312,-1.6312,-1.6317,-1.6498,-1.6797,-1.6797,-1.7168,-1.7784,-1.8153,-1.8131,-1.7859,-1.7859,-1.7774,-1.7537,-1.7537,-1.8971,-2.1187,-2.1187,-2.262,-2.4821,-2.4821,-2.4821,-2.4821,0.0,0.0,0.0,0.0,0.0,0.0,0.0,0.0,0.0,0.0,0.0,0.0,0.0,0.0,0.0,0.0,0.0,0.0,0.0,-0.388,-0.353,-0.3732,-0.4784,-0.5334,-0.5334,-0.6284,-0.6684,-0.6387,-0.7232,-0.7481,-0.7238,-0.7686,-0.7885,-0.7885,-0.7783,-0.7733,-0.7733,-0.7733,-0.7733,-0.7733,-0.7733,-0.7786,-0.7836,-0.7587,-0.7537,-0.7637,0.0,0.0,0.0,0.0,-0.9229,-0.8882,-0.943,-0.9229,-0.895,-0.9612,-0.9839,-0.9937,-1.0184,-1.0286,-1.0411,-1.0578,-1.0975,-1.1384,-1.1722,-1.2641,-1.3557,-1.4085,-1.473,-1.5236,-1.5456,-1.5548,-1.5601,-1.5601,-1.5601,-1.5601,-1.5601,-1.5601,-1.5601,-1.5601,-1.5601,0.0,0.0,0.0,0.0,-1.5601,-1.5741,-1.5926,-1.6007,-1.6309,-1.652,-1.6544,-1.6689,-1.677,-1.677,-1.677,-1.6833,-1.6956,-1.7401,-1.776,-1.8099,-1.8422,-1.8402,-1.8143,-1.7956,-1.7823,-1.7726,-1.7551,-1.8906,-2.1123,-2.1123,-2.2628,-2.4821,-2.4821,-2.4821,-2.4821,0.0,0.0,0.0,0.0,0.0,0.0,0.0,0.0,0.0,0.0,0.0,0.0,0.0,0.0,0.0,0.0,0.0,0.0,0.0,0.0,-0.3581,-0.3783,-0.4435,-0.4784,-0.4784,-0.5737,-0.6089,-0.5737,-0.6534,-0.6783,-0.6442,-0.6939,-0.7188,-0.7188,-0.7188,-0.7188,-0.7188,-0.7188,-0.7188,-0.7188,-0.7188,-0.7188,-0.7188,-0.6889,-0.6939,0.0,0.0,0.0,0.0,0.0,-0.8832,-0.8531,-0.9327,-0.9271,-0.9083,-0.97,-0.9977,-1.0119,-1.029,-1.0428,-1.0538,-1.0586,-1.1131,-1.1755,-1.1875,-1.2974,-1.4024,-1.4313,-1.4903,-1.5424,-1.5569,-1.5601,-1.5601,-1.5601,-1.5601,-1.5601,-1.5601,-1.5601,-1.5601,-1.5601,-1.5601,-1.5601,0.0,0.0,0.0,-1.5601,-1.5877,-1.605,-1.6075,-1.6452,-1.67,-1.678,-1.6926,-1.7001,-1.7001,-1.7001,-1.7001,-1.7007,-1.7588,-1.7953,-1.8111,-1.8502,-1.856,-1.8426,-1.8245,-1.8052,-1.7859,-1.769,-1.9004,-2.1123,-2.1123,-2.2628,-2.4821,-2.4821,-2.4821,-2.4821,0.0,0.0,0.0,0.0,0.0,0.0,0.0,0.0,0.0,0.0,0.0,0.0,0.0,0.0,0.0,0.0,0.0,0.0,0.0,0.0,0.0,-0.4784,-0.4784,-0.4784,-0.4784,-0.5539,-0.5942,-0.5942,-0.6689,-0.7089,-0.7089,-0.7089,-0.7086,-0.7138,-0.7086,-0.7086,-0.7138,-0.7086,-0.7089,-0.7089,-0.7089,-0.7089,-0.6989,-0.6242,0.0,0.0,0.0,0.0,0.0,0.0,-0.8432,-0.8581,-0.9327,-0.9688,-0.9876,-0.9892,-1.0148,-1.0387,-1.0286,-1.0436,-1.0655,-1.0501,-1.1202,-1.1961,-1.1984,-1.3255,-1.4432,-1.4448,-1.5087,-1.5601,0.0,0.0,-1.5601,-1.5601,-1.5601,-1.5601,-1.5601,-1.5601,-1.5601,0.0,0.0,0.0,0.0,0.0,0.0,-1.5601,0.0,-1.6131,-1.6301,-1.6549,-1.678,-1.6996,-1.7001,-1.7001,-1.7001,-1.7001,-1.7001,-1.7001,-1.7335,-1.7658,-1.7975,-1.8437,-1.8627,-1.8704,-1.8692,-1.8384,-1.7895,-1.7883,-1.9109,-2.1016,-2.1016,-2.2515,-2.471,-2.471,-2.4765,-2.4821,0.0,0.0,0.0,0.0,0.0,0.0,0.0,0.0,0.0,0.0,0.0,0.0,0.0,0.0,0.0,0.0,0.0,0.0,0.0,0.0,0.0,0.0,0.0,0.0,0.0,0.0,0.0,0.0,-0.5336,-0.5434,-0.5434,-0.5434,-0.5737,-0.6289,-0.5687,-0.5737,-0.6289,-0.5687,-0.5434,-0.5434,0.0,-0.5434,-0.5386,0.0,0.0,0.0,0.0,0.0,0.0,0.0,0.0,0.0,-0.8832,-0.9157,-0.9746,-1.0065,-1.0156,-1.0282,-1.0497,-1.0623,-1.0716,-1.081,-1.1728,-1.2655,-1.2963,-1.4051,-1.5067,-1.5237,-1.544,-1.5601,0.0,0.0,0.0,-1.5601,-1.5601,0.0,-1.5601,-1.5601,0.0,-1.5601,0.0,-1.5601,-1.5601,-1.5601,0.0,0.0,-1.5984,-1.6247,-1.6312,-1.67,-1.6942,-1.7001,-1.7001,-1.7001,-1.7001,-1.7001,-1.7001,-1.7001,-1.7335,-1.7529,-1.7658,-1.8314,-1.86,-1.8651,-1.8707,-1.8499,-1.8173,-1.7962,-1.865,-1.9774,-1.9774,-2.1259,-2.344,-2.344,-2.4016,-2.4821,0.0,0.0,0.0,0.0,0.0,0.0,0.0,0.0,0.0,0.0,0.0,0.0,0.0,0.0,0.0,0.0,0.0,0.0,0.0,0.0,0.0,0.0,0.0,0.0,0.0,0.0,0.0,0.0,0.0,0.0,-0.4784,-0.4784,-0.5035,-0.5438,-0.4985,-0.5035,-0.5438,-0.4985,0.0,0.0,0.0,0.0,0.0,0.0,0.0,0.0,0.0,0.0,0.0,0.0,0.0,-0.9377,-0.8233,-0.8728,-0.9795,-1.0131,0.0,-1.0343,-1.0619,-1.0911,-1.1101,-1.1266,-1.2238,-1.3282,-1.3614,-1.4472,-1.5258,-1.5548,-1.5601,0.0,-1.5601,0.0,0.0,0.0,0.0,0.0,-1.5601,-1.5601,-1.5601,0.0,-1.5601,0.0,-1.5601,-1.5601,-1.5601,0.0,-1.6043,-1.6312,-1.6312,-1.6754,-1.7001,-1.7001,-1.7001,-1.7001,-1.7001,-1.7001,-1.7001,-1.7001,-1.7201,-1.7335,-1.7535,-1.7922,-1.8179,-1.8361,0.0,-1.8456,-1.8091,-1.8058,-1.8533,-1.9325,-1.9325,-2.0458,-2.2168,-2.2168,-2.2974,-2.4016,0.0,0.0,0.0,0.0,0.0,0.0,0.0,0.0,0.0,0.0,0.0,0.0,0.0,0.0,0.0,0.0,0.0,0.0,0.0,0.0,0.0,0.0,0.0,0.0,0.0,0.0,0.0,0.0,0.0,0.0,0.0,0.0,0.0,0.0,0.0,0.0,0.0,0.0,0.0,0.0,0.0,0.0,0.0,0.0,0.0,0.0,0.0,0.0,0.0,0.0,-0.7733,-0.9377,-0.7982,-0.8618,-0.9939,-1.0306,-1.0485,-1.0654,-1.0858,-1.1295,-1.1682,-1.1763,-1.2726,-1.3755,-1.3917,-1.4609,-1.5253,-1.551,0.0,-1.5601,-1.5601,-1.5575,-1.5564,-1.5591,0.0,-1.5564,-1.5591,-1.5601,-1.5601,-1.5601,-1.5601,-1.5601,-1.5601,-1.5601,-1.5601,-1.5601,-1.6016,-1.628,-1.6312,-1.6754,-1.7001,-1.7001,-1.7001,-1.7001,-1.7001,-1.7001,-1.7001,-1.7001,-1.7001,-1.7136,-1.7464,-1.7464,-1.7658,-1.7975,0.0,0.0,-1.7893,-1.8115,-1.8582,-1.9088,-1.9107,-1.9774,-2.0902,-2.1016,-2.1934,-2.303,0.0,0.0,0.0,0.0,0.0,0.0,0.0,0.0,0.0,0.0,-0.4937,0.0,0.0,0.0,0.0,0.0,0.0,0.0,0.0,0.0,0.0,0.0,0.0,0.0,0.0,0.0,0.0,0.0,0.0,0.0,0.0,0.0,0.0,0.0,0.0,0.0,0.0,0.0,0.0,0.0,0.0,0.0,0.0,0.0,0.0,0.0,0.0,0.0,0.0,0.0,-0.7279,-0.9562,-0.9262,-0.9381,-0.9921,-1.114,-1.1534,-1.164,-1.2013,-1.2164,-1.2315,-1.2478,-1.3109,-1.376,-1.387,-1.4557,0.0,0.0,-1.5467,-1.5601,-1.5601,-1.544,-1.5317,-1.5569,0.0,0.0,0.0,0.0,-1.5601,0.0,0.0,0.0,0.0,0.0,0.0,0.0,0.0,0.0,-1.6301,-1.6754,-1.7001,-1.7001,-1.7001,-1.7001,-1.7001,-1.7001,-1.7001,-1.7001,-1.7001,-1.7001,-1.7071,-1.74,-1.7535,-1.7594,0.0,0.0,-1.8146,-1.7934,-1.7967,-1.8132,-1.7917,-1.8571,-1.9717,-2.073,-2.1934,-2.3151,0.0,0.0,0.0,0.0,0.0,0.0,0.0,0.0,0.0,0.0,-0.524,-0.4937,0.0,0.0,0.0,0.0,0.0,0.0,0.0,0.0,0.0,0.0,0.0,0.0,0.0,0.0,0.0,0.0,0.0,0.0,0.0,0.0,0.0,0.0,0.0,0.0,0.0,0.0,0.0,0.0,0.0,0.0,0.0,0.0,0.0,0.0,0.0,0.0,0.0,0.0,-0.6927,-0.8814,-0.8913,-0.9258,-0.978,-1.0664,-1.1351,-1.1751,-1.1567,-1.2169,-1.29,-1.3003,-1.3472,-1.3978,-1.4146,0.0,0.0,0.0,-1.5435,-1.5601,-1.5601,-1.5505,0.0,-1.558,-1.5505,0.0,0.0,0.0,0.0,0.0,0.0,0.0,0.0,0.0,0.0,0.0,0.0,0.0,-1.6301,-1.6754,-1.7001,-1.7001,-1.7001,-1.7001,-1.7001,-1.7001,-1.7001,-1.7001,-1.7001,-1.7001,-1.7007,-1.7136,-1.7265,-1.7271,-1.7594,0.0,-1.7651,-1.7766,-1.7753,-1.7613,-1.7528,-1.7824,-1.8402,-1.9029,-1.9998,-2.1152,0.0,0.0,0.0,0.0,0.0,0.0,0.0,-0.6239,-0.6039,-0.5992,-0.5641,-0.529,-0.4985,-0.4885,-0.4784,0.0,0.0,0.0,0.0,0.0,0.0,0.0,0.0,0.0,0.0,0.0,0.0,0.0,0.0,0.0,0.0,0.0,0.0,0.0,0.0,0.0,0.0,0.0,0.0,0.0,0.0,0.0,0.0,0.0,0.0,0.0,0.0,0.0,0.0,0.0,-0.6581,-0.7726,-0.8166,-0.8913,-0.9731,-1.0304,-1.1295,-1.2068,-1.1571,-1.2441,-1.3483,-1.3483,-1.3867,-1.4245,-1.4422,-1.4643,0.0,-1.5065,-1.5359,-1.5542,-1.5591,-1.5558,-1.5521,0.0,-1.5521,-1.5521,0.0,0.0,0.0,0.0,0.0,0.0,0.0,0.0,0.0,0.0,0.0,0.0,0.0,-1.6737,-1.6953,-1.7001,-1.7001,-1.7001,-1.7001,-1.7001,-1.7001,-1.7001,-1.7001,-1.7001,-1.7001,-1.7001,-1.7001,-1.7007,-1.7265,0.0,0.0,-1.7456,-1.7448,-1.7313,-1.7351,-1.7367,-1.7426,-1.7772,-1.846,-1.9319,0.0,0.0,0.0,0.0,0.0,0.0,0.0,-0.6387,-0.6287,-0.6042,-0.5942,-0.5839,-0.5536,-0.5085,-0.4784,0.0,0.0,0.0,0.0,0.0,0.0,0.0,0.0,0.0,0.0,0.0,0.0,0.0,0.0,0.0,0.0,0.0,0.0,0.0,0.0,0.0,0.0,0.0,0.0,0.0,0.0,0.0,0.0,0.0,0.0,0.0,0.0,0.0,0.0,0.0,0.0,-0.6734,-0.7723,-0.8764,-0.9875,-1.1318,0.0,0.0,-1.3794,-1.3975,-1.4137,-1.4137,-1.4142,-1.4202,-1.4218,0.0,-1.4632,-1.4869,-1.5112,-1.529,-1.5564,-1.5424,-1.5226,-1.5226,0.0,-1.5226,0.0,0.0,0.0,0.0,0.0,0.0,0.0,0.0,0.0,0.0,0.0,0.0,0.0,-1.6673,-1.6791,-1.6996,-1.7001,-1.7001,-1.7001,-1.7001,-1.7001,-1.7001,-1.7001,-1.7001,-1.7001,-1.7001,-1.7001,-1.7001,0.0,0.0,0.0,-1.6953,-1.6892,-1.694,-1.7002,-1.702,-1.7197,-1.8635,-1.921,-1.9435,0.0,0.0,0.0,0.0,0.0,0.0,0.0,-0.6387,-0.6387,-0.6239,-0.6089,-0.5942,-0.5839,-0.5486,-0.5236,0.0,0.0,0.0,0.0,0.0,0.0,0.0,0.0,0.0,0.0,0.0,0.0,0.0,0.0,0.0,0.0,0.0,0.0,0.0,0.0,0.0,0.0,0.0,0.0,0.0,0.0,0.0,0.0,0.0,0.0,0.0,0.0,0.0,0.0,0.0,0.0,0.0,-0.6883,-0.7773,0.0,0.0,-1.107,-1.1767,-1.2685,-1.3037,-1.3305,-1.4029,-1.4196,-1.4196,-1.4196,0.0,-1.4507,-1.4654,-1.4925,-1.522,-1.5311,-1.5429,-1.5413,-1.5215,0.0,0.0,-1.5215,0.0,0.0,0.0,0.0,0.0,0.0,0.0,0.0,0.0,0.0,0.0,0.0,-1.6371,-1.656,-1.6791,-1.6797,-1.6867,-1.7001,-1.7001,-1.7001,-1.7001,-1.7001,-1.7001,-1.7001,-1.7001,-1.7001,-1.7001,0.0,0.0,0.0,-1.6834,-1.6714,-1.665,-1.6883,-1.7026,-1.7079,-1.7948,-1.8233,-1.8402,0.0,0.0,0.0,0.0,0.0,0.0,-0.6539,-0.6539,-0.6487,-0.6387,-0.6239,-0.6139,-0.6139,-0.5889,-0.5639,-0.5441,0.0,0.0,0.0,0.0,0.0,0.0,0.0,0.0,0.0,0.0,0.0,-0.5586,-0.5687,0.0,0.0,0.0,0.0,0.0,0.0,0.0,0.0,0.0,0.0,0.0,0.0,0.0,0.0,0.0,0.0,0.0,0.0,0.0,0.0,0.0,0.0,0.0,0.0,0.0,0.0,0.0,-0.9792,-1.0419,-1.1322,-1.1959,-1.2548,-1.3375,-1.3642,-1.3748,0.0,0.0,-1.3999,-1.4409,-1.4748,-1.5,-1.507,-1.5278,-1.5311,-1.5022,0.0,-1.5327,-1.5165,-1.5348,0.0,0.0,0.0,0.0,0.0,0.0,0.0,0.0,0.0,0.0,0.0,-1.6011,-1.6242,-1.6549,-1.656,-1.664,-1.6797,-1.6802,-1.6834,-1.6904,-1.6904,-1.6937,-1.7001,-1.7001,-1.6969,-1.6904,0.0,0.0,0.0,-1.6516,-1.6425,-1.6194,-1.6558,-1.6785,-1.6903,-1.725,-1.7426,-1.7596,0.0,0.0,0.0,0.0,0.0,0.0,0.0,-0.6795,-0.6692,-0.6437,-0.6387,-0.6387,-0.6387,-0.6139,-0.5992,-0.5992,0.0,0.0,0.0,0.0,0.0,0.0,0.0,0.0,0.0,0.0,-0.5586,-0.5586,-0.5889,-0.5992,0.0,0.0,0.0,0.0,0.0,0.0,0.0,0.0,0.0,0.0,0.0,0.0,0.0,0.0,0.0,0.0,0.0,0.0,0.0,0.0,0.0,0.0,0.0,0.0,0.0,0.0,-0.9158,-1.0065,-1.0255,-1.123,-1.223,-1.223,-1.2325,-1.2748,0.0,0.0,-1.2811,-1.4206,-1.448,-1.4611,-1.4848,-1.4891,-1.4815,-1.4523,-1.474,0.0,-1.4885,0.0,0.0,0.0,0.0,0.0,0.0,0.0,0.0,0.0,0.0,0.0,0.0,0.0,-1.5828,-1.6301,-1.6317,-1.6323,-1.6323,-1.6323,-1.6436,-1.6731,-1.6731,-1.6786,-1.7001,-1.7001,0.0,0.0,0.0,0.0,0.0,-1.6012,-1.5872,-1.5661,-1.5968,-1.6253,-1.6537,-1.6903,-1.7197,-1.7485,0.0,0.0,0.0,0.0,0.0,0.0,0.0,-0.7089,-0.6989,-0.6689,-0.6692,-0.6589,-0.6437,-0.6337,-0.6287,-0.6287,0.0,0.0,0.0,0.0,0.0,0.0,0.0,0.0,0.0,0.0,-0.6137,-0.6137,-0.6237,-0.6287,-0.6287,-0.6337,-0.6387,0.0,0.0,0.0,0.0,0.0,0.0,0.0,0.0,0.0,0.0,0.0,0.0,0.0,0.0,0.0,0.0,0.0,0.0,0.0,0.0,0.0,0.0,-0.6941,-0.7425,0.0,-0.9666,-0.9932,-0.9934,-1.0797,-1.1087,-1.1218,-1.1683,0.0,-1.1564,-1.2835,-1.3197,-1.3603,-1.4465,-1.4778,-1.481,-1.4518,-1.4735,0.0,0.0,0.0,0.0,0.0,0.0,0.0,0.0,0.0,0.0,0.0,0.0,0.0,0.0,0.0,-1.5741,-1.6054,-1.6064,-1.6145,-1.6312,-1.6312,-1.635,-1.6425,-1.6425,-1.6463,-1.6533,-1.6533,0.0,0.0,0.0,0.0,0.0,-1.6007,-1.5811,-1.5655,-1.5963,-1.614,-1.6253,-1.6543,-1.6897,-1.7309,0.0,0.0,0.0,0.0,0.0,0.0,0.0,-0.7341,-0.7241,-0.6992,-0.6842,-0.6742,-0.6589,-0.6437,-0.6387,-0.6387,0.0,0.0,0.0,0.0,0.0,0.0,0.0,0.0,0.0,-0.6337,-0.6387,-0.6387,-0.6387,-0.6387,-0.6387,-0.6387,-0.6387,-0.6387,-0.6387,0.0,0.0,0.0,0.0,0.0,0.0,0.0,-0.6387,0.0,0.0,0.0,0.0,0.0,0.0,0.0,0.0,0.0,0.0,0.0,0.0,0.0,-0.6495,-0.6955,-0.8285,-0.8575,-0.873,-0.9568,-0.9819,0.0,0.0,-1.0343,-1.0453,-1.2091,-1.2526,-1.3012,-1.4182,-1.4525,-1.4573,-1.4428,-1.453,0.0,0.0,0.0,0.0,0.0,0.0,0.0,0.0,0.0,0.0,0.0,0.0,0.0,0.0,0.0,-1.5666,-1.5811,-1.5877,-1.5892,-1.6043,-1.6048,-1.6091,-1.6178,-1.6178,-1.6226,-1.6312,0.0,0.0,0.0,0.0,0.0,0.0,-1.5877,-1.5731,-1.5601,-1.5839,-1.5963,-1.6146,-1.6312,-1.6608,-1.7138,0.0,0.0,0.0,0.0,0.0,0.0,0.0,0.0,0.0,0.0,-0.7068,-0.6871,-0.6871,-0.6614,-0.6458,0.0,0.0,0.0,0.0,0.0,0.0,0.0,0.0,0.0,0.0,-0.6387,-0.6387,-0.6387,-0.6387,-0.6387,-0.6387,-0.6387,-0.6387,-0.6387,-0.6387,0.0,0.0,0.0,0.0,0.0,0.0,0.0,0.0,0.0,0.0,0.0,0.0,0.0,0.0,0.0,0.0,0.0,0.0,0.0,0.0,0.0,0.0,0.0,0.0,-0.7318,-0.8313,-0.8414,-0.8514,0.0,-1.0175,-0.957,0.0,-1.1814,-1.2309,-1.2694,-1.397,-1.4196,-1.4196,-1.4196,-1.4196,0.0,0.0,0.0,0.0,0.0,0.0,0.0,0.0,0.0,0.0,0.0,0.0,0.0,0.0,0.0,0.0,-1.5601,-1.5601,-1.5601,-1.5601,-1.5601,-1.5709,-1.598,-1.598,-1.6043,-1.6264,-1.6264,0.0,0.0,0.0,0.0,0.0,-1.5601,-1.5601,-1.5601,-1.5601,-1.5779,-1.6087,-1.6087,-1.6436,-1.6961,0.0,0.0,0.0,0.0,0.0,0.0,0.0,0.0,0.0,0.0,-0.781,-0.7709,-0.7504,-0.7183,0.0,0.0,0.0,0.0,0.0,0.0,0.0,0.0,0.0,0.0,0.0,-0.6387,-0.6387,-0.6387,-0.6387,-0.6387,-0.6387,-0.6387,-0.6387,-0.6387,-0.6387,-0.6387,0.0,0.0,0.0,0.0,0.0,0.0,0.0,0.0,0.0,0.0,-0.6387,-0.6387,0.0,0.0,0.0,0.0,0.0,0.0,0.0,0.0,-0.6387,-0.6387,-0.6387,0.0,-0.6908,-0.7038,-0.7168,-0.7351,0.0,-0.7749,-0.8257,-1.0617,-1.1109,-1.1714,-1.3807,-1.4196,-1.4196,-1.4196,-1.4196,-1.4352,0.0,0.0,0.0,0.0,0.0,0.0,0.0,0.0,0.0,0.0,0.0,0.0,0.0,0.0,0.0,-1.5601,-1.5601,-1.5601,-1.5601,-1.5601,-1.5623,-1.5682,-1.5682,-1.5709,-1.5768,-1.5768,0.0,0.0,0.0,0.0,-1.5601,-1.5601,-1.5601,-1.5601,-1.5601,-1.5661,-1.572,-1.572,-1.607,-1.6602,0.0,0.0,0.0,0.0,0.0,0.0,0.0,0.0,0.0,0.0,0.0,0.0,0.0,0.0,0.0,0.0,0.0,0.0,0.0,0.0,0.0,0.0,0.0,0.0,-0.6387,-0.6387,-0.6387,-0.6387,-0.6387,-0.6387,-0.6387,-0.6387,-0.6387,-0.6387,-0.6387,-0.6387,0.0,0.0,0.0,0.0,-0.6387,0.0,0.0,0.0,0.0,0.0,-0.6387,-0.6387,0.0,-0.6387,-0.6387,-0.6387,0.0,0.0,0.0,0.0,-0.6387,-0.6387,-0.6387,-0.6387,-0.6416,-0.6589,-0.6711,-0.6834,-0.6956,-0.7128,-0.7706,-0.9519,-1.0288,-1.1273,-1.3029,-1.3802,-1.4196,0.0,-1.4196,0.0,0.0,0.0,0.0,0.0,0.0,0.0,0.0,0.0,0.0,0.0,0.0,0.0,0.0,0.0,0.0,0.0,-1.5601,-1.5601,-1.5601,-1.5601,-1.5601,-1.5601,-1.5601,-1.5601,-1.5601,-1.5601,0.0,0.0,0.0,0.0,-1.5601,-1.5601,-1.5601,-1.5601,-1.5601,-1.5601,-1.5601,-1.5601,-1.6011,-1.6478,0.0,0.0,0.0,0.0,0.0,0.0,0.0,0.0,0.0,0.0,0.0,0.0,0.0,0.0,0.0,0.0,0.0,0.0,0.0,0.0,0.0,0.0,0.0,-0.6387,-0.6387,-0.6387,-0.6387,-0.6387,-0.6387,-0.6387,-0.6387,-0.6387,-0.6387,-0.6387,-0.6387,-0.6387,0.0,0.0,0.0,0.0,-0.6387,0.0,0.0,0.0,0.0,0.0,0.0,0.0,0.0,-0.6387,-0.6387,-0.6387,-0.6387,0.0,0.0,0.0,0.0,0.0,-0.6387,-0.6387,-0.6411,-0.6564,-0.6785,-0.7015,-0.6983,-0.7207,-0.7683,-0.8696,-0.9853,0.0,0.0,-1.3413,0.0,0.0,0.0,0.0,0.0,0.0,0.0,0.0,0.0,0.0,0.0,0.0,0.0,0.0,0.0,0.0,0.0,0.0,0.0,0.0,-1.5601,-1.5601,-1.5601,-1.5601,-1.5601,-1.5601,-1.5601,-1.5601,-1.5601,-1.5601,0.0,0.0,0.0,0.0,-1.5601,-1.5601,-1.5601,-1.5601,-1.5601,-1.5601,-1.5601,-1.5601,-1.5952,-1.6425,0.0,0.0,0.0,0.0,0.0,0.0,0.0,0.0,0.0,0.0,0.0,0.0,0.0,0.0,0.0,0.0,0.0,0.0,0.0,0.0,0.0,0.0,-0.6595,-0.6387,-0.6387,-0.6387,-0.6387,-0.6387,-0.6387,-0.6387,-0.6387,-0.6387,-0.6387,-0.6387,-0.6387,-0.6387,-0.6387,-0.6387,-0.6387,-0.6387,-0.6387,0.0,0.0,0.0,0.0,0.0,0.0,0.0,0.0,-0.6387,-0.6387,-0.6387,-0.6387,0.0,0.0,0.0,0.0,0.0,-0.6387,-0.6387,-0.6389,-0.6411,-0.7214,-0.7759,-0.7012,-0.7612,-0.8493,0.0,0.0,0.0,0.0,-1.3413,-1.4196,0.0,0.0,0.0,0.0,0.0,0.0,0.0,0.0,0.0,0.0,0.0,0.0,0.0,0.0,0.0,0.0,0.0,0.0,0.0,0.0,-1.5601,-1.5601,-1.5601,-1.5601,-1.5601,-1.5601,-1.5601,-1.5601,-1.5601,-1.5601,0.0,0.0,-1.5601,-1.5601,-1.5601,-1.5601,-1.5601,-1.5601,-1.5601,-1.5601,-1.5601,-1.5839,-1.6259,0.0,0.0,0.0,0.0,0.0,0.0,0.0,0.0,0.0,0.0,0.0,0.0,0.0,0.0,0.0,0.0,0.0,0.0,0.0,0.0,0.0,-0.7298,-0.6707,-0.6387,-0.6387,-0.6387,-0.6387,-0.6387,-0.6387,-0.6387,-0.6387,-0.6387,-0.6387,-0.6387,-0.6387,-0.6387,-0.6387,-0.6387,-0.6387,-0.6387,0.0,0.0,0.0,0.0,0.0,0.0,0.0,0.0,0.0,0.0,-0.6387,-0.6387,-0.6387,0.0,0.0,0.0,0.0,0.0,-0.6387,-0.6387,-0.6584,-0.7276,-0.7383,-0.7401,-0.772,-0.8213,-0.871,-0.8944,0.0,0.0,0.0,0.0,0.0,0.0,0.0,0.0,0.0,0.0,0.0,0.0,0.0,0.0,0.0,0.0,0.0,0.0,0.0,0.0,0.0,0.0,0.0,0.0,0.0,-1.5601,-1.5601,-1.5601,-1.5601,-1.5601,-1.5601,-1.5601,-1.5601,-1.5601,-1.5601,-1.5601,0.0,-1.5601,-1.5601,-1.5601,-1.5601,-1.5601,-1.5601,-1.5601,-1.5601,-1.5779,-1.5875,-1.6015,0.0,0.0,0.0,0.0,0.0,0.0,0.0,0.0,0.0,0.0,0.0,0.0,0.0,0.0,0.0,0.0,0.0,0.0,0.0,0.0,-0.7746,-0.7603,-0.6959,-0.6537,-0.6487,-0.6437,-0.6387,-0.6387,-0.6387,-0.6387,-0.6387,-0.6387,-0.6387,-0.6387,-0.6387,-0.6387,-0.6387,-0.6387,-0.6387,-0.6387,0.0,0.0,0.0,0.0,0.0,0.0,0.0,0.0,0.0,0.0,0.0,0.0,0.0,0.0,0.0,-0.6387,-0.6387,-0.6387,-0.6387,-0.6387,-0.6684,-0.7971,-0.7858,-0.7696,-0.8794,-0.9332,-0.9602,-0.9586,0.0,0.0,0.0,0.0,0.0,0.0,0.0,0.0,0.0,0.0,0.0,0.0,0.0,0.0,0.0,0.0,0.0,0.0,0.0,0.0,0.0,0.0,0.0,0.0,0.0,0.0,-1.5601,-1.5601,-1.5601,-1.5601,-1.5601,-1.5601,-1.5601,-1.5601,-1.5601,-1.5601,-1.5601,-1.5601,-1.5601,-1.5601,-1.5601,-1.5601,-1.5601,-1.5564,-1.5526,-1.5882,-1.5862,-1.5795,0.0,0.0,0.0,0.0,0.0,0.0,0.0,0.0,0.0,0.0,0.0,0.0,0.0,0.0,0.0,0.0,0.0,0.0,0.0,0.0,-0.8004,-0.7856,-0.7412,-0.7039,-0.6792,-0.6539,-0.6387,-0.6387,-0.6387,-0.6387,-0.6387,-0.6387,-0.6387,-0.6387,-0.6387,-0.6387,-0.6387,-0.6387,-0.6387,-0.6387,-0.6387,0.0,0.0,0.0,0.0,0.0,0.0,0.0,0.0,0.0,0.0,0.0,0.0,0.0,-0.6387,-0.6387,-0.6387,-0.6387,-0.6387,-0.6387,-0.6684,-0.7773,-0.892,-0.9863,-1.0373,-1.1388,-1.1964,-1.1146,-1.2154,0.0,0.0,0.0,0.0,0.0,0.0,0.0,0.0,0.0,0.0,0.0,0.0,0.0,0.0,0.0,0.0,0.0,0.0,0.0,0.0,0.0,0.0,0.0,0.0,0.0,-1.5601,-1.5601,-1.5601,-1.5601,-1.5601,-1.5601,-1.5601,-1.5601,-1.5601,-1.5601,-1.5601,-1.5601,-1.5601,-1.5601,-1.5601,-1.5601,-1.5601,-1.5467,-1.5247,-1.5521,-1.568,-1.5737,0.0,0.0,0.0,0.0,0.0,0.0,0.0,0.0,0.0,0.0,0.0,0.0,0.0,0.0,0.0,0.0,0.0,0.0,0.0,0.0,-0.8011,-0.8166,-0.7563,-0.7238,-0.7294,-0.6892,-0.6589,-0.6387,-0.6589,-0.6739,-0.6886,-0.6886,-0.6886,-0.6886,-0.6886,-0.6886,-0.6886,-0.6886,-0.6886,-0.6886,-0.6739,-0.6642,0.0,0.0,0.0,0.0,0.0,0.0,0.0,0.0,-0.6387,-0.6387,-0.6387,-0.6539,-0.6639,-0.6437,-0.6637,-0.6839,-0.6689,-0.7282,-0.8018,-0.8616,-1.0092,-1.1238,-1.0623,-1.1447,-1.2385,-1.2361,-1.3408,0.0,0.0,0.0,0.0,0.0,0.0,0.0,0.0,0.0,0.0,0.0,0.0,0.0,0.0,0.0,0.0,0.0,0.0,0.0,0.0,0.0,0.0,0.0,0.0,0.0,-1.5322,-1.523,-1.5155,-1.516,-1.5456,-1.5601,-1.5601,-1.5601,-1.5601,-1.5601,-1.5601,-1.5515,-1.5322,-1.5322,-1.5289,-1.5171,-1.5322,-1.5269,-1.522,-1.551,-1.5509,-1.5453,0.0,0.0,0.0,0.0,0.0,0.0,0.0,0.0,0.0,0.0,0.0,0.0,0.0,0.0,0.0,0.0,0.0,0.0,0.0,-0.8138,-0.8092,-0.8201,-0.7742,-0.749,-0.7596,-0.7244,-0.6942,-0.6637,-0.6839,-0.7039,-0.7188,-0.7188,-0.7188,-0.7188,-0.7188,-0.7188,-0.7188,-0.7188,-0.7188,-0.7188,-0.6992,-0.6942,0.0,0.0,0.0,0.0,0.0,0.0,0.0,0.0,-0.6589,-0.6637,0.0,-0.6789,-0.6892,-0.6686,-0.6886,-0.7138,-0.6992,-0.758,-0.8418,-0.8962,-1.0386,-1.156,-1.1121,-1.2049,-1.3137,-1.3549,-1.4353,-1.5051,-1.5137,0.0,0.0,0.0,0.0,0.0,0.0,0.0,0.0,0.0,0.0,0.0,0.0,0.0,0.0,0.0,0.0,0.0,0.0,0.0,0.0,0.0,0.0,0.0,-1.5133,-1.4966,-1.4885,-1.4885,-1.5214,-1.5375,-1.5375,-1.5375,-1.5375,-1.5375,-1.5375,-1.5284,-1.5133,-1.5133,-1.5079,-1.5015,-1.5129,-1.5194,-1.522,-1.551,-1.5451,-1.5284,0.0,0.0,0.0,0.0,0.0,0.0,0.0,0.0,0.0,0.0,0.0,0.0,0.0,0.0,0.0,0.0,0.0,0.0,-0.8002,-0.8184,-0.8201,-0.7995,-0.7988,-0.7892,-0.7596,-0.7596,-0.7494,-0.7188,-0.7188,-0.7188,-0.7188,-0.7188,-0.7188,-0.7188,-0.7188,-0.7188,-0.7188,-0.7188,-0.7188,-0.7188,-0.7188,-0.7188,-0.7188,0.0,0.0,0.0,0.0,0.0,0.0,0.0,-0.6992,-0.7188,0.0,0.0,-0.7188,-0.7188,-0.7188,-0.7188,-0.7188,-0.7238,-0.7484,-0.8559,0.0,0.0,-1.1999,-1.3569,-1.4721,-1.4727,-1.4934,-1.5211,-1.5435,0.0,0.0,0.0,0.0,0.0,0.0,0.0,0.0,0.0,0.0,0.0,0.0,0.0,0.0,0.0,0.0,0.0,0.0,0.0,0.0,0.0,0.0,0.0,-1.4885,-1.4885,-1.488,-1.488,-1.4875,-1.488,-1.4885,-1.4885,-1.4885,-1.4885,-1.4885,-1.4885,-1.488,-1.488,-1.5025,-1.5188,-1.5194,-1.5194,-1.522,-1.551,-1.5456,-1.5231,0.0,0.0,0.0,0.0,0.0,0.0,0.0,0.0,0.0,0.0,0.0,0.0,0.0,0.0,0.0,0.0,0.0,0.0,0.0,-0.8032,-0.8039,-0.7992,-0.7988,-0.7942,-0.7892,-0.7892,-0.7743,-0.7494,-0.7494,-0.7593,-0.7739,-0.7739,-0.7739,-0.7739,-0.7739,-0.7739,-0.7739,-0.7739,-0.7739,-0.7739,-0.7543,-0.7494,-0.7444,0.0,0.0,0.0,0.0,0.0,0.0,0.0,0.0,0.0,-0.7188,0.0,-0.7444,-0.7238,-0.7487,-0.7739,-0.7543,-0.8718,0.0,-0.9456,0.0,0.0,0.0,-1.3705,0.0,0.0,-1.5465,-1.5473,-1.5743,0.0,0.0,0.0,0.0,0.0,0.0,0.0,0.0,0.0,0.0,0.0,0.0,0.0,0.0,0.0,0.0,0.0,0.0,0.0,0.0,0.0,0.0,0.0,-1.5081,-1.481,-1.4638,-1.4638,-1.4476,-1.4568,-1.4885,-1.4885,-1.4885,-1.4885,-1.4885,-1.4789,-1.4638,-1.4638,-1.4778,-1.5009,-1.5124,-1.5194,-1.522,-1.551,-1.5553,-1.5505,0.0,0.0,0.0,0.0,0.0,0.0,0.0,0.0,0.0,0.0,0.0,0.0,0.0,0.0,0.0,0.0,0.0,0.0,0.0,0.0,-0.7988,-0.7988,-0.7988,-0.7988,-0.7988,-0.7988,-0.7942,-0.7743,-0.7743,-0.7842,-0.7988,-0.7988,-0.7988,-0.7988,-0.7988,-0.7988,-0.7988,-0.7988,-0.7988,-0.7988,-0.7842,-0.7743,-0.7743,0.0,0.0,0.0,0.0,0.0,0.0,0.0,0.0,0.0,-0.7537,0.0,-0.7743,-0.759,-0.7739,-0.7942,-0.7793,-0.8821,0.0,-1.0194,-1.1658,-1.3152,-1.3447,0.0,0.0,0.0,0.0,-1.5457,-1.5819,0.0,0.0,0.0,0.0,0.0,0.0,0.0,0.0,0.0,0.0,0.0,0.0,0.0,0.0,0.0,0.0,0.0,0.0,0.0,0.0,0.0,0.0,0.0,-1.5106,-1.4815,-1.4676,-1.467,-1.4536,-1.4562,-1.474,-1.4649,-1.4611,-1.4616,-1.4702,-1.4719,-1.4676,-1.4676,-1.4815,-1.5047,-1.5135,-1.5253,-1.5408,-1.5548,-1.5601,-1.5601,0.0,0.0,0.0,0.0,0.0,0.0,0.0,0.0,0.0,0.0,0.0,0.0,0.0,0.0,0.0,0.0,0.0,0.0,0.0,0.0,-0.7988,-0.7988,-0.7988,-0.7982,-0.7968,-0.7968,-0.7965,-0.7948,-0.7978,-0.7988,-0.7988,-0.7988,-0.7988,-0.7988,-0.7988,-0.7988,-0.7988,-0.7988,-0.7988,-0.7988,-0.7988,-0.7988,-0.7988,-0.7988,0.0,0.0,0.0,0.0,0.0,0.0,0.0,0.0,-0.7988,-0.7988,-0.7988,-0.7988,-0.7988,-0.7988,-0.7988,-0.8088,0.0,-1.0685,-1.1317,0.0,-1.417,-1.4479,-1.4455,-1.4992,0.0,0.0,0.0,0.0,0.0,0.0,0.0,0.0,0.0,0.0,0.0,0.0,0.0,0.0,0.0,0.0,0.0,0.0,0.0,0.0,0.0,0.0,0.0,0.0,0.0,0.0,-1.495,-1.4929,-1.4918,0.0,-1.4896,-1.4772,-1.4502,-1.4352,-1.4256,-1.4266,-1.4476,-1.4702,-1.4918,-1.4918,-1.5063,-1.5226,-1.5226,-1.5413,-1.5601,-1.5601,-1.5601,-1.5601,0.0,0.0,0.0,0.0,0.0,0.0,0.0,0.0,0.0,0.0,0.0,0.0,0.0,0.0,0.0,0.0,0.0,0.0,0.0,0.0,-0.7988,-0.7988,-0.7988,-0.7934,-0.7862,-0.7862,-0.7804,-0.7695,-0.7877,-0.7988,-0.7988,-0.7988,-0.7988,-0.7988,-0.7988,-0.7988,-0.7988,-0.7988,-0.7988,-0.7988,-0.7988,-0.7988,-0.7988,-0.7988,-0.7988,0.0,0.0,0.0,0.0,0.0,0.0,0.0,-0.7988,-0.7988,-0.7988,-0.7988,-0.7988,-0.7988,-0.7988,-0.8627,0.0,0.0,-1.2441,-1.3775,-1.4274,-1.434,-1.4455,-1.4992,0.0,0.0,0.0,0.0,0.0,0.0,0.0,0.0,0.0,0.0,0.0,0.0,0.0,0.0,0.0,0.0,0.0,0.0,0.0,0.0,0.0,0.0,0.0,0.0,0.0,-1.5445,-1.5445,-1.5262,-1.5113,0.0,-1.4977,-1.4859,-1.481,-1.4756,-1.4735,-1.4735,-1.4789,-1.495,-1.5113,-1.5113,-1.5311,-1.5521,-1.5521,-1.5553,-1.5601,-1.5601,-1.5601,-1.5601,0.0,0.0,0.0,0.0,0.0,0.0,0.0,0.0,0.0,0.0,0.0,0.0,0.0,0.0,0.0,0.0,0.0,0.0,0.0,0.0,0.0,0.0,-0.7988,0.0,0.0,-0.7811,-0.7743,-0.76,-0.7753,-0.7865,-0.7884,-0.7955,-0.7988,-0.7988,-0.7988,-0.7988,-0.7988,-0.7988,-0.7988,-0.7988,-0.7988,-0.7988,-0.7988,-0.7988,-0.7988,-0.7988,-0.7988,0.0,0.0,0.0,0.0,0.0,0.0,0.0,-0.7988,-0.7988,-0.7988,-0.7988,-0.7988,0.0,0.0,-1.0779,0.0,-1.3661,-1.4196,-1.4298,-1.4377,0.0,0.0,0.0,0.0,0.0,0.0,0.0,0.0,0.0,0.0,0.0,0.0,0.0,0.0,0.0,0.0,0.0,0.0,0.0,0.0,0.0,0.0,0.0,0.0,0.0,-1.5085,-1.509,-1.509,-1.4859,-1.4743,-1.485,-1.4778,-1.4778,-1.4885,-1.4885,-1.495,-1.5058,-1.5058,-1.5198,-1.5418,-1.5418,-1.5488,-1.5601,-1.5601,-1.5601,-1.5601,-1.5601,-1.5601,-1.558,0.0,0.0,0.0,0.0,0.0,0.0,0.0,0.0,0.0,0.0,0.0,0.0,0.0,0.0,0.0,0.0,0.0,0.0,0.0,0.0,0.0,0.0,-0.7988,0.0,0.0,0.0,0.0,0.0,0.0,-0.7621,-0.774,-0.7916,-0.7965,-0.7988,-0.7988,-0.7988,-0.7988,-0.7988,-0.7988,-0.7988,-0.7988,-0.7988,-0.7988,-0.7988,-0.7988,-0.7988,-0.7988,-0.7988,-0.7988,-0.7988,0.0,0.0,0.0,0.0,-0.7988,-0.7988,-0.7988,-0.7988,-0.7988,0.0,-0.8726,-1.0489,-1.1707,0.0,-1.3757,-1.4004,0.0,0.0,0.0,0.0,0.0,0.0,0.0,0.0,0.0,0.0,0.0,0.0,0.0,0.0,0.0,0.0,0.0,0.0,0.0,0.0,0.0,0.0,0.0,0.0,-1.4188,-1.4188,-1.3987,-1.397,-1.419,-1.4011,-1.4119,-1.4476,-1.4476,-1.4579,-1.4767,-1.4767,-1.4918,-1.5129,-1.5129,-1.5295,-1.5478,-1.5478,-1.5478,-1.5478,-1.5478,-1.5478,-1.5478,-1.5478,-1.5478,-1.5445,0.0,0.0,0.0,0.0,0.0,0.0,0.0,0.0,0.0,0.0,0.0,0.0,0.0,0.0,0.0,0.0,0.0,0.0,-0.7988,0.0,0.0,-0.7988,-0.7988,-0.7864,0.0,0.0,0.0,0.0,0.0,0.0,0.0,0.0,-0.7913,-0.7988,-0.7988,-0.7988,-0.7988,-0.7988,-0.7988,-0.7988,-0.7988,-0.7988,-0.7988,-0.7988,-0.7988,-0.7988,-0.7988,-0.7988,-0.7988,-0.7988,-0.7988,0.0,0.0,0.0,-0.7988,-0.7988,-0.7988,-0.7988,0.0,0.0,-0.946,0.0,-1.0632,-1.1658,0.0,0.0,0.0,0.0,0.0,0.0,0.0,0.0,0.0,0.0,0.0,0.0,0.0,0.0,0.0,0.0,0.0,0.0,0.0,0.0,0.0,0.0,0.0,0.0,0.0,-1.1127,-1.1267,-1.1267,-1.1398,-1.1914,-1.2851,-1.2827,-1.3271,-1.4239,-1.4239,-1.4256,-1.4288,-1.4288,-1.4519,-1.4934,-1.4934,-1.495,-1.4977,-1.4977,-1.4977,-1.4977,-1.4977,-1.4977,-1.4977,-1.4977,-1.4977,-1.4977,0.0,0.0,0.0,0.0,0.0,0.0,0.0,0.0,0.0,0.0,0.0,0.0,0.0,0.0,0.0,-0.7988,-0.7988,-0.7988,-0.7988,-0.7988,-0.7988,-0.7988,-0.7907,-0.7814,-0.7604,0.0,0.0,0.0,0.0,0.0,0.0,-0.7502,-0.7689,0.0,-0.7913,-0.7911,-0.7988,-0.7988,-0.7988,-0.7988,-0.7988,-0.7988,-0.7988,-0.7988,-0.7988,-0.7988,-0.7988,-0.7988,-0.7988,-0.7988,-0.7988,-0.7988,-0.7988,0.0,0.0,0.0,-0.7892,-0.7793,-0.7793,-0.8233,-0.8825,0.0,-0.9948,-1.0507,0.0,0.0,0.0,0.0,0.0,0.0,0.0,0.0,0.0,0.0,0.0,0.0,0.0,0.0,0.0,0.0,0.0,0.0,0.0,0.0,0.0,0.0,0.0,0.0,-1.0304,-1.0431,-1.0472,-1.0472,-1.0443,0.0,-1.1115,-1.1573,-1.2407,-1.3588,-1.3728,-1.3793,-1.3793,-1.3793,-1.4121,-1.4692,-1.4692,-1.4762,-1.4885,-1.4885,-1.4885,-1.4885,-1.4885,-1.4885,-1.4885,-1.4885,-1.4799,-1.467,0.0,0.0,0.0,0.0,0.0,0.0,0.0,0.0,0.0,0.0,0.0,0.0,0.0,0.0,0.0,0.0,-0.7988,-0.7988,-0.7988,-0.7988,-0.7971,-0.7934,-0.7872,-0.7726,-0.7546,0.0,0.0,0.0,0.0,0.0,-0.7312,-0.7312,-0.7451,0.0,-0.7777,-0.7896,-0.7988,-0.7988,-0.7988,-0.7988,-0.7988,-0.7988,-0.7988,-0.7988,-0.7988,-0.7988,-0.7988,-0.7988,-0.7988,-0.7988,-0.7988,-0.7988,-0.7988,-0.7988,0.0,0.0,0.0,-0.7587,0.0,0.0,-0.7967,-0.8803,-0.8987,-0.9191,0.0,0.0,0.0,0.0,0.0,0.0,0.0,0.0,0.0,0.0,0.0,0.0,0.0,0.0,0.0,0.0,0.0,0.0,0.0,0.0,0.0,0.0,0.0,0.0,-0.9286,-0.9286,-0.9286,-0.9286,-0.9161,-0.9194,-0.9497,-1.0605,-1.1698,-1.2616,-1.3105,-1.3297,-1.3297,-1.3297,-1.362,-1.4175,-1.4239,-1.4363,-1.4525,-1.4525,-1.4525,-1.4525,-1.4525,-1.4525,-1.4525,-1.4525,-1.4417,-1.4239,0.0,0.0,0.0,0.0,0.0,0.0,0.0,0.0,0.0,0.0,0.0,0.0,-0.7988,-0.7988,-0.7988,-0.7988,-0.7988,-0.7988,-0.7988,-0.7988,-0.7924,-0.7828,-0.7814,0.0,-0.7436,-0.7419,0.0,0.0,0.0,0.0,-0.7109,-0.7109,-0.7238,-0.7453,-0.7685,-0.7896,-0.7988,-0.7988,-0.7988,-0.7988,-0.7988,-0.7988,-0.7988,-0.7988,-0.7988,-0.7988,-0.7988,-0.7988,-0.7988,-0.7988,-0.7988,-0.7988,-0.7988,-0.7988,-0.7988,0.0,0.0,0.0,0.0,-0.7343,0.0,-0.7313,0.0,0.0,0.0,0.0,0.0,0.0,0.0,0.0,0.0,0.0,0.0,0.0,0.0,0.0,0.0,0.0,0.0,0.0,0.0,0.0,0.0,0.0,0.0,0.0,0.0,0.0,-0.6603,-0.6603,-0.6603,-0.6603,-0.6598,-0.7092,-0.8084,-1.0141,-1.1228,-1.1287,-1.2342,-1.2851,-1.2851,-1.2851,-1.2942,-1.3195,-1.3427,-1.354,-1.355,-1.355,-1.355,-1.355,-1.355,-1.355,-1.355,-1.355,-1.3545,-1.3534,0.0,0.0,0.0,0.0,0.0,0.0,0.0,0.0,0.0,0.0,0.0,0.0,0.0,-0.7931,-0.7988,-0.7988,-0.7988,-0.7948,-0.7899,-0.7892,-0.7828,-0.7682,-0.758,-0.7478,-0.7419,-0.7275,-0.7149,0.0,0.0,-0.7095,-0.7095,-0.7095,-0.7224,-0.7422,-0.7482,-0.7665,-0.7892,-0.7892,0.0,0.0,0.0,-0.7988,-0.7988,-0.7988,0.0,0.0,0.0,0.0,0.0,0.0,-0.7988,-0.7988,-0.7988,-0.7988,-0.7922,-0.7527,-0.7388,-0.726,0.0,0.0,0.0,-0.6995,0.0,0.0,0.0,0.0,0.0,0.0,0.0,0.0,0.0,0.0,0.0,0.0,0.0,0.0,0.0,0.0,0.0,0.0,0.0,0.0,0.0,0.0,0.0,0.0,0.0,0.0,-0.6387,-0.6387,-0.6387,-0.6387,-0.6387,-0.693,-0.7971,-0.8761,-0.9501,-1.0194,-1.1277,-1.1765,-1.1819,-1.2511,-1.2856,-1.2888,-1.3029,-1.3195,-1.348,-1.348,-1.348,-1.348,-1.348,-1.348,-1.348,-1.348,-1.3378,-1.3238,0.0,0.0,0.0,0.0,0.0,0.0,0.0,0.0,0.0,-0.76,0.0,0.0,0.0,0.0,-0.7843,-0.7843,-0.7843,-0.7848,-0.7746,-0.774,-0.7675,-0.7529,-0.7424,-0.7346,-0.7295,-0.7149,-0.7095,0.0,0.0,0.0,0.0,-0.7095,-0.7149,-0.7292,-0.7292,-0.7461,0.0,0.0,0.0,-0.7911,0.0,0.0,-0.7985,0.0,0.0,0.0,0.0,0.0,0.0,0.0,0.0,0.0,-0.7843,-0.7843,-0.7774,-0.7382,-0.7193,-0.7017,-0.664,0.0,0.0,0.0,0.0,0.0,0.0,0.0,0.0,0.0,0.0,0.0,0.0,0.0,0.0,0.0,0.0,0.0,0.0,0.0,0.0,0.0,0.0,0.0,0.0,0.0,0.0,0.0,0.0,0.0,-0.6387,-0.6387,-0.6387,-0.6387,-0.6387,-0.6734,-0.7478,-0.7822,-0.8368,-0.9061,-1.0141,-1.0832,-1.1224,-1.1917,-1.2462,-1.2813,-1.2813,-1.2991,-1.3288,-1.3288,-1.3288,-1.3288,-1.3288,-1.3288,-1.3249,-1.3324,-1.3249,-1.3114,0.0,0.0,0.0,0.0,0.0,0.0,0.0,0.0,-0.7587,-0.7587,0.0,0.0,0.0,0.0,0.0,-0.76,-0.76,-0.7597,-0.7594,-0.7594,-0.7522,-0.7415,-0.7409,-0.7295,-0.7098,-0.7095,-0.7095,0.0,0.0,0.0,0.0,0.0,-0.7095,-0.7095,-0.7095,-0.726,-0.7587,0.0,-0.7675,-0.7794,0.0,-0.777,-0.7961,0.0,0.0,0.0,-0.7858,-0.7804,0.0,-0.7645,0.0,0.0,0.0,-0.7597,-0.7594,-0.7594,-0.7211,-0.6754,0.0,0.0,0.0,0.0,0.0,0.0,0.0,0.0,0.0,0.0,0.0,0.0,0.0,0.0,0.0,0.0,0.0,0.0,0.0,0.0,0.0,0.0,0.0,0.0,0.0,0.0,0.0,0.0,0.0,-0.6387,-0.6387,-0.6387,-0.6387,-0.6387,-0.6387,-0.6387,-0.6387,-0.7428,-0.7971,-0.7975,-0.9061,-1.0096,-1.1121,-1.1121,-1.1717,-1.271,-1.2759,-1.2764,-1.2764,-1.2813,-1.2813,-1.2813,-1.2813,-1.2813,-1.2851,-1.3023,-1.3109,-1.3152,0.0,0.0,0.0,0.0,0.0,0.0,0.0,0.0,-0.7223,0.0,0.0,0.0,-0.7434,-0.7533,-0.76,-0.76,-0.76,-0.7553,-0.7441,-0.7434,-0.7366,-0.721,-0.7204,-0.7139,-0.7098,-0.7095,-0.7095,0.0,0.0,0.0,0.0,0.0,0.0,0.0,-0.7095,-0.7142,-0.723,-0.7387,0.0,-0.7655,-0.7614,-0.7648,0.0,0.0,0.0,0.0,0.0,-0.7658,-0.7651,0.0,-0.76,-0.76,0.0,0.0,-0.7388,-0.7066,0.0,0.0,-0.6056,0.0,0.0,0.0,0.0,0.0,0.0,0.0,0.0,0.0,0.0,0.0,0.0,0.0,0.0,0.0,0.0,0.0,0.0,0.0,0.0,0.0,0.0,0.0,0.0,0.0,0.0,0.0,-0.6391,-0.6387,-0.6387,-0.6387,-0.6387,-0.6387,-0.6387,-0.6387,-0.6387,-0.6684,-0.6833,-0.6833,-0.7922,-0.8616,-0.8909,-0.9702,-1.0194,-1.0542,-1.1326,-1.1619,-1.1717,-1.2462,-1.2813,-1.2813,-1.2813,-1.2916,-1.3017,-1.3082,-1.3217,-1.3383,0.0,0.0,0.0,0.0,0.0,0.0,0.0,-0.7095,-0.7095,0.0,0.0,0.0,-0.7275,-0.7353,-0.7407,-0.7407,-0.7407,-0.737,-0.7282,-0.7275,-0.7234,-0.7098,-0.7095,-0.7095,-0.7095,-0.7095,-0.7095,0.0,0.0,0.0,0.0,0.0,0.0,0.0,0.0,0.0,0.0,0.0,0.0,0.0,-0.7434,0.0,0.0,-0.7529,-0.7543,0.0,0.0,0.0,-0.7495,-0.7431,-0.7407,0.0,0.0,0.0,0.0,0.0,0.0,0.0,-0.5952,-0.5777,0.0,0.0,0.0,0.0,-0.5688,-0.5688,0.0,0.0,0.0,0.0,0.0,0.0,0.0,0.0,0.0,0.0,0.0,0.0,0.0,0.0,0.0,0.0,0.0,0.0,0.0,0.0,-0.6252,-0.6312,-0.6363,-0.6366,-0.6388,-0.6384,-0.6387,-0.6387,-0.6387,-0.6387,-0.6387,-0.6387,-0.703,-0.7577,-0.8024,-0.8665,-0.916,-0.9657,-1.0243,-1.0538,-1.0636,-1.1673,-1.2466,-1.2904,-1.2904,-1.305,-1.327,-1.3367,-1.3497,-1.3636,0.0,0.0,0.0,0.0,0.0,0.0,0.0,-0.7095,-0.7095,0.0,-0.7095,-0.7095,-0.7095,-0.7095,-0.7095,-0.7095,-0.7095,-0.7095,-0.7095,-0.7095,-0.7095,-0.7095,-0.7095,-0.7095,-0.7095,-0.7095,-0.7095,0.0,0.0,0.0,0.0,0.0,0.0,0.0,0.0,0.0,0.0,0.0,0.0,-0.7333,-0.7149,-0.726,0.0,0.0,-0.7431,-0.7529,-0.7394,-0.7346,-0.7326,-0.7142,-0.7095,0.0,0.0,0.0,0.0,0.0,-0.6612,0.0,-0.6171,-0.5908,-0.5688,0.0,0.0,0.0,-0.5688,-0.5688,-0.5688,0.0,0.0,0.0,0.0,0.0,0.0,0.0,0.0,0.0,0.0,0.0,0.0,0.0,0.0,0.0,0.0,0.0,-0.6067,-0.6067,-0.6078,-0.6132,-0.6289,-0.6298,-0.6301,-0.6365,-0.6368,-0.6373,-0.6387,-0.6387,-0.6387,-0.6387,-0.6387,-0.6883,-0.7822,-0.7822,-0.8319,-0.9262,-0.9357,-0.9406,-0.9505,-1.0583,-1.1776,-1.2911,-1.3016,-1.3217,-1.3459,-1.3663,-1.3755,-1.3814,-0.7143,0.0,0.0,0.0,0.0,0.0,0.0,0.0,-0.7095,-0.7095,-0.7095,-0.7095,-0.7095,-0.7095,-0.7095,-0.7095,-0.7095,-0.7095,-0.7095,-0.7095,-0.7095,-0.7095,-0.7095,-0.7095,-0.7095,-0.7095,-0.7095,0.0,0.0,0.0,0.0,0.0,0.0,0.0,0.0,0.0,0.0,0.0,0.0,-0.7139,-0.7109,0.0,-0.7183,-0.7152,-0.7159,-0.7183,-0.7149,-0.7139,-0.7136,-0.7105,-0.7095,-0.7095,0.0,0.0,0.0,-0.6836,0.0,0.0,0.0,0.0,0.0,0.0,0.0,0.0,-0.5688,-0.5688,-0.5688,0.0,0.0,0.0,0.0,0.0,0.0,0.0,0.0,0.0,0.0,0.0,0.0,0.0,0.0,0.0,0.0,0.0,-0.5937,-0.5937,-0.6029,-0.6094,-0.6119,-0.6121,-0.6176,-0.6298,-0.6301,-0.6344,-0.6384,-0.6387,-0.6387,-0.6387,-0.6387,-0.6487,-0.6734,-0.6734,-0.6833,-0.708,-0.7922,-0.8319,-0.8418,-0.9456,-1.056,-1.1678,-1.2531,-1.2969,-1.3179,-1.3227,-1.3373,-1.355,-0.7143,0.0,0.0,0.0,0.0,0.0,0.0,0.0,-0.7095,-0.7095,-0.7095,-0.7095,-0.7095,-0.7095,-0.7095,-0.7095,-0.7095,-0.7095,-0.7095,-0.7095,-0.7095,-0.7095,-0.7095,-0.7095,-0.7095,-0.7095,-0.7095,0.0,0.0,0.0,0.0,0.0,0.0,0.0,0.0,0.0,0.0,0.0,-0.7095,-0.7095,-0.7095,0.0,-0.7095,-0.7095,-0.7095,-0.7095,-0.7095,-0.7095,-0.7095,-0.7095,-0.7095,0.0,0.0,-0.7095,-0.7051,0.0,-0.6612,-0.6343,0.0,0.0,0.0,-0.5688,0.0,0.0,0.0,-0.5688,-0.5688,0.0,0.0,0.0,0.0,0.0,0.0,0.0,0.0,0.0,0.0,0.0,0.0,0.0,0.0,0.0,0.0,0.0,-0.5817,-0.5817,-0.5877,-0.5934,-0.5991,-0.5994,-0.6051,-0.6173,-0.6179,-0.6206,-0.626,-0.6323,-0.6352,-0.6352,-0.636,-0.6387,-0.6387,-0.6387,-0.6387,-0.6434,-0.698,-0.7179,-0.7329,-0.8913,-0.9899,-1.0449,-1.1145,-1.1513,-1.1749,-1.2308,-1.2588,-1.2797,-0.7143,0.0,0.0,0.0,0.0,0.0,0.0,0.0,-0.7095,-0.7095,-0.7095,-0.7095,-0.7095,-0.7095,-0.7095,-0.7095,-0.7095,-0.7095,-0.7095,-0.7095,-0.7095,-0.7095,-0.7095,-0.7095,-0.7095,-0.7095,-0.7095,0.0,0.0,0.0,0.0,0.0,0.0,0.0,0.0,0.0,0.0,0.0,0.0,-0.7095,0.0,-0.7095,-0.7095,-0.7095,-0.7095,-0.7095,-0.7095,-0.7095,-0.7095,-0.7095,-0.7095,-0.7095,-0.7095,-0.7095,0.0,0.0,0.0,0.0,0.0,0.0,0.0,0.0,0.0,-0.5688,0.0,0.0,0.0,0.0,0.0,0.0,0.0,0.0,0.0,0.0,0.0,0.0,0.0,0.0,0.0,0.0,0.0,0.0,0.0,0.0,-0.5688,-0.5688,-0.5688,-0.5729,-0.5866,-0.5871,-0.5926,-0.6045,-0.6051,-0.6062,-0.6086,-0.6184,-0.6281,-0.6284,-0.635,-0.6404,-0.6404,-0.6376,-0.6387,-0.6387,-0.6387,-0.6387,-0.6534,-0.8269,-0.8966,-0.9076,-1.0112,-1.0619,-1.0865,-1.1736,-1.2094,-1.2196,-0.7095,-0.7095,0.0,0.0,0.0,0.0,0.0,0.0,0.0,-0.7095,-0.7095,-0.7095,-0.7095,-0.7095,-0.7095,-0.7095,-0.7095,0.0,-0.7095,0.0,-0.7095,-0.7095,-0.7095,-0.7095,-0.7095,-0.7095,-0.7095,-0.7095,0.0,0.0,0.0,0.0,0.0,0.0,-0.7095,0.0,0.0,0.0,-0.7095,0.0,-0.7095,-0.7095,0.0,-0.7095,-0.7095,-0.7095,-0.7095,-0.7095,-0.7095,0.0,-0.7095,-0.7095,0.0,-0.7095,-0.7051,-0.6836,0.0,0.0,0.0,0.0,0.0,0.0,-0.5688,0.0,0.0,0.0,0.0,0.0,0.0,0.0,0.0,0.0,0.0,0.0,0.0,0.0,0.0,0.0,0.0,0.0,0.0,0.0,0.0,0.0,0.0,-0.5688,-0.5688,-0.5694,-0.5707,-0.571,-0.5806,-0.592,-0.5923,-0.5975,-0.6083,-0.61,-0.6108,-0.6108,-0.623,-0.6287,-0.629,-0.6391,-0.6387,-0.6387,-0.6387,-0.6387,-0.6437,-0.6684,-0.6783,-0.7129,-1.0958,-1.252,-1.2546,-1.2644,-1.2693,-1.2742,-0.7095,-0.7095,-0.7095,0.0,0.0,0.0,0.0,0.0,0.0,-0.7095,-0.7095,-0.7095,0.0,0.0,0.0,-0.7095,0.0,-0.7095,0.0,0.0,-0.7095,-0.7095,-0.7095,-0.7095,-0.7095,-0.7095,-0.7095,-0.7095,-0.7095,0.0,0.0,0.0,0.0,0.0,-0.7095,0.0,-0.7095,0.0,0.0,0.0,0.0,0.0,0.0,-0.7095,-0.7095,-0.7095,-0.7095,-0.7095,-0.7095,0.0,-0.7095,0.0,0.0,0.0,0.0,0.0,0.0,0.0,0.0,0.0,0.0,0.0,0.0,0.0,-0.5688,0.0,-0.5688,0.0,0.0,0.0,0.0,0.0,0.0,0.0,0.0,0.0,0.0,0.0,0.0,0.0,0.0,0.0,0.0,0.0,0.0,0.0,0.0,-0.5688,-0.5688,-0.5688,-0.571,-0.5803,-0.5803,-0.5831,-0.5882,-0.5947,-0.598,-0.5983,-0.6105,-0.6162,-0.6165,-0.6285,-0.6339,-0.6342,-0.6357,-0.6387,-0.6437,-0.708,-0.7329,-0.7577,-0.9998,-1.0542,-1.0194,-1.1419,-1.1863,-1.1965,-0.7095,-0.7095,0.0,0.0,0.0,0.0,0.0,0.0,0.0,0.0,0.0,0.0,-0.7095,-0.7095,0.0,0.0,-0.7095,-0.7095,0.0,0.0,-0.7095,0.0,0.0,0.0,0.0,-0.7095,-0.7095,-0.7095,0.0,0.0,0.0,0.0,0.0,0.0,0.0,-0.7095,-0.7095,0.0,0.0,-0.7095,-0.7095,-0.7095,-0.7095,-0.7095,-0.7095,-0.7095,-0.7095,-0.7095,-0.7095,-0.7095,-0.7095,0.0,-0.7095,0.0,0.0,0.0,0.0,0.0,-0.6083,0.0,0.0,0.0,0.0,0.0,0.0,0.0,0.0,0.0,0.0,0.0,0.0,0.0,0.0,0.0,0.0,0.0,0.0,0.0,0.0,0.0,0.0,0.0,0.0,0.0,0.0,0.0,-0.5688,0.0,-0.5688,-0.5688,-0.5688,-0.5688,-0.5688,-0.5688,-0.5688,-0.5814,-0.5855,-0.5858,-0.5977,-0.6034,-0.604,-0.6162,-0.6284,-0.6322,-0.6355,-0.6357,-0.6437,-0.7229,-0.7577,-0.7673,-0.8764,-0.8665,-0.8219,-1.0092,-1.0925,-1.1272,-0.7095,-0.7095,0.0,0.0,0.0,0.0,0.0,0.0,0.0,0.0,0.0,0.0,0.0,0.0,0.0,0.0,0.0,-0.7095,-0.7095,0.0,-0.7095,0.0,0.0,-0.7095,0.0,0.0,0.0,0.0,0.0,0.0,0.0,0.0,0.0,0.0,0.0,-0.7095,-0.7095,-0.7095,-0.7095,-0.7095,-0.7095,-0.7095,-0.7095,0.0,-0.7095,-0.7095,-0.7095,0.0,0.0,-0.7095,-0.7095,0.0,0.0,0.0,0.0,0.0,0.0,0.0,0.0,0.0,0.0,-0.5688,0.0,0.0,0.0,0.0,-0.5688,0.0,0.0,0.0,0.0,0.0,-0.5688,-0.5688,0.0,0.0,0.0,0.0,0.0,0.0,0.0,0.0,0.0,0.0,0.0,0.0,-0.5688,0.0,-0.5688,-0.5688,-0.5688,-0.5688,-0.5688,-0.5688,-0.5688,-0.5694,-0.5694,-0.5696,-0.5855,-0.5909,-0.5912,-0.6034,-0.6157,-0.6317,-0.6322,-0.6336,-0.6387,-0.6437,-0.6437,-0.6534,-0.7627,-0.8021,-0.812,-0.9258,-1.0293,-1.1077,-0.7095,-0.7095,0.0,0.0,0.0,0.0,0.0,-0.7095,0.0,0.0,0.0,0.0,0.0,-0.7095,-0.7095,0.0,0.0,-0.7095,-0.7095,-0.7095,0.0,0.0,0.0,-0.7095,0.0,0.0,0.0,0.0,0.0,0.0,0.0,0.0,0.0,0.0,0.0,-0.7095,0.0,0.0,0.0,0.0,0.0,-0.7095,-0.7095,0.0,0.0,-0.7095,-0.7095,-0.7095,0.0,-0.7095,-0.7095,-0.7095,-0.7095,-0.7095,-0.7007,-0.6517,-0.6384,0.0,0.0,0.0,-0.5733,-0.5908,0.0,0.0,0.0,0.0,0.0,0.0,0.0,0.0,0.0,0.0,-0.5688,-0.5688,-0.5688,0.0,0.0,0.0,0.0,0.0,0.0,0.0,0.0,0.0,0.0,-0.5688,-0.5688,-0.5688,0.0,-0.5688,-0.5688,-0.5688,-0.5688,-0.5688,-0.5688,-0.5688,-0.5688,-0.5688,-0.5729,-0.5748,-0.5795,-0.5912,-0.5988,-0.6032,-0.6113,-0.6214,-0.6325,-0.6325,-0.6369,-0.6434,-0.6783,-0.6933,-0.7179,-0.8962,-0.985,-1.0096,-0.7095,0.0,0.0,0.0,0.0,0.0,0.0,0.0,0.0,0.0,-0.7095,0.0,-0.7095,0.0,-0.7095,0.0,-0.7095,-0.7095,-0.7095,-0.7095,0.0,-0.7095,-0.7095,0.0,0.0,0.0,0.0,0.0,0.0,-0.7095,0.0,0.0,0.0,0.0,0.0,0.0,-0.7095,0.0,-0.7095,0.0,0.0,-0.7095,0.0,0.0,-0.7095,-0.7095,0.0,-0.7095,-0.7095,-0.7095,-0.7095,-0.7095,-0.7095,-0.7095,-0.7007,-0.6517,-0.6384,-0.6299,-0.5819,-0.5777,0.0,-0.5952,-0.5908,0.0,-0.5952,0.0,0.0,0.0,0.0,0.0,0.0,0.0,0.0,-0.5688,-0.5688,-0.5688,0.0,-0.5688,0.0,0.0,0.0,0.0,0.0,0.0,-0.5688,-0.5688,-0.5688,-0.5688,0.0,0.0,-0.5688,-0.5688,-0.5688,-0.5688,-0.5688,-0.5688,-0.5688,-0.5688,-0.5688,-0.5688,-0.5691,-0.5809,-0.5866,-0.5907,-0.5986,-0.6089,-0.6254,-0.6298,-0.6312,-0.638,-0.6371,-0.6387,-0.6584,-0.7971,-0.8467,-0.8517,0.0,0.0,0.0,0.0,-0.7095,0.0,0.0,0.0,-0.7095,0.0,-0.7095,-0.7095,-0.7095,-0.7095,-0.7095,-0.7095,-0.7095,-0.7095,-0.7095,-0.7095,0.0,0.0,-0.7095,-0.7095,-0.7095,0.0,0.0,0.0,0.0,0.0,0.0,0.0,0.0,0.0,-0.7095,0.0,-0.7095,-0.7095,-0.7095,-0.7095,-0.7095,-0.7095,-0.7095,-0.7095,0.0,-0.7095,-0.7095,-0.7095,-0.7095,-0.7095,-0.7095,-0.7095,-0.7095,-0.7095,-0.7007,-0.6517,-0.6384,-0.6299,-0.5819,-0.5908,-0.6041,-0.5777,0.0,0.0,0.0,0.0,-0.5688,0.0,0.0,0.0,0.0,0.0,0.0,-0.5688,-0.5688,-0.5688,0.0,0.0,0.0,0.0,0.0,0.0,0.0,-0.5688,-0.5688,-0.5688,-0.5688,-0.5688,0.0,0.0,0.0,-0.5688,-0.5688,-0.5688,-0.5688,-0.5688,-0.5688,-0.5688,-0.5688,-0.5688,-0.5688,-0.5688,-0.5748,-0.5893,-0.5893,-0.5964,-0.6086,-0.6251,-0.6303,-0.632,-0.6385,-0.6381,-0.6387,-0.6387,-0.6387,-0.6534,-0.7095,-0.7095,-0.7095,0.0,-0.7095,-0.7095,0.0,0.0,0.0,0.0,-0.7095,-0.7095,-0.7095,-0.7095,-0.7095,-0.7095,-0.7095,0.0,0.0,0.0,0.0,-0.7095,-0.7095,-0.7095,-0.7095,-0.7095,0.0,-0.7095,0.0,0.0,-0.7095,0.0,0.0,0.0,0.0,0.0,-0.7095,-0.7095,-0.7095,-0.7095,-0.7095,-0.7095,0.0,0.0,-0.7095,-0.7095,-0.7095,-0.7095,-0.7095,-0.7095,-0.7095,-0.7095,-0.7095,-0.701,-0.6836,-0.6476,-0.6384,-0.6299,-0.5819,-0.5908,-0.6083,-0.5994,-0.5908,-0.5822,0.0,0.0,0.0,0.0,0.0,0.0,0.0,0.0,0.0,-0.5688,-0.5688,-0.5688,0.0,0.0,0.0,0.0,0.0,0.0,0.0,-0.5688,-0.5688,-0.5688,-0.5688,0.0,0.0,0.0,0.0,-0.5688,-0.5688,-0.5688,-0.5688,-0.5688,-0.5688,-0.5688,-0.5688,-0.5688,-0.5688,-0.5688,-0.5704,-0.5731,-0.5731,-0.5841,-0.5953,-0.5986,-0.6051,-0.6146,-0.6265,-0.6363,-0.6387,-0.6387,-0.6387,-0.6437,-0.7095,0.0,0.0,-0.7095,0.0,0.0,-0.7095,0.0,0.0,-0.7095,-0.7095,0.0,-0.7095,-0.7095,-0.7095,-0.7095,-0.7095,0.0,-0.7095,0.0,0.0,-0.7095,-0.7095,-0.7095,-0.7095,-0.7095,0.0,-0.7095,0.0,0.0,-0.7095,0.0,0.0,0.0,0.0,-0.7095,0.0,-0.7095,-0.7095,-0.7095,-0.7095,0.0,0.0,-0.7095,-0.7095,-0.7095,-0.7095,-0.7095,-0.7095,-0.7095,-0.7095,-0.7095,-0.7095,-0.6969,-0.6748,-0.6612,-0.6476,-0.6343,-0.5952,-0.6038,-0.6169,-0.5997,-0.5908,-0.5863,-0.5908,-0.5819,-0.5688,0.0,0.0,0.0,0.0,0.0,0.0,0.0,0.0,0.0,0.0,0.0,0.0,0.0,0.0,0.0,0.0,0.0,-0.5688,0.0,0.0,0.0,0.0,0.0,0.0,-0.5688,-0.5688,-0.5688,-0.5688,-0.5688,-0.5688,-0.5688,-0.5688,-0.5688,-0.5688,-0.5688,-0.5688,-0.5688,-0.5688,-0.5726,-0.5833,-0.5882,-0.5945,-0.6024,-0.6248,-0.6309,-0.6369,-0.6368,-0.6387,-0.6387,0.0,0.0,0.0,0.0,0.0,0.0,0.0,-0.7095,0.0,-0.7095,0.0,-0.7125,-0.7125,-0.7142,-0.7156,-0.7156,0.0,-0.7146,-0.7129,-0.7125,-0.7119,-0.7095,-0.7095,-0.7095,-0.7095,-0.7095,-0.7095,0.0,0.0,0.0,0.0,0.0,0.0,0.0,0.0,0.0,0.0,-0.7095,-0.7095,0.0,-0.7095,-0.7095,-0.7095,-0.7095,-0.7095,-0.7095,-0.7095,-0.7095,-0.7095,-0.7095,-0.7095,-0.7095,-0.7095,-0.6969,-0.6795,-0.6795,-0.6656,-0.6387,-0.6171,-0.6257,-0.6299,-0.5822,-0.5863,-0.5997,-0.5733,-0.5688,-0.5688,-0.5688,-0.5688,0.0,0.0,0.0,0.0,0.0,0.0,0.0,0.0,0.0,0.0,0.0,0.0,0.0,0.0,0.0,0.0,0.0,0.0,0.0,0.0,0.0,0.0,0.0,-0.5688,0.0,-0.5688,0.0,-0.5688,-0.5688,-0.5688,-0.5688,-0.5688,-0.5688,-0.5688,-0.5688,-0.5688,-0.5688,-0.5696,-0.5839,-0.5888,-0.5923,-0.6138,-0.6279,-0.626,-0.6372,-0.6365,-0.6368,0.0,0.0,0.0,0.0,0.0,-0.7095,-0.7095,-0.7095,-0.7095,-0.7095,-0.7251,-0.7329,-0.7329,-0.7444,-0.7519,-0.7519,-0.7519,0.0,0.0,0.0,0.0,-0.7102,-0.7095,-0.7095,-0.7095,-0.7095,-0.7095,0.0,0.0,0.0,0.0,0.0,0.0,0.0,0.0,0.0,-0.7095,-0.7095,0.0,-0.7095,-0.7095,-0.7095,-0.7095,-0.7095,-0.7095,-0.7095,-0.7095,-0.7095,-0.7095,-0.7095,-0.7095,-0.7095,-0.7095,-0.6969,-0.6795,-0.6795,-0.6748,-0.6659,-0.6216,-0.6257,-0.6299,-0.5822,-0.5733,-0.5777,-0.5688,-0.5688,-0.5688,-0.5688,-0.5688,-0.5419,-0.4478,0.0,0.0,0.0,0.0,0.0,0.0,0.0,0.0,0.0,0.0,0.0,0.0,0.0,0.0,0.0,0.0,0.0,0.0,0.0,0.0,0.0,0.0,0.0,0.0,0.0,0.0,-0.5688,-0.5688,-0.5688,-0.5688,-0.5688,-0.5688,-0.5688,-0.5688,-0.5688,-0.5691,-0.571,-0.5817,-0.5907,-0.595,-0.6029,-0.6132,-0.6252,-0.6298,-0.6312,0.0,0.0,0.0,0.0,0.0,0.0,0.0,-0.7329,0.0,-0.7268,-0.7394,-0.7489,-0.7489,-0.7556,-0.76,-0.76,-0.76,-0.7567,-0.7495,-0.746,-0.7336,-0.7261,-0.7139,0.0,-0.7095,-0.7095,-0.7095,-0.7095,0.0,0.0,-0.7095,0.0,0.0,0.0,0.0,-0.7095,0.0,0.0,0.0,-0.7095,-0.7095,-0.7095,-0.7095,-0.7095,-0.7095,-0.7095,-0.7095,-0.7095,-0.7095,-0.7095,-0.7095,-0.7095,-0.7095,-0.6969,-0.6836,-0.6925,-0.6881,-0.6707,-0.6346,-0.6343,-0.6299,-0.5822,-0.5688,-0.5688,-0.5688,-0.5688,-0.5688,-0.5688,-0.5329,-0.4701,-0.3762,-0.2778,0.0,0.0,0.0,0.0,0.0,0.0,0.0,0.0,0.0,0.0,0.0,0.0,0.0,0.0,0.0,0.0,0.0,0.0,0.0,0.0,0.0,0.0,0.0,0.0,0.0,-0.5688,-0.5688,-0.5688,-0.5688,-0.5688,-0.5688,-0.5688,-0.5688,-0.5688,-0.5688,-0.5688,-0.5721,-0.582,-0.588,-0.5939,-0.6005,-0.6127,-0.6262,-0.6333,0.0,-0.7122,0.0,0.0,-0.7319,0.0,-0.7421,-0.7546,-0.759,-0.7441,-0.755,-0.7645,-0.7645,-0.7675,-0.7692,-0.7692,-0.7692,-0.7678,-0.7648,-0.7533,-0.7484,-0.7419,-0.7255,-0.7129,-0.7095,-0.7095,-0.7095,0.0,0.0,0.0,0.0,0.0,0.0,0.0,0.0,0.0,0.0,0.0,-0.6694,-0.6558,-0.6918,-0.6874,-0.6561,-0.6962,-0.6962,-0.683,-0.7007,-0.7095,-0.7095,-0.7095,-0.7095,-0.7095,-0.7095,-0.701,-0.6881,-0.701,-0.6925,-0.6748,-0.6435,-0.6343,-0.6257,-0.5819,-0.5688,-0.5688,-0.5688,-0.5555,-0.5419,-0.5419,-0.4478,-0.3537,-0.3001,-0.1928,0.0,0.0,0.0,0.0,0.0,0.0,0.0,0.0,0.0,0.0,0.0,0.0,0.0,0.0,0.0,0.0,0.0,0.0,0.0,0.0,0.0,0.0,-0.5688,0.0,-0.5644,0.0,-0.5688,-0.5688,-0.5688,-0.5688,-0.5688,-0.5688,-0.5688,-0.5688,-0.5688,-0.5688,-0.5688,-0.5696,-0.5833,-0.5866,-0.5882,-0.6002,-0.6108,-0.6206,0.0,0.0,0.0,0.0,0.0,0.0,0.0,-0.7699,-0.774,-0.7597,-0.7702,-0.779,-0.779,-0.7867,-0.7948,-0.7948,-0.7948,-0.7891,-0.7801,-0.7777,-0.7651,-0.7429,-0.7402,-0.7285,-0.7098,-0.7095,-0.7095,0.0,0.0,0.0,0.0,0.0,0.0,0.0,0.0,0.0,0.0,-0.545,-0.5361,-0.469,-0.6425,-0.6068,-0.4734,-0.647,-0.6564,-0.5941,-0.6786,-0.7095,-0.7095,-0.7095,-0.7095,-0.7095,-0.7095,-0.7095,-0.7054,-0.6881,-0.6795,-0.6704,-0.626,-0.6127,-0.6038,-0.5777,-0.5688,-0.5688,-0.5688,-0.506,-0.4433,-0.4433,-0.2956,-0.1928,-0.2732,-0.1391,-0.1032,0.0,0.0,0.0,0.0,0.0,0.0,0.0,0.0,0.0,0.0,0.0,0.0,0.0,0.0,0.0,0.0,0.0,0.0,-0.4389,0.0,-0.461,-0.5688,-0.5508,0.0,-0.5688,-0.5688,-0.5688,-0.5688,-0.5688,-0.5688,-0.5688,-0.5688,-0.5688,-0.5688,-0.5688,-0.5688,-0.5691,-0.5699,-0.5704,-0.5718,-0.5877,-0.5926,-0.5956,0.0,0.0,0.0,0.0,0.0,0.0,0.0,-0.7851,-0.7877,-0.7872,-0.7864,-0.7897,-0.7897,-0.7955,-0.7988,-0.7988,-0.7988,-0.7965,-0.7901,-0.7862,-0.7756,-0.7641,-0.7465,-0.7343,-0.7282,-0.7142,-0.7095,0.0,0.0,0.0,0.0,0.0,0.0,0.0,0.0,-0.4645,-0.4334,-0.469,-0.4645,-0.4376,-0.5134,-0.4956,-0.4376,-0.5134,-0.5179,-0.4912,-0.5267,-0.5312,-0.5176,-0.5176,-0.6024,-0.7098,-0.6969,-0.6925,-0.6881,-0.6612,-0.6163,-0.5625,-0.5272,-0.4783,-0.4293,-0.4072,-0.403,-0.403,-0.403,-0.3717,-0.3449,-0.3449,-0.2374,-0.1345,-0.1211,-0.0539,-0.0359,0.0,0.0,0.0,0.0,0.0,0.0,0.0,0.0,0.0,0.0,0.0,0.0,0.0,0.0,0.0,0.0,0.0,0.0,-0.3403,0.0,-0.3129,-0.3755,-0.4245,-0.4559,-0.4648,-0.5371,-0.5688,-0.5688,-0.5688,-0.5688,-0.5688,-0.5688,-0.5688,-0.5688,-0.5688,-0.5688,-0.5688,-0.5688,-0.5688,-0.5694,-0.5739,-0.5844,-0.5909,-0.758,0.0,-0.7662,0.0,-0.778,-0.7879,-0.7879,-0.7921,-0.7988,-0.7988,-0.7988,-0.7988,-0.7988,-0.7988,-0.7988,-0.7988,-0.7988,-0.7988,-0.7988,-0.7887,-0.7858,-0.7814,-0.7573,0.0,-0.7419,-0.6949,-0.6697,-0.6697,-0.6425,0.0,0.0,0.0,0.0,0.0,-0.3888,-0.371,-0.3487,-0.3755,-0.371,-0.3487,-0.4065,-0.3933,-0.3441,-0.4065,-0.402,-0.3708,-0.4065,-0.4018,-0.3794,-0.3794,-0.4819,-0.6068,-0.5894,-0.5849,-0.5805,-0.5536,-0.4999,-0.4421,-0.4158,-0.3623,-0.3087,-0.2956,-0.2911,-0.2911,-0.2911,-0.2689,-0.2374,-0.2107,-0.148,-0.0808,-0.0135,0.0,-0.009,-0.0359,0.0,0.0,0.0,0.0,0.0,0.0,0.0,0.0045,0.009,0.0,0.0,0.0,0.0,0.0,0.0,0.0,0.0,0.0,0.0,0.0,0.0,-0.3395,-0.3887,-0.4022,-0.5146,-0.5688,-0.5688,-0.5688,-0.5688,-0.5688,-0.5688,-0.5688,-0.5688,-0.5688,-0.5688,-0.5688,-0.5688,-0.5688,-0.5688,-0.5688,-0.5739,-0.5852,-0.76,-0.7712,-0.7811,-0.7811,-0.7887,-0.7985,-0.7985,-0.7988,-0.7988,-0.7988,-0.7988,-0.7988,-0.7988,-0.7988,-0.7988,-0.7988,-0.7988,-0.7988,-0.7988,-0.7988,-0.7921,0.0,0.0,-0.7526,-0.7419,-0.6278,-0.5719,-0.5719,0.0,0.0,-0.4334,0.0,-0.3801,-0.2913,-0.2913,-0.2374,-0.148,-0.251,-0.2331,-0.1614,-0.3532,-0.3041,-0.1389,-0.3487,-0.3396,-0.2282,-0.3484,-0.3794,-0.3614,-0.3614,-0.3614,-0.3659,-0.3659,-0.3659,-0.3571,-0.3307,-0.322,-0.3175,-0.2956,-0.2911,-0.2911,-0.2911,-0.2911,-0.2911,-0.2911,-0.2152,-0.1166,-0.0225,-0.0045,0.0,0.0,0.0,-0.0314,-0.1211,0.0,0.0,0.0,0.0,0.0,0.0,0.0,0.009,0.0359,0.0,0.0,0.0,0.0,0.0,0.0,0.0,0.0,-0.0716,-0.0537,0.0,-0.2502,-0.322,-0.3848,-0.43,-0.524,-0.5688,-0.5688,-0.5688,-0.5688,-0.5688,-0.5688,-0.5688,-0.5688,-0.5688,-0.5688,-0.5688,-0.5688,-0.5688,-0.5688,-0.5688,-0.5691,-0.5691,-0.7879,-0.7887,-0.7917,-0.7917,-0.7958,-0.7988,-0.7988,-0.7988,-0.7988,-0.7988,-0.7988,-0.7988,-0.7988,-0.7988,-0.7988,0.0,-0.7988,-0.7988,0.0,-0.7988,-0.7968,-0.7921,-0.7733,-0.7289,-0.6581,-0.6003,-0.5406,-0.4736,0.0,0.0,0.0,-0.3357,-0.282,-0.1883,-0.1883,-0.1614,-0.1211,-0.1524,-0.1389,-0.0986,-0.1612,-0.1433,-0.0896,-0.1567,-0.1567,-0.121,-0.1567,-0.1611,-0.1431,-0.1431,-0.1299,-0.1165,-0.1165,-0.2148,-0.3263,-0.3042,-0.2508,-0.1972,-0.1883,-0.1391,-0.0943,-0.0943,-0.0943,-0.0943,-0.0943,-0.0673,-0.0359,-0.0045,0.0,0.0,0.0,0.0,-0.009,-0.0404,0.0,0.0,0.0,0.0,0.0,0.0,0.018,0.0314,0.0,0.0538,0.0,0.0,0.0,0.0,0.0,0.0,0.0,0.0,0.0628,0.0,-0.0045,-0.0939,-0.1565,-0.1878,-0.2995,-0.3935,-0.4748,-0.5419,-0.5688,-0.5688,-0.5688,-0.5688,-0.5688,-0.5688,-0.5688,-0.5688,-0.5688,-0.5688,-0.5688,-0.5688,-0.5688,-0.5688,-0.7971,-0.7988,-0.7988,-0.7988,-0.7988,-0.7988,-0.7988,-0.7988,-0.7988,-0.7988,-0.7988,-0.7839,-0.7437,-0.7388,0.0,-0.7988,-0.764,-0.7388,-0.7388,-0.7033,-0.6781,-0.6781,-0.6589,-0.6219,-0.5601,0.0,0.0,-0.3757,-0.3398,-0.2908,-0.2331,-0.2331,-0.1973,-0.13,-0.13,-0.1166,-0.0942,-0.0942,-0.0852,-0.0718,-0.0718,-0.0673,-0.0583,-0.0673,-0.0583,-0.0449,-0.0538,-0.0448,-0.0269,-0.0269,-0.0135,0.0,0.0,-0.0942,-0.1971,-0.1837,-0.1345,-0.0853,-0.0853,-0.0449,0.0,0.0,0.0,0.0,0.0,0.0,0.0,0.0,0.0,0.0,0.0,0.0,0.0,0.0,0.0,0.0,0.0,0.0,0.0,0.0,0.0,0.0,0.0,0.0762,0.0,0.0,0.0,0.0,0.0,0.0,0.0,0.0987,0.1256,0.0,0.1121,0.009,-0.0492,-0.0716,-0.2278,-0.3487,-0.4344,-0.5285,-0.5688,-0.5688,-0.5688,-0.5688,-0.5688,-0.5688,-0.5688,-0.5688,-0.5688,-0.5688,-0.5688,-0.5688,-0.5688,-0.5688,-0.7786,-0.7786,0.0,0.0,-0.7786,0.0,-0.7786,-0.7786,-0.7786,-0.7786,-0.7786,-0.7388,-0.6384,-0.6284,-0.6686,-0.7686,0.0,0.0,0.0,-0.5377,-0.4824,-0.4824,-0.4693,0.0,-0.4518,-0.3452,-0.2882,-0.2778,-0.1838,-0.1391,-0.1391,-0.1345,-0.1256,-0.1076,-0.1076,-0.0942,-0.0673,-0.0673,-0.0673,-0.0673,-0.0673,-0.0538,-0.0404,-0.0583,-0.0359,-0.0045,-0.0269,-0.0224,0.0,0.0,0.0,0.0,0.0,0.0,0.0,0.0,0.0,0.0,0.0,0.0,0.0,0.0,0.0,0.0,0.0,0.0,0.0,0.0,0.0,0.0,0.0,0.0,0.0,0.0,0.0,0.0,0.0,0.0,0.0,0.0,0.0,0.0,0.0,0.1121,0.1211,0.0,0.0,0.0,0.0,0.0,0.1211,0.1391,0.1391,0.13,0.1121,0.0179,-0.0403,-0.0626,-0.2725,-0.3844,-0.4119,-0.506,-0.5555,-0.5599,-0.5599,-0.5644,-0.5688,-0.5688,-0.5688,-0.5688,-0.5688,-0.5688,-0.5688,-0.5688,-0.5688,-0.5688,0.0,0.0,-0.5577,-0.5577,-0.5577,-0.5577,-0.5577,-0.5577,-0.5577,-0.5577,-0.5577,-0.5477,-0.5227,-0.5177,-0.5277,-0.5527,-0.5327,-0.5177,-0.5177,-0.4924,-0.4824,-0.4824,-0.4693,-0.422,-0.3471,-0.308,-0.2517,-0.1749,-0.1345,-0.1166,-0.1166,-0.0942,-0.0852,-0.0807,-0.0807,-0.0673,-0.0493,-0.0493,-0.0359,-0.018,-0.018,-0.0135,-0.009,-0.0135,-0.009,0.0,-0.009,-0.0045,0.0,0.0,0.0,0.0,0.0,0.0,0.0,0.0,0.0,0.0,0.0,0.0,0.0,0.0,0.0,0.0,0.0,0.0,0.0,0.0,0.0,0.0,0.0,0.0,0.0,0.0,0.0,0.0,0.0,0.018,0.0,0.0,0.0718,0.0987,0.1076,0.1256,0.13,0.0,0.0,0.0,0.0,0.0,0.1345,0.1391,0.1391,0.1391,0.1345,0.1076,0.0762,0.0358,-0.1073,-0.1879,-0.2107,-0.309,-0.3941,-0.4612,-0.4612,-0.5015,-0.5688,-0.5688,-0.5688,-0.5688,-0.5688,-0.5688,-0.5688,-0.5688,-0.5688,-0.5688,-0.4824,-0.4824,-0.4824,-0.4824,-0.4824,-0.4824,-0.4824,-0.4824,-0.4824,-0.4824,-0.4824,-0.4624,-0.4124,-0.4074,-0.3875,-0.3374,-0.3775,-0.4074,-0.4074,-0.3624,-0.3323,-0.3323,-0.3265,-0.2962,-0.2381,-0.2288,-0.1923,-0.1256,-0.1031,-0.0897,-0.0897,-0.0762,-0.0673,-0.0583,-0.0583,-0.0448,-0.0224,-0.0224,-0.0135,0.0,0.0,0.0,0.0,0.0,0.0,0.0,0.0,0.0,0.0,0.0,0.0,0.0,0.0,0.0,0.0,0.0,0.0,0.0,0.0,0.0,0.0,0.0,0.0,0.0,0.0,0.0,0.0,0.0,0.0,0.0,0.0,0.0,0.0,0.0,0.009,0.018,0.018,0.0404,0.0,0.0718,0.0942,0.1121,0.1211,0.1345,0.1345,0.1256,0.0,0.0,0.1256,0.1345,0.1391,0.1391,0.1391,0.1391,0.1391,0.1391,0.1211,0.0852,-0.0358,-0.1029,-0.1299,-0.2419,-0.3179,-0.3673,-0.3673,-0.3941,-0.4433,-0.4433,-0.4656,-0.5062,-0.5062,-0.5329,-0.5688,-0.5688,-0.5419,-0.5062,-0.4325,-0.4325,-0.4325,-0.4325,-0.4325,-0.4325,-0.4325,-0.4325,-0.4325,-0.4325,-0.4325,-0.3974,-0.3074,-0.2973,-0.2572,-0.1667,-0.2422,-0.2973,-0.2973,-0.212,-0.1617,-0.1617,-0.1588,-0.1557,-0.1479,-0.1398,-0.1278,-0.1031,-0.0762,-0.0673,-0.0673,-0.0628,-0.0494,-0.0359,-0.0359,-0.0224,0.0,0.0,0.0,0.0,0.0,0.0,0.0,0.0,0.0,0.0,0.0,0.0,0.0,0.0,0.0,0.0,0.0,0.0,0.0,0.0,0.0,0.0,0.0,0.0,0.0,0.0,0.0,0.0,0.0,0.0,0.0,0.0,0.0,0.0,0.0,0.0,0.0,0.0,0.0224,0.0403,0.0403,0.0,0.0852,0.1076,0.1121,0.1211,0.1391,0.1386,0.1385,0.139,0.1386,0.0,0.0,0.1391,0.1391,0.1391,0.1391,0.1391,0.1391,0.1391,0.13,0.1076,0.0045,-0.0582,-0.085,-0.1926,-0.2464,-0.2643,-0.2643,-0.2686,-0.282,-0.2776,-0.3267,-0.4028,-0.3983,-0.452,-0.5285,-0.5238,-0.4746,-0.4076,-0.212,-0.212,-0.212,-0.212,-0.212,-0.212,-0.212,-0.212,-0.212,-0.212,-0.212,-0.2019,-0.1869,-0.1869,-0.1768,-0.1617,-0.1768,-0.1869,-0.1869,-0.1667,-0.1617,-0.1617,-0.1588,-0.1508,-0.124,-0.0965,-0.081,-0.0762,-0.0538,-0.0448,-0.0448,-0.0224,-0.009,-0.0045,-0.0045,-0.0045,0.0,0.0,0.0,0.0,0.0,0.0,0.0,0.0,0.0,0.0,0.0,0.0,0.0,0.0,0.0,0.0,0.0,0.0,0.0,0.0,0.0,0.0,0.0,0.0,0.0,0.0,0.0,0.0,0.0,0.0,0.0,0.0,0.0,0.0,0.0,0.0,0.0,0.0,0.0224,0.0403,0.0403,0.0,0.1031,0.1076,0.1256,0.1345,0.1391,0.1412,0.1408,0.1388,0.1412,0.1408,0.1389,0.1391,0.1391,0.1391,0.1391,0.1391,0.1391,0.1391,0.13,0.1076,0.0896,0.0672,0.0403,0.0045,-0.0582,-0.1387,-0.1387,-0.1834,-0.2547,-0.2323,-0.2457,-0.2771,-0.2546,-0.2818,-0.3314,-0.3086,-0.3041,-0.3135,-0.1617,-0.1617,-0.1617,-0.1617,-0.1617,-0.1617,-0.1617,-0.1617,-0.1617,-0.1617,-0.1617,-0.1617,-0.1617,-0.1617,-0.1566,-0.1415,-0.1364,-0.1314,-0.1162,-0.1465,-0.1516,-0.1415,-0.1375,-0.1239,-0.0924,-0.0679,-0.0538,-0.0538,-0.0314,-0.018,-0.018,-0.0045,0.0,0.0,0.0,0.0,0.0,0.0,0.0,0.0,0.0,0.0,0.0,0.0,0.0,0.0,0.0,0.0,0.0,0.0,0.0,0.0,0.0,0.0,0.0,0.0,0.0,0.0,0.0,0.0,0.0,0.0,0.0,0.0,0.0,0.0,0.0,0.0,0.0,0.0045,0.018,0.0224,0.0269,0.0359,0.0583,0.0,0.0,0.1076,0.1256,0.1256,0.1345,0.1384,0.1412,0.1413,0.1413,0.1411,0.1413,0.1421,0.139,0.1391,0.1391,0.1391,0.1391,0.1391,0.1391,0.1391,0.1345,0.1256,0.1166,0.1031,0.0897,0.0673,0.0314,-0.0134,-0.0134,-0.0358,-0.0761,-0.0626,-0.0984,-0.1519,-0.1385,-0.1788,-0.2459,-0.2502,-0.2146,-0.1746,-0.1617,-0.1617,-0.1617,-0.1617,-0.1617,-0.1617,-0.1617,-0.1617,-0.1566,-0.1516,-0.1516,-0.1465,-0.1415,-0.1415,-0.1314,-0.1111,-0.1111,-0.101,-0.0808,-0.1162,-0.1311,-0.1104,-0.1064,-0.0885,-0.0628,-0.0404,-0.0314,-0.0314,-0.009,0.0,0.0,0.0,0.0,0.0,0.0,0.0,0.0,0.0,0.0,0.0,0.0,0.0,0.0,0.0,0.0,0.0,0.0,0.0,0.0,0.0,0.0,0.0,0.0,0.0,0.0,0.0,0.0,0.0,0.0,0.0,0.0,0.0,0.0,0.0,0.0,0.0,0.0,0.009,0.009,0.018,0.0404,0.0448,0.0538,0.0673,0.0,0.0,0.0,0.1256,0.1391,0.1391,0.1391,0.1381,0.1403,0.1415,0.1418,0.1401,0.1415,0.1383,0.139,0.1391,0.1391,0.1391,0.1391,0.1391,0.1391,0.1391,0.1391,0.1391,0.1256,0.1166,0.1166,0.0897,0.0807,0.0807,0.0807,0.0807,0.0807,0.0852,0.0403,-0.0268,-0.0224,-0.0715,-0.1475,-0.1609,-0.1118,-0.0448,-0.1617,-0.1617,-0.1617,-0.1617,-0.1617,-0.1617,-0.1617,-0.1617,-0.1516,-0.1263,-0.1212,-0.1111,-0.0909,-0.0859,-0.0859,-0.0808,-0.0808,-0.0808,-0.0808,-0.0859,-0.0852,-0.0837,-0.0569,-0.0459,-0.0404,-0.018,-0.0045,-0.0045,0.0,0.0,0.0,0.0,0.0,0.0,0.0,0.0,0.0,0.0,0.0,0.0,0.0,0.0,0.0,0.0,0.0,0.0,0.0,0.0,0.0,0.0,0.0,0.0,0.0,0.0,0.0,0.0,0.0,0.0,0.0,0.0,0.0,0.0,0.0,0.0,0.0,0.0,0.009,0.0314,0.0359,0.0448,0.0628,0.0673,0.0673,0.0718,0.0,0.0,0.1121,0.1256,0.1391,0.1391,0.1391,0.1389,0.1387,0.1408,0.1403,0.1385,0.1408,0.1406,0.1389,0.1391,0.1391,0.1391,0.1391,0.1391,0.1391,0.1391,0.1391,0.1391,0.1391,0.1391,0.139,0.1166,0.1076,0.1076,0.1076,0.1076,0.1076,0.1256,0.1211,0.0986,0.1166,0.0941,0.0538,0.0762,0.0717,0.0583,-0.1617,-0.1617,-0.1566,-0.1364,-0.1364,-0.1313,-0.1111,-0.1111,-0.1061,-0.096,-0.096,-0.0909,-0.0808,-0.0808,-0.0758,-0.0556,-0.0556,-0.0505,-0.0303,-0.03,-0.0394,-0.0531,-0.0282,-0.0137,-0.0135,-0.0045,0.0,0.0,0.0,0.0,0.0,0.0,0.0,0.0,0.0,0.0,0.0,0.0,0.0,0.0,0.0,0.0,0.0,0.0,0.0,0.0,0.0,0.0,0.0,0.0,0.0,0.0045,0.018,0.0269,0.0269,0.0404,0.0449,0.0449,0.0449,0.0225,0.0045,0.0224,0.0269,0.0269,0.0404,0.0449,0.0449,0.0583,0.0583,0.0673,0.0897,0.0942,0.0987,0.1121,0.0,0.13,0.13,0.1345,0.1391,0.1391,0.1391,0.1383,0.1409,0.1414,0.1415,0.1408,0.1414,0.1379,0.139,0.1391,0.1391,0.1391,0.1391,0.1391,0.1391,0.1391,0.1391,0.1391,0.1391,0.1391,0.1391,0.13,0.13,0.13,0.13,0.13,0.13,0.139,0.1345,0.13,0.139,0.13,0.1121,0.1121,0.1121,0.1076,-0.1364,-0.1364,-0.1313,-0.1111,-0.1061,-0.101,-0.0808,-0.0808,-0.0758,-0.0707,-0.0657,-0.0657,-0.0556,-0.0556,-0.0455,-0.0303,-0.0253,-0.0201,0.0,0.0,-0.0096,-0.0284,-0.0093,0.0,0.0,0.0,0.0,0.0,0.0,0.0,0.0,0.0,0.0,0.0,0.0,0.0,0.0,0.0,0.0,0.0,0.0,0.0,0.0,0.0,0.0045,0.0135,0.0045,0.0225,0.0584,0.0584,0.0584,0.0628,0.0852,0.0941,0.103,0.1478,0.1611,0.1611,0.1611,0.1388,0.1031,0.0583,0.0493,0.0538,0.0673,0.0718,0.0718,0.0807,0.0807,0.0897,0.1166,0.1211,0.1256,0.1391,0.1391,0.1391,0.1391,0.1391,0.1391,0.1391,0.1391,0.1383,0.1406,0.1379,0.1382,0.1406,0.1379,0.1391,0.1391,0.1391,0.1391,0.1391,0.1391,0.1391,0.1391,0.1391,0.1391,0.1391,0.1391,0.1391,0.1391,0.1391,0.1391,0.1391,0.1391,0.1391,0.1391,0.1391,0.1391,0.1391,0.1391,0.1391,0.1391,0.1256,0.13,0.1345,-0.0808,-0.0808,-0.0808,-0.0808,-0.0808,-0.0808,-0.0808,-0.0808,-0.0707,-0.0455,-0.0404,-0.0303,-0.0051,0.0,0.0,0.0,0.0,0.0,0.0,0.0,0.0,0.0,0.0,0.0,0.0,0.0,0.0,0.0,0.0,0.0,0.0,0.0,0.0,0.0,0.0,0.0,0.0,0.0,0.0,0.0,0.0,0.0045,0.0045,0.0045,0.018,0.0404,0.0135,0.0807,0.1835,0.1835,0.1835,0.1835,0.2059,0.2104,0.2326,0.3304,0.3614,0.3614,0.3614,0.3614,0.3126,0.121,0.0718,0.0718,0.0718,0.0718,0.0807,0.1076,0.1121,0.1166,0.1391,0.1436,0.1436,0.1436,0.1436,0.1436,0.1436,0.1391,0.1391,0.1391,0.1391,0.1391,0.1391,0.1391,0.1391,0.1391,0.1391,0.1391,0.1391,0.1391,0.1391,0.1391,0.1391,0.1391,0.1391,0.1391,0.1391,0.1391,0.1391,0.1391,0.1391,0.1391,0.1391,0.1391,0.1391,0.1391,0.1391,0.1391,0.1391,0.1391,0.1391,0.1391,0.1391,0.1391,0.1391,0.1391,-0.0808,-0.0808,-0.0758,-0.0556,-0.0505,-0.0455,-0.0253,-0.0253,-0.0202,-0.0152,-0.0101,-0.0101,0.0,0.0,0.0,0.0,0.0,0.0,0.0,0.0,0.0,0.0,0.0,0.0,0.0,0.0,0.0,0.0,0.0,0.0,0.0,0.0,0.0,0.0,0.0,0.0,0.0045,0.0718,0.0987,0.1077,0.1926,0.2238,0.2282,0.2459,0.2592,0.2635,0.2547,0.2769,0.3081,0.3081,0.3081,0.3081,0.3306,0.3486,0.3708,0.4018,0.4107,0.4107,0.4107,0.4107,0.3885,0.3127,0.2949,0.2994,0.3173,0.3218,0.3263,0.3307,0.3353,0.3353,0.3443,0.3443,0.3443,0.3443,0.3443,0.3221,0.2553,0.2464,0.2196,0.148,0.1391,0.1391,0.1391,0.1391,0.1391,0.1391,0.1391,0.1391,0.1391,0.1391,0.1391,0.1391,0.1391,0.1391,0.1391,0.1391,0.1391,0.1391,0.1391,0.1391,0.1391,0.1391,0.1391,0.1391,0.1391,0.1391,0.1391,0.1391,0.1391,0.1391,0.1391,0.1391,0.1391,0.1391,0.1391,0.1391,-0.0505,-0.0505,-0.0455,-0.0253,-0.0253,-0.0202,0.0,0.0,0.0,0.0,0.0,0.0,0.0,0.0,0.0,0.0,0.0,0.0,0.0,0.0,0.0,0.0,0.0359,0.0359,0.0,0.0,0.0,0.0,0.0,0.018,0.0539,0.0539,0.0763,0.1166,0.1211,0.1255,0.13,0.197,0.2282,0.2326,0.3083,0.335,0.3395,0.3527,0.3659,0.3705,0.3614,0.3926,0.433,0.433,0.4374,0.4463,0.4554,0.4734,0.4914,0.5312,0.5401,0.5401,0.5401,0.5401,0.5356,0.522,0.4596,0.4107,0.4243,0.4289,0.4289,0.4289,0.4289,0.4289,0.4289,0.4289,0.4289,0.4289,0.4289,0.4111,0.3534,0.3446,0.3223,0.264,0.2551,0.2551,0.2551,0.2551,0.2551,0.2551,0.2551,0.2551,0.2551,0.2551,0.2551,0.2551,0.2551,0.2373,0.2017,0.1973,0.1793,0.1391,0.1391,0.1391,0.1391,0.1391,0.1391,0.1391,0.1391,0.1391,0.1391,0.1391,0.1391,0.1391,0.1391,0.1391,0.1391,0.1391,0.1391,0.1391,0.0,0.0,0.0,0.0,0.0,0.0,0.0,0.0,0.0,0.0,0.0,0.0,0.0,0.0,0.0,0.0,0.0095,0.0139,0.0138,0.0227,0.0269,0.0269,0.1077,0.1166,0.0314,0.0269,0.0269,0.0269,0.0314,0.0763,0.1613,0.1613,0.2106,0.2956,0.3175,0.3218,0.3263,0.3571,0.3703,0.3748,0.3837,0.3881,0.3881,0.3926,0.4016,0.415,0.397,0.4641,0.5536,0.5536,0.5672,0.5808,0.5808,0.5808,0.5985,0.683,0.7095,0.7095,0.7095,0.7095,0.7095,0.7095,0.5802,0.4554,0.4554,0.4554,0.4554,0.4554,0.4554,0.4554,0.4554,0.4554,0.4554,0.4554,0.4554,0.4512,0.4423,0.4423,0.4378,0.4289,0.4289,0.4289,0.4289,0.4289,0.4289,0.4289,0.4289,0.4289,0.4289,0.4289,0.4289,0.4289,0.4289,0.3888,0.3045,0.3045,0.2464,0.1391,0.1391,0.1391,0.1391,0.1391,0.1391,0.1391,0.1391,0.1391,0.1391,0.1391,0.1391,0.1391,0.1391,0.1391,0.1391,0.1391,0.1391,0.1391,0.0,0.0,0.0,0.0,0.0,0.0,0.0,0.0,0.0,0.0,0.0,0.0,0.0,0.0,0.0,0.0,0.0662,0.1101,0.1084,0.1843,0.2285,0.2285,0.2596,0.2728,0.2505,0.2506,0.2506,0.2506,0.2726,0.2903,0.3127,0.3127,0.3261,0.3438,0.3482,0.3527,0.3571,0.4372,0.4685,0.4774,0.5714,0.6118,0.6118,0.6293,0.6381,0.6381,0.6337,0.6514,0.6738,0.6738,0.6738,0.6786,0.6786,0.6786,0.683,0.7051,0.7095,0.7095,0.7095,0.7095,0.7095,0.7095,0.6782,0.6473,0.6473,0.6473,0.6473,0.6473,0.6473,0.6473,0.6473,0.6473,0.6473,0.6473,0.6473,0.6248,0.5494,0.5406,0.5137,0.4376,0.4289,0.4289,0.4289,0.4289,0.4289,0.4289,0.4289,0.4289,0.4289,0.4289,0.4289,0.4289,0.4289,0.42,0.3978,0.3978,0.3132,0.1391,0.1391,0.1391,0.1391,0.1391,0.1391,0.1391,0.1391,0.1391,0.1391,0.1391,0.1391,0.1391,0.1391,0.1391,0.1391,0.1391,0.1391,0.1391,0.0757,0.0757,0.0757,0.0757,0.0757,0.0757,0.0757,0.0353,0.0202,0.0707,0.0757,0.0955,0.1394,0.1429,0.141,0.1384,0.1853,0.2174,0.224,0.273,0.3087,0.322,0.3753,0.4063,0.4063,0.4645,0.4423,0.3395,0.3527,0.3837,0.4283,0.4283,0.4508,0.4952,0.5087,0.5132,0.5179,0.5755,0.6021,0.6068,0.6697,0.6922,0.6966,0.7051,0.7095,0.7095,0.7095,0.7095,0.7095,0.7095,0.7095,0.7095,0.7095,0.7095,0.7095,0.7095,0.7095,0.7095,0.7095,0.7095,0.7095,0.7095,0.7095,0.7095,0.7095,0.7095,0.7095,0.7095,0.7095,0.7095,0.7095,0.7095,0.7143,0.7279,0.7279,0.7098,0.6612,0.6567,0.6343,0.5714,0.5625,0.5625,0.5625,0.5625,0.5625,0.5625,0.5625,0.5625,0.5625,0.5625,0.5625,0.5625,0.5625,0.5403,0.4959,0.4959,0.4245,0.2774,0.2774,0.2774,0.2774,0.2774,0.2552,0.2152,0.2596,0.2239,0.1436,0.1928,0.1838,0.1391,0.1391,0.1391,0.1391,0.1391,0.1391,0.1391,0.1865,0.1865,0.1865,0.1865,0.1865,0.1865,0.1865,0.111,0.0858,0.1765,0.186,0.2143,0.299,0.3113,0.3104,0.3036,0.3163,0.3312,0.3486,0.3664,0.384,0.4061,0.4863,0.5309,0.5309,0.6343,0.5983,0.415,0.4192,0.4594,0.5354,0.5354,0.5758,0.6517,0.6745,0.6836,0.6881,0.701,0.7095,0.7095,0.7095,0.7095,0.7095,0.7095,0.7095,0.7095,0.7095,0.7095,0.7095,0.7095,0.7095,0.7095,0.7095,0.7095,0.7095,0.7095,0.7095,0.7095,0.7095,0.7095,0.7095,0.7095,0.7095,0.7095,0.7095,0.7095,0.7095,0.7095,0.7095,0.7095,0.7143,0.7187,0.7279,0.7503,0.7547,0.7547,0.7547,0.7547,0.7503,0.7275,0.7228,0.7228,0.7228,0.7228,0.7228,0.7228,0.7228,0.7228,0.7228,0.7228,0.7228,0.7228,0.7228,0.6874,0.6074,0.6074,0.5672,0.4912,0.4912,0.469,0.4289,0.4289,0.3888,0.3178,0.3978,0.3398,0.1972,0.2777,0.2553,0.1704,0.1659,0.1569,0.148,0.148,0.148,0.148,0.2972,0.2972,0.2972,0.2972,0.2972,0.2972,0.2972,0.2871,0.2821,0.2972,0.288,0.2944,0.3323,0.3462,0.3495,0.3504,0.4247,0.4732,0.4776,0.5534,0.5983,0.6027,0.6343,0.6567,0.6567,0.6877,0.683,0.6346,0.6561,0.6694,0.6827,0.6827,0.6871,0.7007,0.7051,0.7051,0.7051,0.7095,0.7095,0.7095,0.7095,0.7095,0.7095,0.7095,0.7095,0.7095,0.7095,0.7095,0.7095,0.7095,0.7095,0.7095,0.7095,0.7095,0.7095,0.7095,0.7095,0.7095,0.7095,0.7095,0.7095,0.7095,0.7095,0.7095,0.7095,0.7095,0.7095,0.7095,0.7095,0.7187,0.7415,0.7459,0.7547,0.7812,0.7856,0.7856,0.7856,0.7856,0.7808,0.7808,0.7808,0.7808,0.7808,0.7808,0.7808,0.7808,0.7808,0.7808,0.7808,0.7808,0.7808,0.7808,0.7808,0.772,0.7588,0.7588,0.7544,0.7408,0.7408,0.6337,0.4289,0.4289,0.4245,0.4111,0.4245,0.4156,0.3933,0.4067,0.3667,0.2957,0.2777,0.2286,0.1749,0.1749,0.1749,0.1749,0.4079,0.4079,0.4079,0.4079,0.4079,0.4079,0.4079,0.3725,0.3609,0.4116,0.4277,0.4558,0.5119,0.5158,0.5183,0.5181,0.5534,0.5847,0.5983,0.6387,0.6656,0.6786,0.6922,0.6966,0.6966,0.7054,0.7051,0.6966,0.7051,0.7095,0.7095,0.7095,0.7095,0.7095,0.7095,0.7095,0.7095,0.7095,0.7095,0.7095,0.7095,0.7095,0.7095,0.7095,0.7095,0.7095,0.7095,0.7095,0.7095,0.7095,0.7095,0.7095,0.7095,0.7095,0.7095,0.7095,0.7095,0.7095,0.7095,0.7187,0.7323,0.7323,0.7455,0.754,0.754,0.754,0.7496,0.7367,0.7323,0.7411,0.768,0.7724,0.7812,0.8028,0.8069,0.8069,0.8069,0.8069,0.8028,0.79,0.79,0.79,0.79,0.79,0.79,0.79,0.79,0.79,0.79,0.79,0.79,0.79,0.79,0.79,0.79,0.79,0.79,0.79,0.79,0.736,0.6293,0.616,0.5847,0.5484,0.5891,0.545,0.4512,0.5176,0.4865,0.3981,0.4069,0.3888,0.3576,0.3576,0.3576,0.3576]}]]